<?xml version="1.0" encoding="UTF-8" standalone="no" ?>
<gpx xmlns="http://www.topografix.com/GPX/1/1" xmlns:xsi="http://www.w3.org/2001/XMLSchema-instance" xsi:schemaLocation="http://www.topografix.com/GPX/1/1 http://www.topografix.com/GPX/1/1/gpx.xsd" version="1.1" creator="VisuGPX - https://www.visugpx.com">
  <metadata>
    <name>Vézénobre 2012-02</name>
    <desc><![CDATA[Jolie balade bien roulante. De jolis monotraces.]]></desc>
  </metadata>
  <trk>
    <name><![CDATA[17-FEV-12 04:27:44 PM]]></name>
    <trkseg>
      <trkpt lat="44.04978" lon="4.14095">
        <ele>35.23</ele>
        <time>2012-02-17T12:55:35Z</time>
      </trkpt>
      <trkpt lat="44.04976" lon="4.14095">
        <ele>35.71</ele>
        <time>2012-02-17T12:55:36Z</time>
      </trkpt>
      <trkpt lat="44.04976" lon="4.14093">
        <ele>38.59</ele>
        <time>2012-02-17T12:55:40Z</time>
      </trkpt>
      <trkpt lat="44.04977" lon="4.14095">
        <ele>44.84</ele>
        <time>2012-02-17T12:55:42Z</time>
      </trkpt>
      <trkpt lat="44.04978" lon="4.14096">
        <ele>50.61</ele>
        <time>2012-02-17T12:55:44Z</time>
      </trkpt>
      <trkpt lat="44.04979" lon="4.14098">
        <ele>56.37</ele>
        <time>2012-02-17T12:55:46Z</time>
      </trkpt>
      <trkpt lat="44.04978" lon="4.14097">
        <ele>60.7</ele>
        <time>2012-02-17T12:55:48Z</time>
      </trkpt>
      <trkpt lat="44.04978" lon="4.14096">
        <ele>65.51</ele>
        <time>2012-02-17T12:55:50Z</time>
      </trkpt>
      <trkpt lat="44.04979" lon="4.14096">
        <ele>69.35</ele>
        <time>2012-02-17T12:55:52Z</time>
      </trkpt>
      <trkpt lat="44.0498" lon="4.14098">
        <ele>74.64</ele>
        <time>2012-02-17T12:55:55Z</time>
      </trkpt>
      <trkpt lat="44.0498" lon="4.14098">
        <ele>79.45</ele>
        <time>2012-02-17T12:55:58Z</time>
      </trkpt>
      <trkpt lat="44.0498" lon="4.14097">
        <ele>83.29</ele>
        <time>2012-02-17T12:56:01Z</time>
      </trkpt>
      <trkpt lat="44.0498" lon="4.14095">
        <ele>87.14</ele>
        <time>2012-02-17T12:56:04Z</time>
      </trkpt>
      <trkpt lat="44.04979" lon="4.14095">
        <ele>91.46</ele>
        <time>2012-02-17T12:56:08Z</time>
      </trkpt>
      <trkpt lat="44.04978" lon="4.14095">
        <ele>93.87</ele>
        <time>2012-02-17T12:56:11Z</time>
      </trkpt>
      <trkpt lat="44.04979" lon="4.14096">
        <ele>96.75</ele>
        <time>2012-02-17T12:56:15Z</time>
      </trkpt>
      <trkpt lat="44.04981" lon="4.14097">
        <ele>100.11</ele>
        <time>2012-02-17T12:56:19Z</time>
      </trkpt>
      <trkpt lat="44.04982" lon="4.14098">
        <ele>101.08</ele>
        <time>2012-02-17T12:56:21Z</time>
      </trkpt>
      <trkpt lat="44.04982" lon="4.14098">
        <ele>104.44</ele>
        <time>2012-02-17T12:56:26Z</time>
      </trkpt>
      <trkpt lat="44.04983" lon="4.14099">
        <ele>106.36</ele>
        <time>2012-02-17T12:56:30Z</time>
      </trkpt>
      <trkpt lat="44.04984" lon="4.14099">
        <ele>109.73</ele>
        <time>2012-02-17T12:56:36Z</time>
      </trkpt>
      <trkpt lat="44.04985" lon="4.14098">
        <ele>110.69</ele>
        <time>2012-02-17T12:56:38Z</time>
      </trkpt>
      <trkpt lat="44.04985" lon="4.14097">
        <ele>112.61</ele>
        <time>2012-02-17T12:56:42Z</time>
      </trkpt>
      <trkpt lat="44.04981" lon="4.14093">
        <ele>115.01</ele>
        <time>2012-02-17T12:56:57Z</time>
      </trkpt>
      <trkpt lat="44.04994" lon="4.14093">
        <ele>117.9</ele>
        <time>2012-02-17T12:57:18Z</time>
      </trkpt>
      <trkpt lat="44.04995" lon="4.14091">
        <ele>117.9</ele>
        <time>2012-02-17T12:57:22Z</time>
      </trkpt>
      <trkpt lat="44.05008" lon="4.14088">
        <ele>121.74</ele>
        <time>2012-02-17T12:57:29Z</time>
      </trkpt>
      <trkpt lat="44.05031" lon="4.1409">
        <ele>123.67</ele>
        <time>2012-02-17T12:57:42Z</time>
      </trkpt>
      <trkpt lat="44.05058" lon="4.14094">
        <ele>125.59</ele>
        <time>2012-02-17T12:57:55Z</time>
      </trkpt>
      <trkpt lat="44.05087" lon="4.14096">
        <ele>127.99</ele>
        <time>2012-02-17T12:58:08Z</time>
      </trkpt>
      <trkpt lat="44.05097" lon="4.14095">
        <ele>124.15</ele>
        <time>2012-02-17T12:58:13Z</time>
      </trkpt>
      <trkpt lat="44.05098" lon="4.14095">
        <ele>124.15</ele>
        <time>2012-02-17T12:58:14Z</time>
      </trkpt>
      <trkpt lat="44.051" lon="4.14094">
        <ele>129.43</ele>
        <time>2012-02-17T12:58:15Z</time>
      </trkpt>
      <trkpt lat="44.05123" lon="4.14093">
        <ele>130.88</ele>
        <time>2012-02-17T12:58:27Z</time>
      </trkpt>
      <trkpt lat="44.05125" lon="4.14094">
        <ele>130.4</ele>
        <time>2012-02-17T12:58:28Z</time>
      </trkpt>
      <trkpt lat="44.05153" lon="4.1413">
        <ele>132.32</ele>
        <time>2012-02-17T12:58:44Z</time>
      </trkpt>
      <trkpt lat="44.0517" lon="4.14177">
        <ele>132.8</ele>
        <time>2012-02-17T12:58:59Z</time>
      </trkpt>
      <trkpt lat="44.05186" lon="4.14222">
        <ele>132.8</ele>
        <time>2012-02-17T12:59:12Z</time>
      </trkpt>
      <trkpt lat="44.0521" lon="4.14284">
        <ele>133.76</ele>
        <time>2012-02-17T12:59:30Z</time>
      </trkpt>
      <trkpt lat="44.05232" lon="4.14329">
        <ele>134.72</ele>
        <time>2012-02-17T12:59:44Z</time>
      </trkpt>
      <trkpt lat="44.05264" lon="4.14358">
        <ele>136.16</ele>
        <time>2012-02-17T12:59:58Z</time>
      </trkpt>
      <trkpt lat="44.05275" lon="4.14379">
        <ele>136.64</ele>
        <time>2012-02-17T13:00:05Z</time>
      </trkpt>
      <trkpt lat="44.0528" lon="4.14396">
        <ele>138.09</ele>
        <time>2012-02-17T13:00:09Z</time>
      </trkpt>
      <trkpt lat="44.0528" lon="4.14447">
        <ele>138.57</ele>
        <time>2012-02-17T13:00:23Z</time>
      </trkpt>
      <trkpt lat="44.05287" lon="4.14491">
        <ele>140.49</ele>
        <time>2012-02-17T13:00:36Z</time>
      </trkpt>
      <trkpt lat="44.05294" lon="4.14533">
        <ele>142.41</ele>
        <time>2012-02-17T13:00:49Z</time>
      </trkpt>
      <trkpt lat="44.05299" lon="4.14562">
        <ele>142.41</ele>
        <time>2012-02-17T13:00:58Z</time>
      </trkpt>
      <trkpt lat="44.05315" lon="4.14552">
        <ele>143.37</ele>
        <time>2012-02-17T13:01:06Z</time>
      </trkpt>
      <trkpt lat="44.0532" lon="4.14506">
        <ele>144.82</ele>
        <time>2012-02-17T13:01:20Z</time>
      </trkpt>
      <trkpt lat="44.0531" lon="4.14457">
        <ele>144.82</ele>
        <time>2012-02-17T13:01:32Z</time>
      </trkpt>
      <trkpt lat="44.05302" lon="4.14406">
        <ele>145.3</ele>
        <time>2012-02-17T13:01:44Z</time>
      </trkpt>
      <trkpt lat="44.053" lon="4.14354">
        <ele>145.3</ele>
        <time>2012-02-17T13:01:56Z</time>
      </trkpt>
      <trkpt lat="44.05305" lon="4.1432">
        <ele>148.66</ele>
        <time>2012-02-17T13:02:07Z</time>
      </trkpt>
      <trkpt lat="44.0531" lon="4.14309">
        <ele>150.1</ele>
        <time>2012-02-17T13:02:13Z</time>
      </trkpt>
      <trkpt lat="44.05316" lon="4.14299">
        <ele>151.06</ele>
        <time>2012-02-17T13:02:19Z</time>
      </trkpt>
      <trkpt lat="44.05318" lon="4.14294">
        <ele>152.51</ele>
        <time>2012-02-17T13:02:22Z</time>
      </trkpt>
      <trkpt lat="44.05328" lon="4.14278">
        <ele>155.87</ele>
        <time>2012-02-17T13:02:33Z</time>
      </trkpt>
      <trkpt lat="44.05331" lon="4.14273">
        <ele>156.35</ele>
        <time>2012-02-17T13:02:36Z</time>
      </trkpt>
      <trkpt lat="44.05337" lon="4.14258">
        <ele>159.24</ele>
        <time>2012-02-17T13:02:45Z</time>
      </trkpt>
      <trkpt lat="44.0534" lon="4.14248">
        <ele>160.68</ele>
        <time>2012-02-17T13:02:50Z</time>
      </trkpt>
      <trkpt lat="44.05344" lon="4.14229">
        <ele>163.08</ele>
        <time>2012-02-17T13:02:59Z</time>
      </trkpt>
      <trkpt lat="44.05347" lon="4.14212">
        <ele>166.93</ele>
        <time>2012-02-17T13:03:07Z</time>
      </trkpt>
      <trkpt lat="44.0536" lon="4.14188">
        <ele>169.81</ele>
        <time>2012-02-17T13:03:20Z</time>
      </trkpt>
      <trkpt lat="44.05367" lon="4.14176">
        <ele>170.77</ele>
        <time>2012-02-17T13:03:27Z</time>
      </trkpt>
      <trkpt lat="44.05385" lon="4.14149">
        <ele>173.17</ele>
        <time>2012-02-17T13:03:42Z</time>
      </trkpt>
      <trkpt lat="44.05402" lon="4.14121">
        <ele>176.06</ele>
        <time>2012-02-17T13:03:57Z</time>
      </trkpt>
      <trkpt lat="44.05417" lon="4.14088">
        <ele>177.5</ele>
        <time>2012-02-17T13:04:14Z</time>
      </trkpt>
      <trkpt lat="44.05427" lon="4.14075">
        <ele>179.9</ele>
        <time>2012-02-17T13:04:24Z</time>
      </trkpt>
      <trkpt lat="44.05419" lon="4.14081">
        <ele>178.46</ele>
        <time>2012-02-17T13:04:30Z</time>
      </trkpt>
      <trkpt lat="44.05409" lon="4.14094">
        <ele>177.5</ele>
        <time>2012-02-17T13:04:45Z</time>
      </trkpt>
      <trkpt lat="44.05408" lon="4.14093">
        <ele>177.02</ele>
        <time>2012-02-17T13:04:54Z</time>
      </trkpt>
      <trkpt lat="44.05401" lon="4.14074">
        <ele>177.02</ele>
        <time>2012-02-17T13:05:02Z</time>
      </trkpt>
      <trkpt lat="44.05392" lon="4.14037">
        <ele>177.5</ele>
        <time>2012-02-17T13:05:14Z</time>
      </trkpt>
      <trkpt lat="44.05393" lon="4.14003">
        <ele>181.35</ele>
        <time>2012-02-17T13:05:26Z</time>
      </trkpt>
      <trkpt lat="44.05394" lon="4.14">
        <ele>181.35</ele>
        <time>2012-02-17T13:05:27Z</time>
      </trkpt>
      <trkpt lat="44.05396" lon="4.13965">
        <ele>184.71</ele>
        <time>2012-02-17T13:05:41Z</time>
      </trkpt>
      <trkpt lat="44.05391" lon="4.13938">
        <ele>186.15</ele>
        <time>2012-02-17T13:05:54Z</time>
      </trkpt>
      <trkpt lat="44.0538" lon="4.13911">
        <ele>188.56</ele>
        <time>2012-02-17T13:06:07Z</time>
      </trkpt>
      <trkpt lat="44.05361" lon="4.13882">
        <ele>190</ele>
        <time>2012-02-17T13:06:20Z</time>
      </trkpt>
      <trkpt lat="44.05343" lon="4.13857">
        <ele>191.92</ele>
        <time>2012-02-17T13:06:33Z</time>
      </trkpt>
      <trkpt lat="44.05337" lon="4.1385">
        <ele>193.36</ele>
        <time>2012-02-17T13:06:37Z</time>
      </trkpt>
      <trkpt lat="44.05315" lon="4.13827">
        <ele>194.32</ele>
        <time>2012-02-17T13:06:50Z</time>
      </trkpt>
      <trkpt lat="44.05306" lon="4.13814">
        <ele>195.28</ele>
        <time>2012-02-17T13:06:56Z</time>
      </trkpt>
      <trkpt lat="44.05297" lon="4.13784">
        <ele>197.21</ele>
        <time>2012-02-17T13:07:07Z</time>
      </trkpt>
      <trkpt lat="44.05296" lon="4.1377">
        <ele>197.69</ele>
        <time>2012-02-17T13:07:12Z</time>
      </trkpt>
      <trkpt lat="44.05292" lon="4.13763">
        <ele>197.69</ele>
        <time>2012-02-17T13:07:14Z</time>
      </trkpt>
      <trkpt lat="44.05275" lon="4.13736">
        <ele>200.57</ele>
        <time>2012-02-17T13:07:22Z</time>
      </trkpt>
      <trkpt lat="44.05276" lon="4.13733">
        <ele>200.09</ele>
        <time>2012-02-17T13:07:23Z</time>
      </trkpt>
      <trkpt lat="44.05278" lon="4.13731">
        <ele>200.57</ele>
        <time>2012-02-17T13:07:24Z</time>
      </trkpt>
      <trkpt lat="44.0528" lon="4.13728">
        <ele>201.05</ele>
        <time>2012-02-17T13:07:25Z</time>
      </trkpt>
      <trkpt lat="44.05281" lon="4.13726">
        <ele>201.53</ele>
        <time>2012-02-17T13:07:26Z</time>
      </trkpt>
      <trkpt lat="44.05282" lon="4.13723">
        <ele>201.05</ele>
        <time>2012-02-17T13:07:27Z</time>
      </trkpt>
      <trkpt lat="44.05283" lon="4.13721">
        <ele>201.53</ele>
        <time>2012-02-17T13:07:28Z</time>
      </trkpt>
      <trkpt lat="44.05284" lon="4.13719">
        <ele>202.01</ele>
        <time>2012-02-17T13:07:29Z</time>
      </trkpt>
      <trkpt lat="44.05292" lon="4.13687">
        <ele>203.94</ele>
        <time>2012-02-17T13:07:42Z</time>
      </trkpt>
      <trkpt lat="44.05298" lon="4.13656">
        <ele>206.34</ele>
        <time>2012-02-17T13:07:54Z</time>
      </trkpt>
      <trkpt lat="44.05298" lon="4.13653">
        <ele>206.34</ele>
        <time>2012-02-17T13:07:55Z</time>
      </trkpt>
      <trkpt lat="44.05298" lon="4.13651">
        <ele>206.34</ele>
        <time>2012-02-17T13:07:56Z</time>
      </trkpt>
      <trkpt lat="44.05299" lon="4.13648">
        <ele>206.34</ele>
        <time>2012-02-17T13:07:57Z</time>
      </trkpt>
      <trkpt lat="44.05299" lon="4.13646">
        <ele>207.3</ele>
        <time>2012-02-17T13:07:58Z</time>
      </trkpt>
      <trkpt lat="44.053" lon="4.13643">
        <ele>206.82</ele>
        <time>2012-02-17T13:07:59Z</time>
      </trkpt>
      <trkpt lat="44.053" lon="4.1364">
        <ele>206.34</ele>
        <time>2012-02-17T13:08:00Z</time>
      </trkpt>
      <trkpt lat="44.05301" lon="4.13637">
        <ele>206.34</ele>
        <time>2012-02-17T13:08:01Z</time>
      </trkpt>
      <trkpt lat="44.05301" lon="4.13634">
        <ele>206.34</ele>
        <time>2012-02-17T13:08:02Z</time>
      </trkpt>
      <trkpt lat="44.05311" lon="4.13603">
        <ele>209.22</ele>
        <time>2012-02-17T13:08:15Z</time>
      </trkpt>
      <trkpt lat="44.05317" lon="4.13597">
        <ele>210.67</ele>
        <time>2012-02-17T13:08:19Z</time>
      </trkpt>
      <trkpt lat="44.05319" lon="4.13597">
        <ele>210.67</ele>
        <time>2012-02-17T13:08:20Z</time>
      </trkpt>
      <trkpt lat="44.0532" lon="4.13597">
        <ele>211.15</ele>
        <time>2012-02-17T13:08:21Z</time>
      </trkpt>
      <trkpt lat="44.05322" lon="4.13596">
        <ele>211.15</ele>
        <time>2012-02-17T13:08:22Z</time>
      </trkpt>
      <trkpt lat="44.05323" lon="4.13594">
        <ele>212.11</ele>
        <time>2012-02-17T13:08:23Z</time>
      </trkpt>
      <trkpt lat="44.05325" lon="4.13593">
        <ele>212.11</ele>
        <time>2012-02-17T13:08:24Z</time>
      </trkpt>
      <trkpt lat="44.05326" lon="4.13592">
        <ele>212.11</ele>
        <time>2012-02-17T13:08:25Z</time>
      </trkpt>
      <trkpt lat="44.05327" lon="4.1359">
        <ele>213.07</ele>
        <time>2012-02-17T13:08:26Z</time>
      </trkpt>
      <trkpt lat="44.05329" lon="4.13588">
        <ele>213.55</ele>
        <time>2012-02-17T13:08:27Z</time>
      </trkpt>
      <trkpt lat="44.0533" lon="4.13586">
        <ele>214.03</ele>
        <time>2012-02-17T13:08:28Z</time>
      </trkpt>
      <trkpt lat="44.05341" lon="4.13569">
        <ele>215.47</ele>
        <time>2012-02-17T13:08:32Z</time>
      </trkpt>
      <trkpt lat="44.05344" lon="4.13563">
        <ele>215.47</ele>
        <time>2012-02-17T13:08:33Z</time>
      </trkpt>
      <trkpt lat="44.05347" lon="4.13557">
        <ele>215.95</ele>
        <time>2012-02-17T13:08:34Z</time>
      </trkpt>
      <trkpt lat="44.05351" lon="4.13553">
        <ele>215.47</ele>
        <time>2012-02-17T13:08:35Z</time>
      </trkpt>
      <trkpt lat="44.05355" lon="4.13549">
        <ele>215.47</ele>
        <time>2012-02-17T13:08:36Z</time>
      </trkpt>
      <trkpt lat="44.05359" lon="4.13546">
        <ele>215.47</ele>
        <time>2012-02-17T13:08:37Z</time>
      </trkpt>
      <trkpt lat="44.05363" lon="4.13543">
        <ele>215.95</ele>
        <time>2012-02-17T13:08:38Z</time>
      </trkpt>
      <trkpt lat="44.05373" lon="4.13538">
        <ele>214.99</ele>
        <time>2012-02-17T13:08:41Z</time>
      </trkpt>
      <trkpt lat="44.05376" lon="4.13539">
        <ele>214.99</ele>
        <time>2012-02-17T13:08:42Z</time>
      </trkpt>
      <trkpt lat="44.05379" lon="4.13539">
        <ele>215.47</ele>
        <time>2012-02-17T13:08:43Z</time>
      </trkpt>
      <trkpt lat="44.05381" lon="4.1354">
        <ele>214.51</ele>
        <time>2012-02-17T13:08:44Z</time>
      </trkpt>
      <trkpt lat="44.05383" lon="4.13541">
        <ele>215.47</ele>
        <time>2012-02-17T13:08:45Z</time>
      </trkpt>
      <trkpt lat="44.05385" lon="4.13539">
        <ele>215.47</ele>
        <time>2012-02-17T13:08:51Z</time>
      </trkpt>
      <trkpt lat="44.05384" lon="4.13538">
        <ele>214.99</ele>
        <time>2012-02-17T13:08:52Z</time>
      </trkpt>
      <trkpt lat="44.05383" lon="4.13537">
        <ele>214.99</ele>
        <time>2012-02-17T13:08:56Z</time>
      </trkpt>
      <trkpt lat="44.05382" lon="4.13536">
        <ele>215.47</ele>
        <time>2012-02-17T13:08:57Z</time>
      </trkpt>
      <trkpt lat="44.0538" lon="4.13536">
        <ele>215.47</ele>
        <time>2012-02-17T13:08:58Z</time>
      </trkpt>
      <trkpt lat="44.0538" lon="4.13538">
        <ele>214.99</ele>
        <time>2012-02-17T13:08:59Z</time>
      </trkpt>
      <trkpt lat="44.0538" lon="4.1354">
        <ele>214.99</ele>
        <time>2012-02-17T13:09:00Z</time>
      </trkpt>
      <trkpt lat="44.05381" lon="4.13542">
        <ele>215.95</ele>
        <time>2012-02-17T13:09:01Z</time>
      </trkpt>
      <trkpt lat="44.05383" lon="4.13545">
        <ele>215.47</ele>
        <time>2012-02-17T13:09:02Z</time>
      </trkpt>
      <trkpt lat="44.05385" lon="4.13548">
        <ele>215.47</ele>
        <time>2012-02-17T13:09:03Z</time>
      </trkpt>
      <trkpt lat="44.05398" lon="4.13558">
        <ele>215.95</ele>
        <time>2012-02-17T13:09:09Z</time>
      </trkpt>
      <trkpt lat="44.054" lon="4.13557">
        <ele>215.95</ele>
        <time>2012-02-17T13:09:10Z</time>
      </trkpt>
      <trkpt lat="44.05402" lon="4.13556">
        <ele>216.43</ele>
        <time>2012-02-17T13:09:11Z</time>
      </trkpt>
      <trkpt lat="44.05405" lon="4.13555">
        <ele>216.43</ele>
        <time>2012-02-17T13:09:12Z</time>
      </trkpt>
      <trkpt lat="44.05407" lon="4.13553">
        <ele>216.91</ele>
        <time>2012-02-17T13:09:13Z</time>
      </trkpt>
      <trkpt lat="44.0544" lon="4.13547">
        <ele>216.43</ele>
        <time>2012-02-17T13:09:25Z</time>
      </trkpt>
      <trkpt lat="44.05483" lon="4.13578">
        <ele>215.47</ele>
        <time>2012-02-17T13:09:40Z</time>
      </trkpt>
      <trkpt lat="44.05531" lon="4.13617">
        <ele>214.03</ele>
        <time>2012-02-17T13:09:57Z</time>
      </trkpt>
      <trkpt lat="44.05554" lon="4.13636">
        <ele>212.59</ele>
        <time>2012-02-17T13:10:04Z</time>
      </trkpt>
      <trkpt lat="44.05558" lon="4.13639">
        <ele>212.59</ele>
        <time>2012-02-17T13:10:05Z</time>
      </trkpt>
      <trkpt lat="44.05562" lon="4.13642">
        <ele>212.59</ele>
        <time>2012-02-17T13:10:06Z</time>
      </trkpt>
      <trkpt lat="44.05565" lon="4.13645">
        <ele>212.59</ele>
        <time>2012-02-17T13:10:07Z</time>
      </trkpt>
      <trkpt lat="44.05567" lon="4.1365">
        <ele>211.63</ele>
        <time>2012-02-17T13:10:08Z</time>
      </trkpt>
      <trkpt lat="44.05566" lon="4.13655">
        <ele>211.63</ele>
        <time>2012-02-17T13:10:09Z</time>
      </trkpt>
      <trkpt lat="44.05564" lon="4.1366">
        <ele>212.59</ele>
        <time>2012-02-17T13:10:10Z</time>
      </trkpt>
      <trkpt lat="44.05562" lon="4.13664">
        <ele>212.59</ele>
        <time>2012-02-17T13:10:11Z</time>
      </trkpt>
      <trkpt lat="44.05561" lon="4.13668">
        <ele>213.07</ele>
        <time>2012-02-17T13:10:12Z</time>
      </trkpt>
      <trkpt lat="44.05561" lon="4.13673">
        <ele>213.55</ele>
        <time>2012-02-17T13:10:13Z</time>
      </trkpt>
      <trkpt lat="44.0556" lon="4.13677">
        <ele>214.03</ele>
        <time>2012-02-17T13:10:14Z</time>
      </trkpt>
      <trkpt lat="44.05561" lon="4.13681">
        <ele>214.03</ele>
        <time>2012-02-17T13:10:15Z</time>
      </trkpt>
      <trkpt lat="44.05562" lon="4.13685">
        <ele>214.03</ele>
        <time>2012-02-17T13:10:16Z</time>
      </trkpt>
      <trkpt lat="44.05564" lon="4.13688">
        <ele>214.03</ele>
        <time>2012-02-17T13:10:17Z</time>
      </trkpt>
      <trkpt lat="44.05566" lon="4.1369">
        <ele>214.03</ele>
        <time>2012-02-17T13:10:18Z</time>
      </trkpt>
      <trkpt lat="44.05568" lon="4.13693">
        <ele>214.03</ele>
        <time>2012-02-17T13:10:19Z</time>
      </trkpt>
      <trkpt lat="44.05571" lon="4.13695">
        <ele>214.03</ele>
        <time>2012-02-17T13:10:20Z</time>
      </trkpt>
      <trkpt lat="44.05613" lon="4.13716">
        <ele>214.03</ele>
        <time>2012-02-17T13:10:33Z</time>
      </trkpt>
      <trkpt lat="44.05651" lon="4.1373">
        <ele>214.51</ele>
        <time>2012-02-17T13:10:45Z</time>
      </trkpt>
      <trkpt lat="44.05693" lon="4.1374">
        <ele>214.51</ele>
        <time>2012-02-17T13:10:57Z</time>
      </trkpt>
      <trkpt lat="44.05736" lon="4.13753">
        <ele>214.51</ele>
        <time>2012-02-17T13:11:10Z</time>
      </trkpt>
      <trkpt lat="44.05782" lon="4.13773">
        <ele>213.07</ele>
        <time>2012-02-17T13:11:23Z</time>
      </trkpt>
      <trkpt lat="44.0579" lon="4.13777">
        <ele>213.55</ele>
        <time>2012-02-17T13:11:25Z</time>
      </trkpt>
      <trkpt lat="44.05803" lon="4.13783">
        <ele>212.11</ele>
        <time>2012-02-17T13:11:33Z</time>
      </trkpt>
      <trkpt lat="44.05803" lon="4.13783">
        <ele>212.11</ele>
        <time>2012-02-17T13:11:56Z</time>
      </trkpt>
      <trkpt lat="44.05805" lon="4.13783">
        <ele>212.11</ele>
        <time>2012-02-17T13:12:04Z</time>
      </trkpt>
      <trkpt lat="44.05807" lon="4.13784">
        <ele>211.63</ele>
        <time>2012-02-17T13:12:05Z</time>
      </trkpt>
      <trkpt lat="44.05808" lon="4.13783">
        <ele>212.11</ele>
        <time>2012-02-17T13:12:06Z</time>
      </trkpt>
      <trkpt lat="44.05824" lon="4.13784">
        <ele>210.19</ele>
        <time>2012-02-17T13:12:10Z</time>
      </trkpt>
      <trkpt lat="44.0583" lon="4.13785">
        <ele>210.19</ele>
        <time>2012-02-17T13:12:11Z</time>
      </trkpt>
      <trkpt lat="44.05835" lon="4.13788">
        <ele>209.7</ele>
        <time>2012-02-17T13:12:12Z</time>
      </trkpt>
      <trkpt lat="44.05858" lon="4.13798">
        <ele>209.22</ele>
        <time>2012-02-17T13:12:16Z</time>
      </trkpt>
      <trkpt lat="44.05864" lon="4.13799">
        <ele>208.26</ele>
        <time>2012-02-17T13:12:17Z</time>
      </trkpt>
      <trkpt lat="44.0587" lon="4.13799">
        <ele>208.26</ele>
        <time>2012-02-17T13:12:18Z</time>
      </trkpt>
      <trkpt lat="44.05888" lon="4.13804">
        <ele>207.3</ele>
        <time>2012-02-17T13:12:21Z</time>
      </trkpt>
      <trkpt lat="44.05898" lon="4.13807">
        <ele>206.82</ele>
        <time>2012-02-17T13:12:23Z</time>
      </trkpt>
      <trkpt lat="44.05903" lon="4.13807">
        <ele>207.3</ele>
        <time>2012-02-17T13:12:24Z</time>
      </trkpt>
      <trkpt lat="44.05907" lon="4.13807">
        <ele>206.34</ele>
        <time>2012-02-17T13:12:25Z</time>
      </trkpt>
      <trkpt lat="44.05911" lon="4.13807">
        <ele>206.34</ele>
        <time>2012-02-17T13:12:26Z</time>
      </trkpt>
      <trkpt lat="44.05915" lon="4.13807">
        <ele>205.86</ele>
        <time>2012-02-17T13:12:27Z</time>
      </trkpt>
      <trkpt lat="44.05918" lon="4.13807">
        <ele>205.86</ele>
        <time>2012-02-17T13:12:28Z</time>
      </trkpt>
      <trkpt lat="44.05922" lon="4.13806">
        <ele>205.86</ele>
        <time>2012-02-17T13:12:29Z</time>
      </trkpt>
      <trkpt lat="44.05927" lon="4.13806">
        <ele>205.38</ele>
        <time>2012-02-17T13:12:30Z</time>
      </trkpt>
      <trkpt lat="44.05931" lon="4.13806">
        <ele>205.86</ele>
        <time>2012-02-17T13:12:31Z</time>
      </trkpt>
      <trkpt lat="44.05936" lon="4.13806">
        <ele>205.38</ele>
        <time>2012-02-17T13:12:32Z</time>
      </trkpt>
      <trkpt lat="44.05939" lon="4.13806">
        <ele>204.9</ele>
        <time>2012-02-17T13:12:33Z</time>
      </trkpt>
      <trkpt lat="44.05943" lon="4.13805">
        <ele>204.42</ele>
        <time>2012-02-17T13:12:34Z</time>
      </trkpt>
      <trkpt lat="44.05947" lon="4.13803">
        <ele>204.42</ele>
        <time>2012-02-17T13:12:35Z</time>
      </trkpt>
      <trkpt lat="44.0595" lon="4.13801">
        <ele>203.94</ele>
        <time>2012-02-17T13:12:36Z</time>
      </trkpt>
      <trkpt lat="44.05955" lon="4.138">
        <ele>202.98</ele>
        <time>2012-02-17T13:12:37Z</time>
      </trkpt>
      <trkpt lat="44.05967" lon="4.13796">
        <ele>202.01</ele>
        <time>2012-02-17T13:12:40Z</time>
      </trkpt>
      <trkpt lat="44.05971" lon="4.13794">
        <ele>201.05</ele>
        <time>2012-02-17T13:12:41Z</time>
      </trkpt>
      <trkpt lat="44.05976" lon="4.13793">
        <ele>201.53</ele>
        <time>2012-02-17T13:12:42Z</time>
      </trkpt>
      <trkpt lat="44.05981" lon="4.13792">
        <ele>201.05</ele>
        <time>2012-02-17T13:12:43Z</time>
      </trkpt>
      <trkpt lat="44.05986" lon="4.13791">
        <ele>201.53</ele>
        <time>2012-02-17T13:12:44Z</time>
      </trkpt>
      <trkpt lat="44.05991" lon="4.13791">
        <ele>201.05</ele>
        <time>2012-02-17T13:12:45Z</time>
      </trkpt>
      <trkpt lat="44.05997" lon="4.13791">
        <ele>201.05</ele>
        <time>2012-02-17T13:12:46Z</time>
      </trkpt>
      <trkpt lat="44.06003" lon="4.1379">
        <ele>201.53</ele>
        <time>2012-02-17T13:12:47Z</time>
      </trkpt>
      <trkpt lat="44.06009" lon="4.1379">
        <ele>201.05</ele>
        <time>2012-02-17T13:12:48Z</time>
      </trkpt>
      <trkpt lat="44.06014" lon="4.13789">
        <ele>201.05</ele>
        <time>2012-02-17T13:12:49Z</time>
      </trkpt>
      <trkpt lat="44.06025" lon="4.13787">
        <ele>201.05</ele>
        <time>2012-02-17T13:12:51Z</time>
      </trkpt>
      <trkpt lat="44.06036" lon="4.13784">
        <ele>200.09</ele>
        <time>2012-02-17T13:12:53Z</time>
      </trkpt>
      <trkpt lat="44.06042" lon="4.13782">
        <ele>199.61</ele>
        <time>2012-02-17T13:12:54Z</time>
      </trkpt>
      <trkpt lat="44.06048" lon="4.1378">
        <ele>199.61</ele>
        <time>2012-02-17T13:12:55Z</time>
      </trkpt>
      <trkpt lat="44.06053" lon="4.1378">
        <ele>198.65</ele>
        <time>2012-02-17T13:12:56Z</time>
      </trkpt>
      <trkpt lat="44.06057" lon="4.13781">
        <ele>200.09</ele>
        <time>2012-02-17T13:12:57Z</time>
      </trkpt>
      <trkpt lat="44.06059" lon="4.13783">
        <ele>201.53</ele>
        <time>2012-02-17T13:13:04Z</time>
      </trkpt>
      <trkpt lat="44.06059" lon="4.13783">
        <ele>201.05</ele>
        <time>2012-02-17T13:13:17Z</time>
      </trkpt>
      <trkpt lat="44.06061" lon="4.13783">
        <ele>202.01</ele>
        <time>2012-02-17T13:13:18Z</time>
      </trkpt>
      <trkpt lat="44.06063" lon="4.13782">
        <ele>201.05</ele>
        <time>2012-02-17T13:13:19Z</time>
      </trkpt>
      <trkpt lat="44.06065" lon="4.1378">
        <ele>201.53</ele>
        <time>2012-02-17T13:13:20Z</time>
      </trkpt>
      <trkpt lat="44.06067" lon="4.13779">
        <ele>201.05</ele>
        <time>2012-02-17T13:13:21Z</time>
      </trkpt>
      <trkpt lat="44.06071" lon="4.13777">
        <ele>200.57</ele>
        <time>2012-02-17T13:13:22Z</time>
      </trkpt>
      <trkpt lat="44.06075" lon="4.13775">
        <ele>200.57</ele>
        <time>2012-02-17T13:13:23Z</time>
      </trkpt>
      <trkpt lat="44.06079" lon="4.13772">
        <ele>200.09</ele>
        <time>2012-02-17T13:13:24Z</time>
      </trkpt>
      <trkpt lat="44.06087" lon="4.13767">
        <ele>199.13</ele>
        <time>2012-02-17T13:13:26Z</time>
      </trkpt>
      <trkpt lat="44.06091" lon="4.13765">
        <ele>198.65</ele>
        <time>2012-02-17T13:13:27Z</time>
      </trkpt>
      <trkpt lat="44.06096" lon="4.13763">
        <ele>198.17</ele>
        <time>2012-02-17T13:13:28Z</time>
      </trkpt>
      <trkpt lat="44.06101" lon="4.13762">
        <ele>197.69</ele>
        <time>2012-02-17T13:13:29Z</time>
      </trkpt>
      <trkpt lat="44.06106" lon="4.13761">
        <ele>197.69</ele>
        <time>2012-02-17T13:13:30Z</time>
      </trkpt>
      <trkpt lat="44.0611" lon="4.1376">
        <ele>196.73</ele>
        <time>2012-02-17T13:13:31Z</time>
      </trkpt>
      <trkpt lat="44.06118" lon="4.13758">
        <ele>196.25</ele>
        <time>2012-02-17T13:13:33Z</time>
      </trkpt>
      <trkpt lat="44.06123" lon="4.13756">
        <ele>195.77</ele>
        <time>2012-02-17T13:13:34Z</time>
      </trkpt>
      <trkpt lat="44.06129" lon="4.13754">
        <ele>195.77</ele>
        <time>2012-02-17T13:13:35Z</time>
      </trkpt>
      <trkpt lat="44.06134" lon="4.13753">
        <ele>194.8</ele>
        <time>2012-02-17T13:13:36Z</time>
      </trkpt>
      <trkpt lat="44.06139" lon="4.13752">
        <ele>194.32</ele>
        <time>2012-02-17T13:13:37Z</time>
      </trkpt>
      <trkpt lat="44.06145" lon="4.1375">
        <ele>194.32</ele>
        <time>2012-02-17T13:13:38Z</time>
      </trkpt>
      <trkpt lat="44.0615" lon="4.13748">
        <ele>193.36</ele>
        <time>2012-02-17T13:13:39Z</time>
      </trkpt>
      <trkpt lat="44.06155" lon="4.13745">
        <ele>193.36</ele>
        <time>2012-02-17T13:13:40Z</time>
      </trkpt>
      <trkpt lat="44.06159" lon="4.13743">
        <ele>192.4</ele>
        <time>2012-02-17T13:13:41Z</time>
      </trkpt>
      <trkpt lat="44.06164" lon="4.13742">
        <ele>192.4</ele>
        <time>2012-02-17T13:13:42Z</time>
      </trkpt>
      <trkpt lat="44.0617" lon="4.13741">
        <ele>191.92</ele>
        <time>2012-02-17T13:13:43Z</time>
      </trkpt>
      <trkpt lat="44.06189" lon="4.13735">
        <ele>190.96</ele>
        <time>2012-02-17T13:13:47Z</time>
      </trkpt>
      <trkpt lat="44.06193" lon="4.13733">
        <ele>190</ele>
        <time>2012-02-17T13:13:48Z</time>
      </trkpt>
      <trkpt lat="44.06198" lon="4.13732">
        <ele>190</ele>
        <time>2012-02-17T13:13:49Z</time>
      </trkpt>
      <trkpt lat="44.06202" lon="4.1373">
        <ele>190.96</ele>
        <time>2012-02-17T13:13:50Z</time>
      </trkpt>
      <trkpt lat="44.06205" lon="4.13727">
        <ele>190</ele>
        <time>2012-02-17T13:13:51Z</time>
      </trkpt>
      <trkpt lat="44.0621" lon="4.13724">
        <ele>189.52</ele>
        <time>2012-02-17T13:13:52Z</time>
      </trkpt>
      <trkpt lat="44.06214" lon="4.13721">
        <ele>189.52</ele>
        <time>2012-02-17T13:13:53Z</time>
      </trkpt>
      <trkpt lat="44.06216" lon="4.13718">
        <ele>189.52</ele>
        <time>2012-02-17T13:13:54Z</time>
      </trkpt>
      <trkpt lat="44.06222" lon="4.13711">
        <ele>188.08</ele>
        <time>2012-02-17T13:13:57Z</time>
      </trkpt>
      <trkpt lat="44.06228" lon="4.13692">
        <ele>185.67</ele>
        <time>2012-02-17T13:14:01Z</time>
      </trkpt>
      <trkpt lat="44.06232" lon="4.13688">
        <ele>185.19</ele>
        <time>2012-02-17T13:14:02Z</time>
      </trkpt>
      <trkpt lat="44.06243" lon="4.13674">
        <ele>184.23</ele>
        <time>2012-02-17T13:14:05Z</time>
      </trkpt>
      <trkpt lat="44.06247" lon="4.1367">
        <ele>183.75</ele>
        <time>2012-02-17T13:14:06Z</time>
      </trkpt>
      <trkpt lat="44.0625" lon="4.13668">
        <ele>183.27</ele>
        <time>2012-02-17T13:14:07Z</time>
      </trkpt>
      <trkpt lat="44.06252" lon="4.13665">
        <ele>182.79</ele>
        <time>2012-02-17T13:14:08Z</time>
      </trkpt>
      <trkpt lat="44.06254" lon="4.13663">
        <ele>182.79</ele>
        <time>2012-02-17T13:14:09Z</time>
      </trkpt>
      <trkpt lat="44.06256" lon="4.13663">
        <ele>182.79</ele>
        <time>2012-02-17T13:14:10Z</time>
      </trkpt>
      <trkpt lat="44.06259" lon="4.13662">
        <ele>181.35</ele>
        <time>2012-02-17T13:14:11Z</time>
      </trkpt>
      <trkpt lat="44.06262" lon="4.13661">
        <ele>181.83</ele>
        <time>2012-02-17T13:14:12Z</time>
      </trkpt>
      <trkpt lat="44.06266" lon="4.13659">
        <ele>181.35</ele>
        <time>2012-02-17T13:14:13Z</time>
      </trkpt>
      <trkpt lat="44.06276" lon="4.13657">
        <ele>181.35</ele>
        <time>2012-02-17T13:14:16Z</time>
      </trkpt>
      <trkpt lat="44.06288" lon="4.13651">
        <ele>183.27</ele>
        <time>2012-02-17T13:14:19Z</time>
      </trkpt>
      <trkpt lat="44.06292" lon="4.13648">
        <ele>182.79</ele>
        <time>2012-02-17T13:14:20Z</time>
      </trkpt>
      <trkpt lat="44.06295" lon="4.13646">
        <ele>182.79</ele>
        <time>2012-02-17T13:14:21Z</time>
      </trkpt>
      <trkpt lat="44.06298" lon="4.13643">
        <ele>183.75</ele>
        <time>2012-02-17T13:14:22Z</time>
      </trkpt>
      <trkpt lat="44.06301" lon="4.13641">
        <ele>184.23</ele>
        <time>2012-02-17T13:14:23Z</time>
      </trkpt>
      <trkpt lat="44.06303" lon="4.13639">
        <ele>184.23</ele>
        <time>2012-02-17T13:14:24Z</time>
      </trkpt>
      <trkpt lat="44.06305" lon="4.13636">
        <ele>184.23</ele>
        <time>2012-02-17T13:14:25Z</time>
      </trkpt>
      <trkpt lat="44.06308" lon="4.13634">
        <ele>184.71</ele>
        <time>2012-02-17T13:14:26Z</time>
      </trkpt>
      <trkpt lat="44.06326" lon="4.13612">
        <ele>186.63</ele>
        <time>2012-02-17T13:14:35Z</time>
      </trkpt>
      <trkpt lat="44.0633" lon="4.13613">
        <ele>186.63</ele>
        <time>2012-02-17T13:14:44Z</time>
      </trkpt>
      <trkpt lat="44.06332" lon="4.13614">
        <ele>187.11</ele>
        <time>2012-02-17T13:14:45Z</time>
      </trkpt>
      <trkpt lat="44.06344" lon="4.13613">
        <ele>187.11</ele>
        <time>2012-02-17T13:14:54Z</time>
      </trkpt>
      <trkpt lat="44.06346" lon="4.13612">
        <ele>187.11</ele>
        <time>2012-02-17T13:14:55Z</time>
      </trkpt>
      <trkpt lat="44.06347" lon="4.13611">
        <ele>186.63</ele>
        <time>2012-02-17T13:14:56Z</time>
      </trkpt>
      <trkpt lat="44.06349" lon="4.13611">
        <ele>186.63</ele>
        <time>2012-02-17T13:14:57Z</time>
      </trkpt>
      <trkpt lat="44.06351" lon="4.1361">
        <ele>187.11</ele>
        <time>2012-02-17T13:14:58Z</time>
      </trkpt>
      <trkpt lat="44.06353" lon="4.1361">
        <ele>186.15</ele>
        <time>2012-02-17T13:14:59Z</time>
      </trkpt>
      <trkpt lat="44.06356" lon="4.1361">
        <ele>186.63</ele>
        <time>2012-02-17T13:15:00Z</time>
      </trkpt>
      <trkpt lat="44.06386" lon="4.13614">
        <ele>186.15</ele>
        <time>2012-02-17T13:15:09Z</time>
      </trkpt>
      <trkpt lat="44.06402" lon="4.13612">
        <ele>185.67</ele>
        <time>2012-02-17T13:15:13Z</time>
      </trkpt>
      <trkpt lat="44.06406" lon="4.13612">
        <ele>185.67</ele>
        <time>2012-02-17T13:15:14Z</time>
      </trkpt>
      <trkpt lat="44.0641" lon="4.13611">
        <ele>186.15</ele>
        <time>2012-02-17T13:15:15Z</time>
      </trkpt>
      <trkpt lat="44.06415" lon="4.13612">
        <ele>185.67</ele>
        <time>2012-02-17T13:15:16Z</time>
      </trkpt>
      <trkpt lat="44.06418" lon="4.13614">
        <ele>186.15</ele>
        <time>2012-02-17T13:15:17Z</time>
      </trkpt>
      <trkpt lat="44.0642" lon="4.13617">
        <ele>186.15</ele>
        <time>2012-02-17T13:15:18Z</time>
      </trkpt>
      <trkpt lat="44.06421" lon="4.1362">
        <ele>186.15</ele>
        <time>2012-02-17T13:15:19Z</time>
      </trkpt>
      <trkpt lat="44.06424" lon="4.13621">
        <ele>186.63</ele>
        <time>2012-02-17T13:15:20Z</time>
      </trkpt>
      <trkpt lat="44.06447" lon="4.13634">
        <ele>186.15</ele>
        <time>2012-02-17T13:15:27Z</time>
      </trkpt>
      <trkpt lat="44.06451" lon="4.13635">
        <ele>185.67</ele>
        <time>2012-02-17T13:15:28Z</time>
      </trkpt>
      <trkpt lat="44.06454" lon="4.13638">
        <ele>185.67</ele>
        <time>2012-02-17T13:15:29Z</time>
      </trkpt>
      <trkpt lat="44.06457" lon="4.13642">
        <ele>186.15</ele>
        <time>2012-02-17T13:15:30Z</time>
      </trkpt>
      <trkpt lat="44.0646" lon="4.13644">
        <ele>186.63</ele>
        <time>2012-02-17T13:15:31Z</time>
      </trkpt>
      <trkpt lat="44.06463" lon="4.13646">
        <ele>186.63</ele>
        <time>2012-02-17T13:15:32Z</time>
      </trkpt>
      <trkpt lat="44.06466" lon="4.13649">
        <ele>187.11</ele>
        <time>2012-02-17T13:15:33Z</time>
      </trkpt>
      <trkpt lat="44.06467" lon="4.13652">
        <ele>186.63</ele>
        <time>2012-02-17T13:15:34Z</time>
      </trkpt>
      <trkpt lat="44.06468" lon="4.13656">
        <ele>187.11</ele>
        <time>2012-02-17T13:15:35Z</time>
      </trkpt>
      <trkpt lat="44.0647" lon="4.13659">
        <ele>187.11</ele>
        <time>2012-02-17T13:15:36Z</time>
      </trkpt>
      <trkpt lat="44.06473" lon="4.13662">
        <ele>186.63</ele>
        <time>2012-02-17T13:15:37Z</time>
      </trkpt>
      <trkpt lat="44.06475" lon="4.13665">
        <ele>186.63</ele>
        <time>2012-02-17T13:15:38Z</time>
      </trkpt>
      <trkpt lat="44.06477" lon="4.13666">
        <ele>185.67</ele>
        <time>2012-02-17T13:15:39Z</time>
      </trkpt>
      <trkpt lat="44.0648" lon="4.13666">
        <ele>185.67</ele>
        <time>2012-02-17T13:15:40Z</time>
      </trkpt>
      <trkpt lat="44.06483" lon="4.13669">
        <ele>184.71</ele>
        <time>2012-02-17T13:15:41Z</time>
      </trkpt>
      <trkpt lat="44.06487" lon="4.13672">
        <ele>185.19</ele>
        <time>2012-02-17T13:15:42Z</time>
      </trkpt>
      <trkpt lat="44.0649" lon="4.13677">
        <ele>185.19</ele>
        <time>2012-02-17T13:15:43Z</time>
      </trkpt>
      <trkpt lat="44.06496" lon="4.13683">
        <ele>184.71</ele>
        <time>2012-02-17T13:15:45Z</time>
      </trkpt>
      <trkpt lat="44.06498" lon="4.13685">
        <ele>184.71</ele>
        <time>2012-02-17T13:15:46Z</time>
      </trkpt>
      <trkpt lat="44.06501" lon="4.13686">
        <ele>184.23</ele>
        <time>2012-02-17T13:15:47Z</time>
      </trkpt>
      <trkpt lat="44.06504" lon="4.13685">
        <ele>183.75</ele>
        <time>2012-02-17T13:15:48Z</time>
      </trkpt>
      <trkpt lat="44.06508" lon="4.13686">
        <ele>183.27</ele>
        <time>2012-02-17T13:15:49Z</time>
      </trkpt>
      <trkpt lat="44.06513" lon="4.13687">
        <ele>183.75</ele>
        <time>2012-02-17T13:15:50Z</time>
      </trkpt>
      <trkpt lat="44.06517" lon="4.13688">
        <ele>182.79</ele>
        <time>2012-02-17T13:15:51Z</time>
      </trkpt>
      <trkpt lat="44.06521" lon="4.13687">
        <ele>183.27</ele>
        <time>2012-02-17T13:15:52Z</time>
      </trkpt>
      <trkpt lat="44.06526" lon="4.13688">
        <ele>182.31</ele>
        <time>2012-02-17T13:15:53Z</time>
      </trkpt>
      <trkpt lat="44.0653" lon="4.13689">
        <ele>182.31</ele>
        <time>2012-02-17T13:15:54Z</time>
      </trkpt>
      <trkpt lat="44.06535" lon="4.13689">
        <ele>181.83</ele>
        <time>2012-02-17T13:15:55Z</time>
      </trkpt>
      <trkpt lat="44.06539" lon="4.13689">
        <ele>182.79</ele>
        <time>2012-02-17T13:15:56Z</time>
      </trkpt>
      <trkpt lat="44.06544" lon="4.13691">
        <ele>181.83</ele>
        <time>2012-02-17T13:15:57Z</time>
      </trkpt>
      <trkpt lat="44.06548" lon="4.13694">
        <ele>182.31</ele>
        <time>2012-02-17T13:15:58Z</time>
      </trkpt>
      <trkpt lat="44.06551" lon="4.13697">
        <ele>181.35</ele>
        <time>2012-02-17T13:15:59Z</time>
      </trkpt>
      <trkpt lat="44.06554" lon="4.13696">
        <ele>181.83</ele>
        <time>2012-02-17T13:16:00Z</time>
      </trkpt>
      <trkpt lat="44.06557" lon="4.13695">
        <ele>181.35</ele>
        <time>2012-02-17T13:16:01Z</time>
      </trkpt>
      <trkpt lat="44.0656" lon="4.13695">
        <ele>181.35</ele>
        <time>2012-02-17T13:16:02Z</time>
      </trkpt>
      <trkpt lat="44.06564" lon="4.13696">
        <ele>181.35</ele>
        <time>2012-02-17T13:16:03Z</time>
      </trkpt>
      <trkpt lat="44.06569" lon="4.13697">
        <ele>181.35</ele>
        <time>2012-02-17T13:16:04Z</time>
      </trkpt>
      <trkpt lat="44.06573" lon="4.137">
        <ele>180.87</ele>
        <time>2012-02-17T13:16:05Z</time>
      </trkpt>
      <trkpt lat="44.06577" lon="4.13702">
        <ele>180.87</ele>
        <time>2012-02-17T13:16:06Z</time>
      </trkpt>
      <trkpt lat="44.06581" lon="4.13703">
        <ele>180.38</ele>
        <time>2012-02-17T13:16:07Z</time>
      </trkpt>
      <trkpt lat="44.06585" lon="4.13702">
        <ele>180.87</ele>
        <time>2012-02-17T13:16:08Z</time>
      </trkpt>
      <trkpt lat="44.06589" lon="4.13703">
        <ele>180.87</ele>
        <time>2012-02-17T13:16:09Z</time>
      </trkpt>
      <trkpt lat="44.06593" lon="4.13705">
        <ele>180.87</ele>
        <time>2012-02-17T13:16:10Z</time>
      </trkpt>
      <trkpt lat="44.06596" lon="4.13707">
        <ele>181.35</ele>
        <time>2012-02-17T13:16:11Z</time>
      </trkpt>
      <trkpt lat="44.066" lon="4.13707">
        <ele>181.83</ele>
        <time>2012-02-17T13:16:12Z</time>
      </trkpt>
      <trkpt lat="44.06604" lon="4.13707">
        <ele>181.35</ele>
        <time>2012-02-17T13:16:13Z</time>
      </trkpt>
      <trkpt lat="44.06608" lon="4.13708">
        <ele>180.87</ele>
        <time>2012-02-17T13:16:14Z</time>
      </trkpt>
      <trkpt lat="44.06611" lon="4.13712">
        <ele>181.35</ele>
        <time>2012-02-17T13:16:15Z</time>
      </trkpt>
      <trkpt lat="44.06615" lon="4.13715">
        <ele>181.35</ele>
        <time>2012-02-17T13:16:16Z</time>
      </trkpt>
      <trkpt lat="44.06618" lon="4.13717">
        <ele>181.35</ele>
        <time>2012-02-17T13:16:17Z</time>
      </trkpt>
      <trkpt lat="44.06622" lon="4.13719">
        <ele>181.83</ele>
        <time>2012-02-17T13:16:18Z</time>
      </trkpt>
      <trkpt lat="44.06626" lon="4.13721">
        <ele>182.31</ele>
        <time>2012-02-17T13:16:19Z</time>
      </trkpt>
      <trkpt lat="44.0663" lon="4.13722">
        <ele>181.83</ele>
        <time>2012-02-17T13:16:20Z</time>
      </trkpt>
      <trkpt lat="44.06634" lon="4.13722">
        <ele>181.35</ele>
        <time>2012-02-17T13:16:21Z</time>
      </trkpt>
      <trkpt lat="44.06638" lon="4.1372">
        <ele>180.87</ele>
        <time>2012-02-17T13:16:22Z</time>
      </trkpt>
      <trkpt lat="44.06642" lon="4.1372">
        <ele>180.87</ele>
        <time>2012-02-17T13:16:23Z</time>
      </trkpt>
      <trkpt lat="44.06645" lon="4.13723">
        <ele>180.38</ele>
        <time>2012-02-17T13:16:24Z</time>
      </trkpt>
      <trkpt lat="44.06649" lon="4.13726">
        <ele>180.38</ele>
        <time>2012-02-17T13:16:25Z</time>
      </trkpt>
      <trkpt lat="44.06659" lon="4.13736">
        <ele>179.9</ele>
        <time>2012-02-17T13:16:28Z</time>
      </trkpt>
      <trkpt lat="44.0666" lon="4.1374">
        <ele>179.9</ele>
        <time>2012-02-17T13:16:29Z</time>
      </trkpt>
      <trkpt lat="44.06662" lon="4.13744">
        <ele>179.42</ele>
        <time>2012-02-17T13:16:30Z</time>
      </trkpt>
      <trkpt lat="44.06664" lon="4.13747">
        <ele>178.94</ele>
        <time>2012-02-17T13:16:31Z</time>
      </trkpt>
      <trkpt lat="44.06667" lon="4.13747">
        <ele>177.98</ele>
        <time>2012-02-17T13:16:32Z</time>
      </trkpt>
      <trkpt lat="44.06669" lon="4.13746">
        <ele>177.98</ele>
        <time>2012-02-17T13:16:33Z</time>
      </trkpt>
      <trkpt lat="44.06672" lon="4.13747">
        <ele>178.46</ele>
        <time>2012-02-17T13:16:34Z</time>
      </trkpt>
      <trkpt lat="44.06676" lon="4.1375">
        <ele>177.02</ele>
        <time>2012-02-17T13:16:35Z</time>
      </trkpt>
      <trkpt lat="44.06679" lon="4.13753">
        <ele>177.02</ele>
        <time>2012-02-17T13:16:36Z</time>
      </trkpt>
      <trkpt lat="44.06688" lon="4.1376">
        <ele>176.06</ele>
        <time>2012-02-17T13:16:38Z</time>
      </trkpt>
      <trkpt lat="44.06691" lon="4.1376">
        <ele>176.06</ele>
        <time>2012-02-17T13:16:39Z</time>
      </trkpt>
      <trkpt lat="44.06695" lon="4.1376">
        <ele>175.1</ele>
        <time>2012-02-17T13:16:40Z</time>
      </trkpt>
      <trkpt lat="44.06699" lon="4.13763">
        <ele>175.1</ele>
        <time>2012-02-17T13:16:41Z</time>
      </trkpt>
      <trkpt lat="44.06704" lon="4.13764">
        <ele>174.62</ele>
        <time>2012-02-17T13:16:42Z</time>
      </trkpt>
      <trkpt lat="44.06709" lon="4.13767">
        <ele>174.14</ele>
        <time>2012-02-17T13:16:43Z</time>
      </trkpt>
      <trkpt lat="44.06713" lon="4.1377">
        <ele>174.62</ele>
        <time>2012-02-17T13:16:44Z</time>
      </trkpt>
      <trkpt lat="44.06717" lon="4.13773">
        <ele>174.14</ele>
        <time>2012-02-17T13:16:45Z</time>
      </trkpt>
      <trkpt lat="44.06721" lon="4.13775">
        <ele>173.17</ele>
        <time>2012-02-17T13:16:46Z</time>
      </trkpt>
      <trkpt lat="44.06724" lon="4.13779">
        <ele>173.17</ele>
        <time>2012-02-17T13:16:47Z</time>
      </trkpt>
      <trkpt lat="44.06727" lon="4.13784">
        <ele>172.21</ele>
        <time>2012-02-17T13:16:48Z</time>
      </trkpt>
      <trkpt lat="44.0673" lon="4.13788">
        <ele>172.21</ele>
        <time>2012-02-17T13:16:49Z</time>
      </trkpt>
      <trkpt lat="44.06734" lon="4.13793">
        <ele>172.69</ele>
        <time>2012-02-17T13:16:50Z</time>
      </trkpt>
      <trkpt lat="44.06736" lon="4.13798">
        <ele>173.17</ele>
        <time>2012-02-17T13:16:51Z</time>
      </trkpt>
      <trkpt lat="44.06741" lon="4.13814">
        <ele>173.17</ele>
        <time>2012-02-17T13:16:54Z</time>
      </trkpt>
      <trkpt lat="44.06741" lon="4.13819">
        <ele>173.66</ele>
        <time>2012-02-17T13:16:55Z</time>
      </trkpt>
      <trkpt lat="44.06741" lon="4.13823">
        <ele>174.62</ele>
        <time>2012-02-17T13:16:56Z</time>
      </trkpt>
      <trkpt lat="44.06743" lon="4.13827">
        <ele>173.66</ele>
        <time>2012-02-17T13:16:57Z</time>
      </trkpt>
      <trkpt lat="44.06746" lon="4.1383">
        <ele>173.17</ele>
        <time>2012-02-17T13:16:58Z</time>
      </trkpt>
      <trkpt lat="44.0675" lon="4.13832">
        <ele>172.69</ele>
        <time>2012-02-17T13:16:59Z</time>
      </trkpt>
      <trkpt lat="44.06762" lon="4.1384">
        <ele>170.29</ele>
        <time>2012-02-17T13:17:04Z</time>
      </trkpt>
      <trkpt lat="44.06764" lon="4.13841">
        <ele>170.29</ele>
        <time>2012-02-17T13:17:05Z</time>
      </trkpt>
      <trkpt lat="44.06769" lon="4.13842">
        <ele>169.33</ele>
        <time>2012-02-17T13:17:06Z</time>
      </trkpt>
      <trkpt lat="44.06772" lon="4.13843">
        <ele>168.85</ele>
        <time>2012-02-17T13:17:07Z</time>
      </trkpt>
      <trkpt lat="44.06774" lon="4.13845">
        <ele>168.85</ele>
        <time>2012-02-17T13:17:08Z</time>
      </trkpt>
      <trkpt lat="44.06775" lon="4.13847">
        <ele>168.85</ele>
        <time>2012-02-17T13:17:09Z</time>
      </trkpt>
      <trkpt lat="44.06776" lon="4.13848">
        <ele>169.33</ele>
        <time>2012-02-17T13:17:21Z</time>
      </trkpt>
      <trkpt lat="44.06776" lon="4.13848">
        <ele>169.81</ele>
        <time>2012-02-17T13:17:22Z</time>
      </trkpt>
      <trkpt lat="44.06789" lon="4.13857">
        <ele>168.85</ele>
        <time>2012-02-17T13:17:27Z</time>
      </trkpt>
      <trkpt lat="44.06793" lon="4.13859">
        <ele>167.89</ele>
        <time>2012-02-17T13:17:28Z</time>
      </trkpt>
      <trkpt lat="44.06798" lon="4.13862">
        <ele>167.89</ele>
        <time>2012-02-17T13:17:29Z</time>
      </trkpt>
      <trkpt lat="44.06837" lon="4.1389">
        <ele>166.45</ele>
        <time>2012-02-17T13:17:40Z</time>
      </trkpt>
      <trkpt lat="44.06852" lon="4.13901">
        <ele>166.93</ele>
        <time>2012-02-17T13:17:45Z</time>
      </trkpt>
      <trkpt lat="44.06854" lon="4.13902">
        <ele>166.93</ele>
        <time>2012-02-17T13:17:46Z</time>
      </trkpt>
      <trkpt lat="44.06856" lon="4.13904">
        <ele>166.45</ele>
        <time>2012-02-17T13:17:47Z</time>
      </trkpt>
      <trkpt lat="44.06858" lon="4.13906">
        <ele>167.41</ele>
        <time>2012-02-17T13:17:48Z</time>
      </trkpt>
      <trkpt lat="44.06859" lon="4.13908">
        <ele>167.89</ele>
        <time>2012-02-17T13:17:49Z</time>
      </trkpt>
      <trkpt lat="44.06859" lon="4.1391">
        <ele>167.41</ele>
        <time>2012-02-17T13:17:50Z</time>
      </trkpt>
      <trkpt lat="44.06858" lon="4.13911">
        <ele>167.41</ele>
        <time>2012-02-17T13:17:51Z</time>
      </trkpt>
      <trkpt lat="44.06856" lon="4.13912">
        <ele>167.89</ele>
        <time>2012-02-17T13:17:52Z</time>
      </trkpt>
      <trkpt lat="44.06837" lon="4.13927">
        <ele>170.29</ele>
        <time>2012-02-17T13:18:03Z</time>
      </trkpt>
      <trkpt lat="44.06834" lon="4.1393">
        <ele>170.77</ele>
        <time>2012-02-17T13:18:05Z</time>
      </trkpt>
      <trkpt lat="44.06832" lon="4.13931">
        <ele>171.25</ele>
        <time>2012-02-17T13:18:06Z</time>
      </trkpt>
      <trkpt lat="44.06831" lon="4.13932">
        <ele>171.25</ele>
        <time>2012-02-17T13:18:07Z</time>
      </trkpt>
      <trkpt lat="44.0683" lon="4.13934">
        <ele>172.21</ele>
        <time>2012-02-17T13:18:08Z</time>
      </trkpt>
      <trkpt lat="44.06829" lon="4.13936">
        <ele>171.73</ele>
        <time>2012-02-17T13:18:09Z</time>
      </trkpt>
      <trkpt lat="44.06828" lon="4.13937">
        <ele>171.73</ele>
        <time>2012-02-17T13:18:10Z</time>
      </trkpt>
      <trkpt lat="44.06826" lon="4.13939">
        <ele>171.73</ele>
        <time>2012-02-17T13:18:11Z</time>
      </trkpt>
      <trkpt lat="44.06825" lon="4.1394">
        <ele>171.73</ele>
        <time>2012-02-17T13:18:12Z</time>
      </trkpt>
      <trkpt lat="44.06824" lon="4.13941">
        <ele>172.21</ele>
        <time>2012-02-17T13:18:13Z</time>
      </trkpt>
      <trkpt lat="44.06823" lon="4.13942">
        <ele>172.69</ele>
        <time>2012-02-17T13:18:14Z</time>
      </trkpt>
      <trkpt lat="44.06821" lon="4.13943">
        <ele>172.69</ele>
        <time>2012-02-17T13:18:15Z</time>
      </trkpt>
      <trkpt lat="44.06821" lon="4.13945">
        <ele>173.17</ele>
        <time>2012-02-17T13:18:16Z</time>
      </trkpt>
      <trkpt lat="44.06819" lon="4.13946">
        <ele>173.17</ele>
        <time>2012-02-17T13:18:17Z</time>
      </trkpt>
      <trkpt lat="44.06818" lon="4.13947">
        <ele>173.17</ele>
        <time>2012-02-17T13:18:18Z</time>
      </trkpt>
      <trkpt lat="44.06803" lon="4.13962">
        <ele>175.58</ele>
        <time>2012-02-17T13:18:31Z</time>
      </trkpt>
      <trkpt lat="44.06801" lon="4.13965">
        <ele>176.54</ele>
        <time>2012-02-17T13:18:33Z</time>
      </trkpt>
      <trkpt lat="44.068" lon="4.13966">
        <ele>176.54</ele>
        <time>2012-02-17T13:18:34Z</time>
      </trkpt>
      <trkpt lat="44.06799" lon="4.13967">
        <ele>176.54</ele>
        <time>2012-02-17T13:18:35Z</time>
      </trkpt>
      <trkpt lat="44.06797" lon="4.13968">
        <ele>177.02</ele>
        <time>2012-02-17T13:18:36Z</time>
      </trkpt>
      <trkpt lat="44.06796" lon="4.13969">
        <ele>177.02</ele>
        <time>2012-02-17T13:18:37Z</time>
      </trkpt>
      <trkpt lat="44.06795" lon="4.1397">
        <ele>177.02</ele>
        <time>2012-02-17T13:18:38Z</time>
      </trkpt>
      <trkpt lat="44.06786" lon="4.13978">
        <ele>179.42</ele>
        <time>2012-02-17T13:18:45Z</time>
      </trkpt>
      <trkpt lat="44.06786" lon="4.13979">
        <ele>178.94</ele>
        <time>2012-02-17T13:18:46Z</time>
      </trkpt>
      <trkpt lat="44.06784" lon="4.13979">
        <ele>179.42</ele>
        <time>2012-02-17T13:18:47Z</time>
      </trkpt>
      <trkpt lat="44.06783" lon="4.1398">
        <ele>179.9</ele>
        <time>2012-02-17T13:18:48Z</time>
      </trkpt>
      <trkpt lat="44.06782" lon="4.13982">
        <ele>179.9</ele>
        <time>2012-02-17T13:18:49Z</time>
      </trkpt>
      <trkpt lat="44.06781" lon="4.13984">
        <ele>179.9</ele>
        <time>2012-02-17T13:18:50Z</time>
      </trkpt>
      <trkpt lat="44.06779" lon="4.13986">
        <ele>180.87</ele>
        <time>2012-02-17T13:18:51Z</time>
      </trkpt>
      <trkpt lat="44.06778" lon="4.13987">
        <ele>180.87</ele>
        <time>2012-02-17T13:18:52Z</time>
      </trkpt>
      <trkpt lat="44.06777" lon="4.13988">
        <ele>181.35</ele>
        <time>2012-02-17T13:18:53Z</time>
      </trkpt>
      <trkpt lat="44.06776" lon="4.1399">
        <ele>181.83</ele>
        <time>2012-02-17T13:18:54Z</time>
      </trkpt>
      <trkpt lat="44.06775" lon="4.13991">
        <ele>182.31</ele>
        <time>2012-02-17T13:18:55Z</time>
      </trkpt>
      <trkpt lat="44.06774" lon="4.13992">
        <ele>182.31</ele>
        <time>2012-02-17T13:18:56Z</time>
      </trkpt>
      <trkpt lat="44.06773" lon="4.13993">
        <ele>182.79</ele>
        <time>2012-02-17T13:18:57Z</time>
      </trkpt>
      <trkpt lat="44.06771" lon="4.13994">
        <ele>182.79</ele>
        <time>2012-02-17T13:18:58Z</time>
      </trkpt>
      <trkpt lat="44.06767" lon="4.13997">
        <ele>184.23</ele>
        <time>2012-02-17T13:19:02Z</time>
      </trkpt>
      <trkpt lat="44.06765" lon="4.13998">
        <ele>183.27</ele>
        <time>2012-02-17T13:19:03Z</time>
      </trkpt>
      <trkpt lat="44.06764" lon="4.13998">
        <ele>184.23</ele>
        <time>2012-02-17T13:19:04Z</time>
      </trkpt>
      <trkpt lat="44.06762" lon="4.14">
        <ele>184.23</ele>
        <time>2012-02-17T13:19:05Z</time>
      </trkpt>
      <trkpt lat="44.06761" lon="4.14001">
        <ele>184.71</ele>
        <time>2012-02-17T13:19:06Z</time>
      </trkpt>
      <trkpt lat="44.06757" lon="4.14007">
        <ele>185.67</ele>
        <time>2012-02-17T13:19:11Z</time>
      </trkpt>
      <trkpt lat="44.06755" lon="4.14008">
        <ele>186.15</ele>
        <time>2012-02-17T13:19:12Z</time>
      </trkpt>
      <trkpt lat="44.06754" lon="4.1401">
        <ele>186.63</ele>
        <time>2012-02-17T13:19:13Z</time>
      </trkpt>
      <trkpt lat="44.06752" lon="4.1401">
        <ele>187.11</ele>
        <time>2012-02-17T13:19:14Z</time>
      </trkpt>
      <trkpt lat="44.06751" lon="4.1401">
        <ele>187.11</ele>
        <time>2012-02-17T13:19:15Z</time>
      </trkpt>
      <trkpt lat="44.0675" lon="4.1401">
        <ele>187.11</ele>
        <time>2012-02-17T13:19:27Z</time>
      </trkpt>
      <trkpt lat="44.06752" lon="4.1401">
        <ele>186.15</ele>
        <time>2012-02-17T13:19:42Z</time>
      </trkpt>
      <trkpt lat="44.06753" lon="4.14011">
        <ele>186.15</ele>
        <time>2012-02-17T13:19:43Z</time>
      </trkpt>
      <trkpt lat="44.06757" lon="4.14018">
        <ele>187.59</ele>
        <time>2012-02-17T13:19:56Z</time>
      </trkpt>
      <trkpt lat="44.06756" lon="4.14018">
        <ele>188.08</ele>
        <time>2012-02-17T13:20:09Z</time>
      </trkpt>
      <trkpt lat="44.06756" lon="4.14018">
        <ele>188.56</ele>
        <time>2012-02-17T13:20:31Z</time>
      </trkpt>
      <trkpt lat="44.06759" lon="4.14017">
        <ele>187.59</ele>
        <time>2012-02-17T13:20:42Z</time>
      </trkpt>
      <trkpt lat="44.06761" lon="4.14017">
        <ele>187.59</ele>
        <time>2012-02-17T13:20:43Z</time>
      </trkpt>
      <trkpt lat="44.06762" lon="4.14017">
        <ele>188.08</ele>
        <time>2012-02-17T13:20:44Z</time>
      </trkpt>
      <trkpt lat="44.06763" lon="4.14018">
        <ele>188.08</ele>
        <time>2012-02-17T13:20:45Z</time>
      </trkpt>
      <trkpt lat="44.06765" lon="4.14018">
        <ele>188.56</ele>
        <time>2012-02-17T13:20:46Z</time>
      </trkpt>
      <trkpt lat="44.06767" lon="4.14019">
        <ele>187.59</ele>
        <time>2012-02-17T13:20:47Z</time>
      </trkpt>
      <trkpt lat="44.06768" lon="4.14018">
        <ele>188.56</ele>
        <time>2012-02-17T13:20:48Z</time>
      </trkpt>
      <trkpt lat="44.06769" lon="4.14018">
        <ele>188.08</ele>
        <time>2012-02-17T13:20:49Z</time>
      </trkpt>
      <trkpt lat="44.06771" lon="4.14017">
        <ele>188.08</ele>
        <time>2012-02-17T13:20:50Z</time>
      </trkpt>
      <trkpt lat="44.06772" lon="4.14017">
        <ele>188.56</ele>
        <time>2012-02-17T13:20:51Z</time>
      </trkpt>
      <trkpt lat="44.06774" lon="4.14017">
        <ele>188.56</ele>
        <time>2012-02-17T13:20:52Z</time>
      </trkpt>
      <trkpt lat="44.06781" lon="4.14016">
        <ele>188.56</ele>
        <time>2012-02-17T13:20:56Z</time>
      </trkpt>
      <trkpt lat="44.06782" lon="4.14016">
        <ele>189.04</ele>
        <time>2012-02-17T13:20:57Z</time>
      </trkpt>
      <trkpt lat="44.06785" lon="4.14017">
        <ele>189.04</ele>
        <time>2012-02-17T13:20:59Z</time>
      </trkpt>
      <trkpt lat="44.06787" lon="4.14016">
        <ele>189.04</ele>
        <time>2012-02-17T13:21:00Z</time>
      </trkpt>
      <trkpt lat="44.06789" lon="4.14015">
        <ele>189.04</ele>
        <time>2012-02-17T13:21:01Z</time>
      </trkpt>
      <trkpt lat="44.06791" lon="4.14015">
        <ele>189.52</ele>
        <time>2012-02-17T13:21:02Z</time>
      </trkpt>
      <trkpt lat="44.06793" lon="4.14015">
        <ele>188.56</ele>
        <time>2012-02-17T13:21:03Z</time>
      </trkpt>
      <trkpt lat="44.06795" lon="4.14015">
        <ele>189.04</ele>
        <time>2012-02-17T13:21:04Z</time>
      </trkpt>
      <trkpt lat="44.06797" lon="4.14016">
        <ele>189.52</ele>
        <time>2012-02-17T13:21:05Z</time>
      </trkpt>
      <trkpt lat="44.06799" lon="4.14016">
        <ele>189.52</ele>
        <time>2012-02-17T13:21:06Z</time>
      </trkpt>
      <trkpt lat="44.06801" lon="4.14016">
        <ele>189.52</ele>
        <time>2012-02-17T13:21:07Z</time>
      </trkpt>
      <trkpt lat="44.06803" lon="4.14015">
        <ele>190</ele>
        <time>2012-02-17T13:21:08Z</time>
      </trkpt>
      <trkpt lat="44.06806" lon="4.14015">
        <ele>189.52</ele>
        <time>2012-02-17T13:21:09Z</time>
      </trkpt>
      <trkpt lat="44.06808" lon="4.14015">
        <ele>189.52</ele>
        <time>2012-02-17T13:21:10Z</time>
      </trkpt>
      <trkpt lat="44.0681" lon="4.14016">
        <ele>190</ele>
        <time>2012-02-17T13:21:11Z</time>
      </trkpt>
      <trkpt lat="44.06813" lon="4.14016">
        <ele>189.52</ele>
        <time>2012-02-17T13:21:12Z</time>
      </trkpt>
      <trkpt lat="44.06815" lon="4.14017">
        <ele>190</ele>
        <time>2012-02-17T13:21:13Z</time>
      </trkpt>
      <trkpt lat="44.06842" lon="4.1402">
        <ele>190.96</ele>
        <time>2012-02-17T13:21:25Z</time>
      </trkpt>
      <trkpt lat="44.06871" lon="4.1402">
        <ele>191.44</ele>
        <time>2012-02-17T13:21:36Z</time>
      </trkpt>
      <trkpt lat="44.06877" lon="4.1402">
        <ele>191.44</ele>
        <time>2012-02-17T13:21:38Z</time>
      </trkpt>
      <trkpt lat="44.0688" lon="4.14021">
        <ele>191.92</ele>
        <time>2012-02-17T13:21:39Z</time>
      </trkpt>
      <trkpt lat="44.06882" lon="4.14021">
        <ele>191.44</ele>
        <time>2012-02-17T13:21:40Z</time>
      </trkpt>
      <trkpt lat="44.06885" lon="4.14021">
        <ele>192.4</ele>
        <time>2012-02-17T13:21:41Z</time>
      </trkpt>
      <trkpt lat="44.06888" lon="4.14021">
        <ele>191.92</ele>
        <time>2012-02-17T13:21:42Z</time>
      </trkpt>
      <trkpt lat="44.06891" lon="4.1402">
        <ele>192.4</ele>
        <time>2012-02-17T13:21:43Z</time>
      </trkpt>
      <trkpt lat="44.06894" lon="4.14021">
        <ele>192.4</ele>
        <time>2012-02-17T13:21:44Z</time>
      </trkpt>
      <trkpt lat="44.06898" lon="4.14022">
        <ele>191.92</ele>
        <time>2012-02-17T13:21:45Z</time>
      </trkpt>
      <trkpt lat="44.06901" lon="4.14023">
        <ele>191.92</ele>
        <time>2012-02-17T13:21:46Z</time>
      </trkpt>
      <trkpt lat="44.06907" lon="4.14025">
        <ele>192.4</ele>
        <time>2012-02-17T13:21:48Z</time>
      </trkpt>
      <trkpt lat="44.0691" lon="4.14024">
        <ele>192.4</ele>
        <time>2012-02-17T13:21:49Z</time>
      </trkpt>
      <trkpt lat="44.06913" lon="4.14024">
        <ele>192.4</ele>
        <time>2012-02-17T13:21:50Z</time>
      </trkpt>
      <trkpt lat="44.06917" lon="4.14025">
        <ele>192.4</ele>
        <time>2012-02-17T13:21:51Z</time>
      </trkpt>
      <trkpt lat="44.0692" lon="4.14027">
        <ele>192.4</ele>
        <time>2012-02-17T13:21:52Z</time>
      </trkpt>
      <trkpt lat="44.06923" lon="4.14027">
        <ele>192.4</ele>
        <time>2012-02-17T13:21:53Z</time>
      </trkpt>
      <trkpt lat="44.06926" lon="4.14028">
        <ele>191.92</ele>
        <time>2012-02-17T13:21:54Z</time>
      </trkpt>
      <trkpt lat="44.06929" lon="4.14029">
        <ele>191.92</ele>
        <time>2012-02-17T13:21:55Z</time>
      </trkpt>
      <trkpt lat="44.06947" lon="4.14035">
        <ele>191.92</ele>
        <time>2012-02-17T13:22:00Z</time>
      </trkpt>
      <trkpt lat="44.06956" lon="4.14038">
        <ele>191.44</ele>
        <time>2012-02-17T13:22:02Z</time>
      </trkpt>
      <trkpt lat="44.06961" lon="4.1404">
        <ele>191.44</ele>
        <time>2012-02-17T13:22:03Z</time>
      </trkpt>
      <trkpt lat="44.06966" lon="4.14042">
        <ele>190.96</ele>
        <time>2012-02-17T13:22:04Z</time>
      </trkpt>
      <trkpt lat="44.06971" lon="4.14044">
        <ele>190.96</ele>
        <time>2012-02-17T13:22:05Z</time>
      </trkpt>
      <trkpt lat="44.06975" lon="4.14045">
        <ele>190.96</ele>
        <time>2012-02-17T13:22:06Z</time>
      </trkpt>
      <trkpt lat="44.06985" lon="4.1405">
        <ele>190.96</ele>
        <time>2012-02-17T13:22:08Z</time>
      </trkpt>
      <trkpt lat="44.07004" lon="4.14062">
        <ele>190</ele>
        <time>2012-02-17T13:22:12Z</time>
      </trkpt>
      <trkpt lat="44.07008" lon="4.14065">
        <ele>190</ele>
        <time>2012-02-17T13:22:13Z</time>
      </trkpt>
      <trkpt lat="44.07012" lon="4.14068">
        <ele>189.52</ele>
        <time>2012-02-17T13:22:14Z</time>
      </trkpt>
      <trkpt lat="44.07017" lon="4.14071">
        <ele>189.52</ele>
        <time>2012-02-17T13:22:15Z</time>
      </trkpt>
      <trkpt lat="44.07021" lon="4.14075">
        <ele>189.04</ele>
        <time>2012-02-17T13:22:16Z</time>
      </trkpt>
      <trkpt lat="44.07024" lon="4.14078">
        <ele>189.04</ele>
        <time>2012-02-17T13:22:17Z</time>
      </trkpt>
      <trkpt lat="44.07027" lon="4.14081">
        <ele>189.52</ele>
        <time>2012-02-17T13:22:18Z</time>
      </trkpt>
      <trkpt lat="44.07031" lon="4.14084">
        <ele>189.04</ele>
        <time>2012-02-17T13:22:19Z</time>
      </trkpt>
      <trkpt lat="44.07034" lon="4.14085">
        <ele>189.52</ele>
        <time>2012-02-17T13:22:20Z</time>
      </trkpt>
      <trkpt lat="44.07036" lon="4.14087">
        <ele>189.04</ele>
        <time>2012-02-17T13:22:21Z</time>
      </trkpt>
      <trkpt lat="44.0704" lon="4.14089">
        <ele>188.56</ele>
        <time>2012-02-17T13:22:22Z</time>
      </trkpt>
      <trkpt lat="44.07043" lon="4.1409">
        <ele>188.56</ele>
        <time>2012-02-17T13:22:23Z</time>
      </trkpt>
      <trkpt lat="44.07047" lon="4.14092">
        <ele>188.56</ele>
        <time>2012-02-17T13:22:24Z</time>
      </trkpt>
      <trkpt lat="44.07048" lon="4.14095">
        <ele>188.08</ele>
        <time>2012-02-17T13:22:25Z</time>
      </trkpt>
      <trkpt lat="44.07049" lon="4.14097">
        <ele>188.56</ele>
        <time>2012-02-17T13:22:26Z</time>
      </trkpt>
      <trkpt lat="44.0705" lon="4.141">
        <ele>188.08</ele>
        <time>2012-02-17T13:22:27Z</time>
      </trkpt>
      <trkpt lat="44.07052" lon="4.14102">
        <ele>187.59</ele>
        <time>2012-02-17T13:22:28Z</time>
      </trkpt>
      <trkpt lat="44.07055" lon="4.14104">
        <ele>187.59</ele>
        <time>2012-02-17T13:22:29Z</time>
      </trkpt>
      <trkpt lat="44.07058" lon="4.14107">
        <ele>187.59</ele>
        <time>2012-02-17T13:22:30Z</time>
      </trkpt>
      <trkpt lat="44.07062" lon="4.1411">
        <ele>187.59</ele>
        <time>2012-02-17T13:22:31Z</time>
      </trkpt>
      <trkpt lat="44.07065" lon="4.14115">
        <ele>187.59</ele>
        <time>2012-02-17T13:22:32Z</time>
      </trkpt>
      <trkpt lat="44.07068" lon="4.14119">
        <ele>187.11</ele>
        <time>2012-02-17T13:22:33Z</time>
      </trkpt>
      <trkpt lat="44.0707" lon="4.14122">
        <ele>187.11</ele>
        <time>2012-02-17T13:22:34Z</time>
      </trkpt>
      <trkpt lat="44.07073" lon="4.14124">
        <ele>187.11</ele>
        <time>2012-02-17T13:22:35Z</time>
      </trkpt>
      <trkpt lat="44.07075" lon="4.14124">
        <ele>187.11</ele>
        <time>2012-02-17T13:22:36Z</time>
      </trkpt>
      <trkpt lat="44.07077" lon="4.14123">
        <ele>186.63</ele>
        <time>2012-02-17T13:22:37Z</time>
      </trkpt>
      <trkpt lat="44.07079" lon="4.14121">
        <ele>186.15</ele>
        <time>2012-02-17T13:22:38Z</time>
      </trkpt>
      <trkpt lat="44.07083" lon="4.14121">
        <ele>185.19</ele>
        <time>2012-02-17T13:22:40Z</time>
      </trkpt>
      <trkpt lat="44.07089" lon="4.14124">
        <ele>184.23</ele>
        <time>2012-02-17T13:22:42Z</time>
      </trkpt>
      <trkpt lat="44.07114" lon="4.14134">
        <ele>180.87</ele>
        <time>2012-02-17T13:22:49Z</time>
      </trkpt>
      <trkpt lat="44.07123" lon="4.14141">
        <ele>179.9</ele>
        <time>2012-02-17T13:22:52Z</time>
      </trkpt>
      <trkpt lat="44.07126" lon="4.14143">
        <ele>179.42</ele>
        <time>2012-02-17T13:22:53Z</time>
      </trkpt>
      <trkpt lat="44.07143" lon="4.14147">
        <ele>178.46</ele>
        <time>2012-02-17T13:22:58Z</time>
      </trkpt>
      <trkpt lat="44.07147" lon="4.14148">
        <ele>178.94</ele>
        <time>2012-02-17T13:22:59Z</time>
      </trkpt>
      <trkpt lat="44.0715" lon="4.1415">
        <ele>178.46</ele>
        <time>2012-02-17T13:23:00Z</time>
      </trkpt>
      <trkpt lat="44.07154" lon="4.1415">
        <ele>177.5</ele>
        <time>2012-02-17T13:23:01Z</time>
      </trkpt>
      <trkpt lat="44.07158" lon="4.1415">
        <ele>177.5</ele>
        <time>2012-02-17T13:23:02Z</time>
      </trkpt>
      <trkpt lat="44.07163" lon="4.1415">
        <ele>177.5</ele>
        <time>2012-02-17T13:23:03Z</time>
      </trkpt>
      <trkpt lat="44.07167" lon="4.14151">
        <ele>176.54</ele>
        <time>2012-02-17T13:23:04Z</time>
      </trkpt>
      <trkpt lat="44.07171" lon="4.14151">
        <ele>176.06</ele>
        <time>2012-02-17T13:23:05Z</time>
      </trkpt>
      <trkpt lat="44.07176" lon="4.14151">
        <ele>176.06</ele>
        <time>2012-02-17T13:23:06Z</time>
      </trkpt>
      <trkpt lat="44.07181" lon="4.14151">
        <ele>175.58</ele>
        <time>2012-02-17T13:23:07Z</time>
      </trkpt>
      <trkpt lat="44.07185" lon="4.14152">
        <ele>175.1</ele>
        <time>2012-02-17T13:23:08Z</time>
      </trkpt>
      <trkpt lat="44.0719" lon="4.14152">
        <ele>175.1</ele>
        <time>2012-02-17T13:23:09Z</time>
      </trkpt>
      <trkpt lat="44.07196" lon="4.14153">
        <ele>174.62</ele>
        <time>2012-02-17T13:23:10Z</time>
      </trkpt>
      <trkpt lat="44.07201" lon="4.14154">
        <ele>175.1</ele>
        <time>2012-02-17T13:23:11Z</time>
      </trkpt>
      <trkpt lat="44.07206" lon="4.14154">
        <ele>174.62</ele>
        <time>2012-02-17T13:23:12Z</time>
      </trkpt>
      <trkpt lat="44.07211" lon="4.14154">
        <ele>174.62</ele>
        <time>2012-02-17T13:23:13Z</time>
      </trkpt>
      <trkpt lat="44.07216" lon="4.14155">
        <ele>174.14</ele>
        <time>2012-02-17T13:23:14Z</time>
      </trkpt>
      <trkpt lat="44.07221" lon="4.14156">
        <ele>173.66</ele>
        <time>2012-02-17T13:23:15Z</time>
      </trkpt>
      <trkpt lat="44.07227" lon="4.14157">
        <ele>173.66</ele>
        <time>2012-02-17T13:23:16Z</time>
      </trkpt>
      <trkpt lat="44.07232" lon="4.14158">
        <ele>173.66</ele>
        <time>2012-02-17T13:23:17Z</time>
      </trkpt>
      <trkpt lat="44.07237" lon="4.14158">
        <ele>172.69</ele>
        <time>2012-02-17T13:23:18Z</time>
      </trkpt>
      <trkpt lat="44.07262" lon="4.14158">
        <ele>170.77</ele>
        <time>2012-02-17T13:23:24Z</time>
      </trkpt>
      <trkpt lat="44.07268" lon="4.1416">
        <ele>169.33</ele>
        <time>2012-02-17T13:23:25Z</time>
      </trkpt>
      <trkpt lat="44.07278" lon="4.14164">
        <ele>170.29</ele>
        <time>2012-02-17T13:23:27Z</time>
      </trkpt>
      <trkpt lat="44.07281" lon="4.14168">
        <ele>171.25</ele>
        <time>2012-02-17T13:23:28Z</time>
      </trkpt>
      <trkpt lat="44.07292" lon="4.14182">
        <ele>174.62</ele>
        <time>2012-02-17T13:23:32Z</time>
      </trkpt>
      <trkpt lat="44.07295" lon="4.14184">
        <ele>175.1</ele>
        <time>2012-02-17T13:23:33Z</time>
      </trkpt>
      <trkpt lat="44.073" lon="4.14186">
        <ele>174.62</ele>
        <time>2012-02-17T13:23:34Z</time>
      </trkpt>
      <trkpt lat="44.0731" lon="4.14188">
        <ele>174.14</ele>
        <time>2012-02-17T13:23:36Z</time>
      </trkpt>
      <trkpt lat="44.07314" lon="4.14189">
        <ele>174.14</ele>
        <time>2012-02-17T13:23:37Z</time>
      </trkpt>
      <trkpt lat="44.07317" lon="4.14188">
        <ele>174.14</ele>
        <time>2012-02-17T13:23:38Z</time>
      </trkpt>
      <trkpt lat="44.07318" lon="4.14186">
        <ele>173.66</ele>
        <time>2012-02-17T13:23:39Z</time>
      </trkpt>
      <trkpt lat="44.0732" lon="4.14182">
        <ele>173.66</ele>
        <time>2012-02-17T13:23:40Z</time>
      </trkpt>
      <trkpt lat="44.07322" lon="4.1418">
        <ele>172.21</ele>
        <time>2012-02-17T13:23:41Z</time>
      </trkpt>
      <trkpt lat="44.07324" lon="4.1418">
        <ele>171.73</ele>
        <time>2012-02-17T13:23:42Z</time>
      </trkpt>
      <trkpt lat="44.07327" lon="4.1418">
        <ele>171.73</ele>
        <time>2012-02-17T13:23:43Z</time>
      </trkpt>
      <trkpt lat="44.0733" lon="4.1418">
        <ele>170.77</ele>
        <time>2012-02-17T13:23:44Z</time>
      </trkpt>
      <trkpt lat="44.07334" lon="4.14181">
        <ele>171.25</ele>
        <time>2012-02-17T13:23:45Z</time>
      </trkpt>
      <trkpt lat="44.07338" lon="4.14183">
        <ele>171.25</ele>
        <time>2012-02-17T13:23:46Z</time>
      </trkpt>
      <trkpt lat="44.07347" lon="4.14187">
        <ele>171.25</ele>
        <time>2012-02-17T13:23:48Z</time>
      </trkpt>
      <trkpt lat="44.07351" lon="4.14189">
        <ele>170.77</ele>
        <time>2012-02-17T13:23:49Z</time>
      </trkpt>
      <trkpt lat="44.07356" lon="4.14192">
        <ele>170.77</ele>
        <time>2012-02-17T13:23:50Z</time>
      </trkpt>
      <trkpt lat="44.0736" lon="4.14196">
        <ele>170.77</ele>
        <time>2012-02-17T13:23:51Z</time>
      </trkpt>
      <trkpt lat="44.07363" lon="4.142">
        <ele>171.25</ele>
        <time>2012-02-17T13:23:52Z</time>
      </trkpt>
      <trkpt lat="44.07365" lon="4.14202">
        <ele>171.73</ele>
        <time>2012-02-17T13:23:53Z</time>
      </trkpt>
      <trkpt lat="44.07367" lon="4.14203">
        <ele>171.73</ele>
        <time>2012-02-17T13:23:54Z</time>
      </trkpt>
      <trkpt lat="44.0737" lon="4.14204">
        <ele>172.21</ele>
        <time>2012-02-17T13:23:55Z</time>
      </trkpt>
      <trkpt lat="44.07374" lon="4.14204">
        <ele>171.25</ele>
        <time>2012-02-17T13:23:56Z</time>
      </trkpt>
      <trkpt lat="44.07378" lon="4.14204">
        <ele>171.73</ele>
        <time>2012-02-17T13:23:57Z</time>
      </trkpt>
      <trkpt lat="44.07382" lon="4.14204">
        <ele>171.25</ele>
        <time>2012-02-17T13:23:58Z</time>
      </trkpt>
      <trkpt lat="44.07386" lon="4.14205">
        <ele>170.77</ele>
        <time>2012-02-17T13:23:59Z</time>
      </trkpt>
      <trkpt lat="44.07388" lon="4.14203">
        <ele>170.29</ele>
        <time>2012-02-17T13:24:00Z</time>
      </trkpt>
      <trkpt lat="44.0739" lon="4.14201">
        <ele>170.29</ele>
        <time>2012-02-17T13:24:01Z</time>
      </trkpt>
      <trkpt lat="44.0739" lon="4.14199">
        <ele>169.81</ele>
        <time>2012-02-17T13:24:02Z</time>
      </trkpt>
      <trkpt lat="44.07392" lon="4.14196">
        <ele>169.33</ele>
        <time>2012-02-17T13:24:03Z</time>
      </trkpt>
      <trkpt lat="44.07395" lon="4.14193">
        <ele>167.89</ele>
        <time>2012-02-17T13:24:04Z</time>
      </trkpt>
      <trkpt lat="44.07398" lon="4.1419">
        <ele>167.89</ele>
        <time>2012-02-17T13:24:05Z</time>
      </trkpt>
      <trkpt lat="44.07401" lon="4.14188">
        <ele>166.93</ele>
        <time>2012-02-17T13:24:06Z</time>
      </trkpt>
      <trkpt lat="44.07406" lon="4.14187">
        <ele>166.45</ele>
        <time>2012-02-17T13:24:07Z</time>
      </trkpt>
      <trkpt lat="44.0741" lon="4.14187">
        <ele>165.96</ele>
        <time>2012-02-17T13:24:08Z</time>
      </trkpt>
      <trkpt lat="44.07421" lon="4.14192">
        <ele>167.41</ele>
        <time>2012-02-17T13:24:11Z</time>
      </trkpt>
      <trkpt lat="44.07426" lon="4.14192">
        <ele>167.89</ele>
        <time>2012-02-17T13:24:13Z</time>
      </trkpt>
      <trkpt lat="44.07428" lon="4.1419">
        <ele>167.41</ele>
        <time>2012-02-17T13:24:14Z</time>
      </trkpt>
      <trkpt lat="44.07432" lon="4.1419">
        <ele>166.93</ele>
        <time>2012-02-17T13:24:15Z</time>
      </trkpt>
      <trkpt lat="44.07435" lon="4.14192">
        <ele>168.37</ele>
        <time>2012-02-17T13:24:16Z</time>
      </trkpt>
      <trkpt lat="44.07437" lon="4.14194">
        <ele>167.89</ele>
        <time>2012-02-17T13:24:17Z</time>
      </trkpt>
      <trkpt lat="44.07439" lon="4.14196">
        <ele>169.33</ele>
        <time>2012-02-17T13:24:18Z</time>
      </trkpt>
      <trkpt lat="44.07442" lon="4.14196">
        <ele>168.85</ele>
        <time>2012-02-17T13:24:19Z</time>
      </trkpt>
      <trkpt lat="44.07446" lon="4.14195">
        <ele>168.37</ele>
        <time>2012-02-17T13:24:20Z</time>
      </trkpt>
      <trkpt lat="44.0745" lon="4.14194">
        <ele>168.37</ele>
        <time>2012-02-17T13:24:21Z</time>
      </trkpt>
      <trkpt lat="44.07455" lon="4.14194">
        <ele>169.33</ele>
        <time>2012-02-17T13:24:22Z</time>
      </trkpt>
      <trkpt lat="44.07475" lon="4.14193">
        <ele>168.85</ele>
        <time>2012-02-17T13:24:26Z</time>
      </trkpt>
      <trkpt lat="44.07479" lon="4.1419">
        <ele>168.37</ele>
        <time>2012-02-17T13:24:27Z</time>
      </trkpt>
      <trkpt lat="44.07483" lon="4.14189">
        <ele>168.37</ele>
        <time>2012-02-17T13:24:28Z</time>
      </trkpt>
      <trkpt lat="44.07487" lon="4.1419">
        <ele>167.89</ele>
        <time>2012-02-17T13:24:29Z</time>
      </trkpt>
      <trkpt lat="44.07491" lon="4.14192">
        <ele>168.37</ele>
        <time>2012-02-17T13:24:30Z</time>
      </trkpt>
      <trkpt lat="44.07495" lon="4.14194">
        <ele>167.89</ele>
        <time>2012-02-17T13:24:31Z</time>
      </trkpt>
      <trkpt lat="44.07498" lon="4.14194">
        <ele>168.37</ele>
        <time>2012-02-17T13:24:32Z</time>
      </trkpt>
      <trkpt lat="44.07505" lon="4.14197">
        <ele>168.37</ele>
        <time>2012-02-17T13:24:41Z</time>
      </trkpt>
      <trkpt lat="44.07505" lon="4.14197">
        <ele>167.41</ele>
        <time>2012-02-17T13:24:58Z</time>
      </trkpt>
      <trkpt lat="44.07516" lon="4.14205">
        <ele>168.37</ele>
        <time>2012-02-17T13:25:08Z</time>
      </trkpt>
      <trkpt lat="44.07518" lon="4.14208">
        <ele>168.37</ele>
        <time>2012-02-17T13:25:09Z</time>
      </trkpt>
      <trkpt lat="44.0752" lon="4.14209">
        <ele>168.85</ele>
        <time>2012-02-17T13:25:10Z</time>
      </trkpt>
      <trkpt lat="44.07526" lon="4.14215">
        <ele>170.77</ele>
        <time>2012-02-17T13:25:13Z</time>
      </trkpt>
      <trkpt lat="44.07539" lon="4.14227">
        <ele>171.73</ele>
        <time>2012-02-17T13:25:19Z</time>
      </trkpt>
      <trkpt lat="44.07542" lon="4.14228">
        <ele>171.73</ele>
        <time>2012-02-17T13:25:20Z</time>
      </trkpt>
      <trkpt lat="44.07545" lon="4.14229">
        <ele>171.73</ele>
        <time>2012-02-17T13:25:21Z</time>
      </trkpt>
      <trkpt lat="44.07548" lon="4.1423">
        <ele>171.73</ele>
        <time>2012-02-17T13:25:22Z</time>
      </trkpt>
      <trkpt lat="44.07551" lon="4.14231">
        <ele>171.73</ele>
        <time>2012-02-17T13:25:23Z</time>
      </trkpt>
      <trkpt lat="44.07555" lon="4.14231">
        <ele>171.73</ele>
        <time>2012-02-17T13:25:24Z</time>
      </trkpt>
      <trkpt lat="44.07558" lon="4.14232">
        <ele>171.73</ele>
        <time>2012-02-17T13:25:25Z</time>
      </trkpt>
      <trkpt lat="44.0756" lon="4.14231">
        <ele>171.73</ele>
        <time>2012-02-17T13:25:26Z</time>
      </trkpt>
      <trkpt lat="44.07563" lon="4.14231">
        <ele>171.25</ele>
        <time>2012-02-17T13:25:27Z</time>
      </trkpt>
      <trkpt lat="44.07566" lon="4.14231">
        <ele>171.73</ele>
        <time>2012-02-17T13:25:28Z</time>
      </trkpt>
      <trkpt lat="44.07567" lon="4.14231">
        <ele>171.25</ele>
        <time>2012-02-17T13:25:29Z</time>
      </trkpt>
      <trkpt lat="44.07575" lon="4.14232">
        <ele>170.77</ele>
        <time>2012-02-17T13:25:40Z</time>
      </trkpt>
      <trkpt lat="44.07575" lon="4.14232">
        <ele>170.77</ele>
        <time>2012-02-17T13:26:13Z</time>
      </trkpt>
      <trkpt lat="44.07577" lon="4.14234">
        <ele>170.29</ele>
        <time>2012-02-17T13:26:38Z</time>
      </trkpt>
      <trkpt lat="44.07577" lon="4.14236">
        <ele>170.29</ele>
        <time>2012-02-17T13:26:54Z</time>
      </trkpt>
      <trkpt lat="44.07577" lon="4.14236">
        <ele>169.81</ele>
        <time>2012-02-17T13:27:32Z</time>
      </trkpt>
      <trkpt lat="44.07578" lon="4.14235">
        <ele>169.81</ele>
        <time>2012-02-17T13:28:11Z</time>
      </trkpt>
      <trkpt lat="44.07578" lon="4.14235">
        <ele>170.29</ele>
        <time>2012-02-17T13:28:48Z</time>
      </trkpt>
      <trkpt lat="44.07578" lon="4.14235">
        <ele>169.81</ele>
        <time>2012-02-17T13:29:28Z</time>
      </trkpt>
      <trkpt lat="44.07578" lon="4.14235">
        <ele>170.77</ele>
        <time>2012-02-17T13:30:11Z</time>
      </trkpt>
      <trkpt lat="44.07579" lon="4.14235">
        <ele>169.81</ele>
        <time>2012-02-17T13:30:52Z</time>
      </trkpt>
      <trkpt lat="44.07579" lon="4.14235">
        <ele>170.29</ele>
        <time>2012-02-17T13:31:29Z</time>
      </trkpt>
      <trkpt lat="44.07579" lon="4.14235">
        <ele>170.29</ele>
        <time>2012-02-17T13:32:10Z</time>
      </trkpt>
      <trkpt lat="44.07579" lon="4.14235">
        <ele>170.29</ele>
        <time>2012-02-17T13:32:32Z</time>
      </trkpt>
      <trkpt lat="44.07579" lon="4.14235">
        <ele>170.77</ele>
        <time>2012-02-17T13:32:34Z</time>
      </trkpt>
      <trkpt lat="44.0758" lon="4.14235">
        <ele>170.29</ele>
        <time>2012-02-17T13:32:45Z</time>
      </trkpt>
      <trkpt lat="44.0758" lon="4.14234">
        <ele>170.29</ele>
        <time>2012-02-17T13:32:51Z</time>
      </trkpt>
      <trkpt lat="44.07582" lon="4.14232">
        <ele>170.77</ele>
        <time>2012-02-17T13:32:52Z</time>
      </trkpt>
      <trkpt lat="44.07607" lon="4.14246">
        <ele>170.29</ele>
        <time>2012-02-17T13:33:02Z</time>
      </trkpt>
      <trkpt lat="44.07623" lon="4.14277">
        <ele>172.69</ele>
        <time>2012-02-17T13:33:11Z</time>
      </trkpt>
      <trkpt lat="44.07624" lon="4.1428">
        <ele>172.69</ele>
        <time>2012-02-17T13:33:12Z</time>
      </trkpt>
      <trkpt lat="44.07626" lon="4.14281">
        <ele>173.17</ele>
        <time>2012-02-17T13:33:13Z</time>
      </trkpt>
      <trkpt lat="44.07628" lon="4.14283">
        <ele>172.21</ele>
        <time>2012-02-17T13:33:14Z</time>
      </trkpt>
      <trkpt lat="44.07631" lon="4.14284">
        <ele>172.69</ele>
        <time>2012-02-17T13:33:15Z</time>
      </trkpt>
      <trkpt lat="44.07634" lon="4.14286">
        <ele>172.21</ele>
        <time>2012-02-17T13:33:16Z</time>
      </trkpt>
      <trkpt lat="44.07637" lon="4.1429">
        <ele>172.69</ele>
        <time>2012-02-17T13:33:17Z</time>
      </trkpt>
      <trkpt lat="44.07639" lon="4.14292">
        <ele>172.21</ele>
        <time>2012-02-17T13:33:18Z</time>
      </trkpt>
      <trkpt lat="44.07641" lon="4.14295">
        <ele>172.69</ele>
        <time>2012-02-17T13:33:19Z</time>
      </trkpt>
      <trkpt lat="44.07643" lon="4.14298">
        <ele>171.73</ele>
        <time>2012-02-17T13:33:20Z</time>
      </trkpt>
      <trkpt lat="44.07654" lon="4.14314">
        <ele>171.25</ele>
        <time>2012-02-17T13:33:25Z</time>
      </trkpt>
      <trkpt lat="44.07658" lon="4.14317">
        <ele>171.25</ele>
        <time>2012-02-17T13:33:26Z</time>
      </trkpt>
      <trkpt lat="44.07662" lon="4.14321">
        <ele>170.29</ele>
        <time>2012-02-17T13:33:27Z</time>
      </trkpt>
      <trkpt lat="44.07666" lon="4.14325">
        <ele>170.29</ele>
        <time>2012-02-17T13:33:28Z</time>
      </trkpt>
      <trkpt lat="44.07669" lon="4.14329">
        <ele>170.77</ele>
        <time>2012-02-17T13:33:29Z</time>
      </trkpt>
      <trkpt lat="44.07672" lon="4.14334">
        <ele>170.77</ele>
        <time>2012-02-17T13:33:30Z</time>
      </trkpt>
      <trkpt lat="44.07674" lon="4.14339">
        <ele>169.81</ele>
        <time>2012-02-17T13:33:31Z</time>
      </trkpt>
      <trkpt lat="44.07676" lon="4.14344">
        <ele>170.29</ele>
        <time>2012-02-17T13:33:32Z</time>
      </trkpt>
      <trkpt lat="44.07676" lon="4.14349">
        <ele>169.33</ele>
        <time>2012-02-17T13:33:33Z</time>
      </trkpt>
      <trkpt lat="44.07677" lon="4.14353">
        <ele>170.29</ele>
        <time>2012-02-17T13:33:34Z</time>
      </trkpt>
      <trkpt lat="44.0768" lon="4.14356">
        <ele>169.33</ele>
        <time>2012-02-17T13:33:35Z</time>
      </trkpt>
      <trkpt lat="44.07683" lon="4.1436">
        <ele>169.33</ele>
        <time>2012-02-17T13:33:36Z</time>
      </trkpt>
      <trkpt lat="44.07686" lon="4.14365">
        <ele>168.37</ele>
        <time>2012-02-17T13:33:37Z</time>
      </trkpt>
      <trkpt lat="44.07688" lon="4.14371">
        <ele>168.85</ele>
        <time>2012-02-17T13:33:38Z</time>
      </trkpt>
      <trkpt lat="44.07689" lon="4.14377">
        <ele>169.33</ele>
        <time>2012-02-17T13:33:39Z</time>
      </trkpt>
      <trkpt lat="44.0769" lon="4.14382">
        <ele>169.81</ele>
        <time>2012-02-17T13:33:40Z</time>
      </trkpt>
      <trkpt lat="44.07692" lon="4.14387">
        <ele>169.81</ele>
        <time>2012-02-17T13:33:41Z</time>
      </trkpt>
      <trkpt lat="44.07694" lon="4.14392">
        <ele>169.33</ele>
        <time>2012-02-17T13:33:42Z</time>
      </trkpt>
      <trkpt lat="44.07697" lon="4.14397">
        <ele>168.37</ele>
        <time>2012-02-17T13:33:43Z</time>
      </trkpt>
      <trkpt lat="44.07699" lon="4.14398">
        <ele>167.41</ele>
        <time>2012-02-17T13:33:44Z</time>
      </trkpt>
      <trkpt lat="44.07702" lon="4.144">
        <ele>167.41</ele>
        <time>2012-02-17T13:33:45Z</time>
      </trkpt>
      <trkpt lat="44.07705" lon="4.14401">
        <ele>166.93</ele>
        <time>2012-02-17T13:33:46Z</time>
      </trkpt>
      <trkpt lat="44.07708" lon="4.14402">
        <ele>166.45</ele>
        <time>2012-02-17T13:33:47Z</time>
      </trkpt>
      <trkpt lat="44.07711" lon="4.14406">
        <ele>165.96</ele>
        <time>2012-02-17T13:33:48Z</time>
      </trkpt>
      <trkpt lat="44.07713" lon="4.14411">
        <ele>165.48</ele>
        <time>2012-02-17T13:33:49Z</time>
      </trkpt>
      <trkpt lat="44.07713" lon="4.14416">
        <ele>165.96</ele>
        <time>2012-02-17T13:33:50Z</time>
      </trkpt>
      <trkpt lat="44.07713" lon="4.14421">
        <ele>165.96</ele>
        <time>2012-02-17T13:33:51Z</time>
      </trkpt>
      <trkpt lat="44.07714" lon="4.14427">
        <ele>165.96</ele>
        <time>2012-02-17T13:33:52Z</time>
      </trkpt>
      <trkpt lat="44.07715" lon="4.14432">
        <ele>165.96</ele>
        <time>2012-02-17T13:33:53Z</time>
      </trkpt>
      <trkpt lat="44.07716" lon="4.14437">
        <ele>165.96</ele>
        <time>2012-02-17T13:33:54Z</time>
      </trkpt>
      <trkpt lat="44.07718" lon="4.14441">
        <ele>165.96</ele>
        <time>2012-02-17T13:33:55Z</time>
      </trkpt>
      <trkpt lat="44.07721" lon="4.14446">
        <ele>165.96</ele>
        <time>2012-02-17T13:33:56Z</time>
      </trkpt>
      <trkpt lat="44.07751" lon="4.14489">
        <ele>165</ele>
        <time>2012-02-17T13:34:07Z</time>
      </trkpt>
      <trkpt lat="44.07754" lon="4.14493">
        <ele>165</ele>
        <time>2012-02-17T13:34:08Z</time>
      </trkpt>
      <trkpt lat="44.07757" lon="4.14497">
        <ele>164.52</ele>
        <time>2012-02-17T13:34:09Z</time>
      </trkpt>
      <trkpt lat="44.07762" lon="4.14503">
        <ele>164.52</ele>
        <time>2012-02-17T13:34:14Z</time>
      </trkpt>
      <trkpt lat="44.07764" lon="4.14505">
        <ele>164.04</ele>
        <time>2012-02-17T13:34:15Z</time>
      </trkpt>
      <trkpt lat="44.07766" lon="4.14509">
        <ele>163.08</ele>
        <time>2012-02-17T13:34:16Z</time>
      </trkpt>
      <trkpt lat="44.07767" lon="4.14513">
        <ele>162.6</ele>
        <time>2012-02-17T13:34:17Z</time>
      </trkpt>
      <trkpt lat="44.07768" lon="4.14517">
        <ele>161.64</ele>
        <time>2012-02-17T13:34:18Z</time>
      </trkpt>
      <trkpt lat="44.07767" lon="4.1452">
        <ele>161.16</ele>
        <time>2012-02-17T13:34:19Z</time>
      </trkpt>
      <trkpt lat="44.07766" lon="4.14523">
        <ele>160.68</ele>
        <time>2012-02-17T13:34:20Z</time>
      </trkpt>
      <trkpt lat="44.07765" lon="4.14526">
        <ele>162.12</ele>
        <time>2012-02-17T13:34:21Z</time>
      </trkpt>
      <trkpt lat="44.07765" lon="4.1453">
        <ele>161.64</ele>
        <time>2012-02-17T13:34:22Z</time>
      </trkpt>
      <trkpt lat="44.07764" lon="4.14534">
        <ele>161.64</ele>
        <time>2012-02-17T13:34:23Z</time>
      </trkpt>
      <trkpt lat="44.07764" lon="4.14539">
        <ele>161.16</ele>
        <time>2012-02-17T13:34:24Z</time>
      </trkpt>
      <trkpt lat="44.07764" lon="4.14542">
        <ele>161.64</ele>
        <time>2012-02-17T13:34:25Z</time>
      </trkpt>
      <trkpt lat="44.07764" lon="4.14545">
        <ele>162.12</ele>
        <time>2012-02-17T13:34:26Z</time>
      </trkpt>
      <trkpt lat="44.07763" lon="4.14547">
        <ele>162.6</ele>
        <time>2012-02-17T13:34:27Z</time>
      </trkpt>
      <trkpt lat="44.07763" lon="4.14551">
        <ele>163.56</ele>
        <time>2012-02-17T13:34:32Z</time>
      </trkpt>
      <trkpt lat="44.07762" lon="4.14553">
        <ele>164.52</ele>
        <time>2012-02-17T13:34:33Z</time>
      </trkpt>
      <trkpt lat="44.0776" lon="4.14555">
        <ele>164.52</ele>
        <time>2012-02-17T13:34:34Z</time>
      </trkpt>
      <trkpt lat="44.07757" lon="4.14558">
        <ele>165.48</ele>
        <time>2012-02-17T13:34:36Z</time>
      </trkpt>
      <trkpt lat="44.07755" lon="4.1456">
        <ele>165.96</ele>
        <time>2012-02-17T13:34:37Z</time>
      </trkpt>
      <trkpt lat="44.07755" lon="4.14562">
        <ele>166.45</ele>
        <time>2012-02-17T13:34:38Z</time>
      </trkpt>
      <trkpt lat="44.07755" lon="4.14565">
        <ele>166.45</ele>
        <time>2012-02-17T13:34:39Z</time>
      </trkpt>
      <trkpt lat="44.07756" lon="4.14567">
        <ele>166.45</ele>
        <time>2012-02-17T13:34:40Z</time>
      </trkpt>
      <trkpt lat="44.07757" lon="4.14569">
        <ele>166.45</ele>
        <time>2012-02-17T13:34:41Z</time>
      </trkpt>
      <trkpt lat="44.07758" lon="4.1457">
        <ele>166.45</ele>
        <time>2012-02-17T13:34:42Z</time>
      </trkpt>
      <trkpt lat="44.0776" lon="4.14572">
        <ele>165.96</ele>
        <time>2012-02-17T13:34:43Z</time>
      </trkpt>
      <trkpt lat="44.07761" lon="4.14575">
        <ele>166.45</ele>
        <time>2012-02-17T13:34:44Z</time>
      </trkpt>
      <trkpt lat="44.07763" lon="4.14578">
        <ele>165.48</ele>
        <time>2012-02-17T13:34:45Z</time>
      </trkpt>
      <trkpt lat="44.07765" lon="4.14581">
        <ele>165.96</ele>
        <time>2012-02-17T13:34:46Z</time>
      </trkpt>
      <trkpt lat="44.07767" lon="4.14583">
        <ele>165.48</ele>
        <time>2012-02-17T13:34:47Z</time>
      </trkpt>
      <trkpt lat="44.0777" lon="4.14586">
        <ele>165.48</ele>
        <time>2012-02-17T13:34:48Z</time>
      </trkpt>
      <trkpt lat="44.07771" lon="4.14588">
        <ele>165</ele>
        <time>2012-02-17T13:34:49Z</time>
      </trkpt>
      <trkpt lat="44.07772" lon="4.14589">
        <ele>165</ele>
        <time>2012-02-17T13:34:50Z</time>
      </trkpt>
      <trkpt lat="44.07773" lon="4.14589">
        <ele>164.52</ele>
        <time>2012-02-17T13:35:02Z</time>
      </trkpt>
      <trkpt lat="44.07779" lon="4.14599">
        <ele>165</ele>
        <time>2012-02-17T13:35:06Z</time>
      </trkpt>
      <trkpt lat="44.07783" lon="4.14603">
        <ele>165</ele>
        <time>2012-02-17T13:35:07Z</time>
      </trkpt>
      <trkpt lat="44.07788" lon="4.14606">
        <ele>164.52</ele>
        <time>2012-02-17T13:35:08Z</time>
      </trkpt>
      <trkpt lat="44.07794" lon="4.14609">
        <ele>164.52</ele>
        <time>2012-02-17T13:35:09Z</time>
      </trkpt>
      <trkpt lat="44.078" lon="4.14613">
        <ele>164.52</ele>
        <time>2012-02-17T13:35:10Z</time>
      </trkpt>
      <trkpt lat="44.0781" lon="4.1462">
        <ele>164.52</ele>
        <time>2012-02-17T13:35:12Z</time>
      </trkpt>
      <trkpt lat="44.07829" lon="4.14632">
        <ele>162.6</ele>
        <time>2012-02-17T13:35:16Z</time>
      </trkpt>
      <trkpt lat="44.07837" lon="4.14638">
        <ele>162.12</ele>
        <time>2012-02-17T13:35:18Z</time>
      </trkpt>
      <trkpt lat="44.07846" lon="4.14642">
        <ele>162.6</ele>
        <time>2012-02-17T13:35:20Z</time>
      </trkpt>
      <trkpt lat="44.0785" lon="4.14644">
        <ele>162.12</ele>
        <time>2012-02-17T13:35:21Z</time>
      </trkpt>
      <trkpt lat="44.07853" lon="4.14645">
        <ele>163.08</ele>
        <time>2012-02-17T13:35:22Z</time>
      </trkpt>
      <trkpt lat="44.07856" lon="4.14645">
        <ele>162.6</ele>
        <time>2012-02-17T13:35:23Z</time>
      </trkpt>
      <trkpt lat="44.07859" lon="4.14642">
        <ele>162.12</ele>
        <time>2012-02-17T13:35:24Z</time>
      </trkpt>
      <trkpt lat="44.07867" lon="4.14638">
        <ele>161.64</ele>
        <time>2012-02-17T13:35:26Z</time>
      </trkpt>
      <trkpt lat="44.07872" lon="4.14641">
        <ele>161.64</ele>
        <time>2012-02-17T13:35:27Z</time>
      </trkpt>
      <trkpt lat="44.07876" lon="4.14645">
        <ele>161.16</ele>
        <time>2012-02-17T13:35:28Z</time>
      </trkpt>
      <trkpt lat="44.07879" lon="4.14651">
        <ele>160.2</ele>
        <time>2012-02-17T13:35:29Z</time>
      </trkpt>
      <trkpt lat="44.07882" lon="4.14658">
        <ele>161.16</ele>
        <time>2012-02-17T13:35:30Z</time>
      </trkpt>
      <trkpt lat="44.07885" lon="4.14664">
        <ele>161.64</ele>
        <time>2012-02-17T13:35:31Z</time>
      </trkpt>
      <trkpt lat="44.07888" lon="4.1467">
        <ele>161.64</ele>
        <time>2012-02-17T13:35:32Z</time>
      </trkpt>
      <trkpt lat="44.07894" lon="4.14678">
        <ele>161.64</ele>
        <time>2012-02-17T13:35:34Z</time>
      </trkpt>
      <trkpt lat="44.07896" lon="4.14683">
        <ele>162.12</ele>
        <time>2012-02-17T13:35:35Z</time>
      </trkpt>
      <trkpt lat="44.07898" lon="4.14688">
        <ele>163.56</ele>
        <time>2012-02-17T13:35:36Z</time>
      </trkpt>
      <trkpt lat="44.07899" lon="4.14692">
        <ele>164.52</ele>
        <time>2012-02-17T13:35:37Z</time>
      </trkpt>
      <trkpt lat="44.079" lon="4.14696">
        <ele>164.52</ele>
        <time>2012-02-17T13:35:38Z</time>
      </trkpt>
      <trkpt lat="44.07901" lon="4.14699">
        <ele>165</ele>
        <time>2012-02-17T13:35:39Z</time>
      </trkpt>
      <trkpt lat="44.07902" lon="4.14702">
        <ele>165</ele>
        <time>2012-02-17T13:35:40Z</time>
      </trkpt>
      <trkpt lat="44.07902" lon="4.14704">
        <ele>165</ele>
        <time>2012-02-17T13:35:41Z</time>
      </trkpt>
      <trkpt lat="44.07902" lon="4.14706">
        <ele>165.48</ele>
        <time>2012-02-17T13:35:42Z</time>
      </trkpt>
      <trkpt lat="44.07903" lon="4.14707">
        <ele>165.48</ele>
        <time>2012-02-17T13:35:43Z</time>
      </trkpt>
      <trkpt lat="44.07903" lon="4.14709">
        <ele>165.96</ele>
        <time>2012-02-17T13:35:44Z</time>
      </trkpt>
      <trkpt lat="44.07904" lon="4.1471">
        <ele>165.96</ele>
        <time>2012-02-17T13:35:45Z</time>
      </trkpt>
      <trkpt lat="44.07906" lon="4.1471">
        <ele>166.45</ele>
        <time>2012-02-17T13:35:46Z</time>
      </trkpt>
      <trkpt lat="44.07907" lon="4.1471">
        <ele>165.96</ele>
        <time>2012-02-17T13:35:47Z</time>
      </trkpt>
      <trkpt lat="44.07908" lon="4.1471">
        <ele>165.48</ele>
        <time>2012-02-17T13:35:48Z</time>
      </trkpt>
      <trkpt lat="44.07909" lon="4.1471">
        <ele>165.96</ele>
        <time>2012-02-17T13:35:49Z</time>
      </trkpt>
      <trkpt lat="44.0791" lon="4.1471">
        <ele>165.96</ele>
        <time>2012-02-17T13:35:50Z</time>
      </trkpt>
      <trkpt lat="44.07911" lon="4.14709">
        <ele>165.48</ele>
        <time>2012-02-17T13:35:51Z</time>
      </trkpt>
      <trkpt lat="44.07912" lon="4.1471">
        <ele>165.96</ele>
        <time>2012-02-17T13:35:52Z</time>
      </trkpt>
      <trkpt lat="44.07914" lon="4.14711">
        <ele>165.96</ele>
        <time>2012-02-17T13:35:53Z</time>
      </trkpt>
      <trkpt lat="44.07932" lon="4.14714">
        <ele>165.48</ele>
        <time>2012-02-17T13:36:06Z</time>
      </trkpt>
      <trkpt lat="44.07966" lon="4.1471">
        <ele>165</ele>
        <time>2012-02-17T13:36:18Z</time>
      </trkpt>
      <trkpt lat="44.08003" lon="4.14719">
        <ele>164.04</ele>
        <time>2012-02-17T13:36:29Z</time>
      </trkpt>
      <trkpt lat="44.08028" lon="4.14723">
        <ele>163.08</ele>
        <time>2012-02-17T13:36:37Z</time>
      </trkpt>
      <trkpt lat="44.08033" lon="4.14723">
        <ele>163.08</ele>
        <time>2012-02-17T13:36:42Z</time>
      </trkpt>
      <trkpt lat="44.08033" lon="4.14729">
        <ele>162.6</ele>
        <time>2012-02-17T13:36:47Z</time>
      </trkpt>
      <trkpt lat="44.08032" lon="4.14731">
        <ele>162.6</ele>
        <time>2012-02-17T13:36:48Z</time>
      </trkpt>
      <trkpt lat="44.08031" lon="4.14732">
        <ele>162.12</ele>
        <time>2012-02-17T13:36:49Z</time>
      </trkpt>
      <trkpt lat="44.08032" lon="4.14734">
        <ele>162.12</ele>
        <time>2012-02-17T13:36:50Z</time>
      </trkpt>
      <trkpt lat="44.08035" lon="4.14736">
        <ele>162.12</ele>
        <time>2012-02-17T13:36:51Z</time>
      </trkpt>
      <trkpt lat="44.08038" lon="4.14736">
        <ele>162.12</ele>
        <time>2012-02-17T13:36:52Z</time>
      </trkpt>
      <trkpt lat="44.08041" lon="4.14736">
        <ele>162.12</ele>
        <time>2012-02-17T13:36:53Z</time>
      </trkpt>
      <trkpt lat="44.08048" lon="4.14737">
        <ele>162.6</ele>
        <time>2012-02-17T13:36:56Z</time>
      </trkpt>
      <trkpt lat="44.08049" lon="4.1474">
        <ele>162.12</ele>
        <time>2012-02-17T13:36:57Z</time>
      </trkpt>
      <trkpt lat="44.0805" lon="4.14743">
        <ele>161.64</ele>
        <time>2012-02-17T13:36:58Z</time>
      </trkpt>
      <trkpt lat="44.0805" lon="4.14746">
        <ele>161.64</ele>
        <time>2012-02-17T13:36:59Z</time>
      </trkpt>
      <trkpt lat="44.0805" lon="4.1475">
        <ele>161.64</ele>
        <time>2012-02-17T13:37:00Z</time>
      </trkpt>
      <trkpt lat="44.0805" lon="4.14755">
        <ele>161.16</ele>
        <time>2012-02-17T13:37:01Z</time>
      </trkpt>
      <trkpt lat="44.08049" lon="4.1476">
        <ele>160.68</ele>
        <time>2012-02-17T13:37:02Z</time>
      </trkpt>
      <trkpt lat="44.08047" lon="4.14765">
        <ele>161.16</ele>
        <time>2012-02-17T13:37:03Z</time>
      </trkpt>
      <trkpt lat="44.08045" lon="4.14769">
        <ele>160.68</ele>
        <time>2012-02-17T13:37:04Z</time>
      </trkpt>
      <trkpt lat="44.08044" lon="4.14773">
        <ele>160.68</ele>
        <time>2012-02-17T13:37:05Z</time>
      </trkpt>
      <trkpt lat="44.08043" lon="4.14777">
        <ele>160.68</ele>
        <time>2012-02-17T13:37:06Z</time>
      </trkpt>
      <trkpt lat="44.08042" lon="4.14781">
        <ele>160.68</ele>
        <time>2012-02-17T13:37:07Z</time>
      </trkpt>
      <trkpt lat="44.08041" lon="4.14785">
        <ele>160.2</ele>
        <time>2012-02-17T13:37:08Z</time>
      </trkpt>
      <trkpt lat="44.08028" lon="4.14836">
        <ele>157.31</ele>
        <time>2012-02-17T13:37:21Z</time>
      </trkpt>
      <trkpt lat="44.08016" lon="4.14886">
        <ele>154.43</ele>
        <time>2012-02-17T13:37:32Z</time>
      </trkpt>
      <trkpt lat="44.08004" lon="4.14928">
        <ele>152.99</ele>
        <time>2012-02-17T13:37:43Z</time>
      </trkpt>
      <trkpt lat="44.08" lon="4.1494">
        <ele>152.99</ele>
        <time>2012-02-17T13:37:45Z</time>
      </trkpt>
      <trkpt lat="44.07998" lon="4.14947">
        <ele>152.03</ele>
        <time>2012-02-17T13:37:46Z</time>
      </trkpt>
      <trkpt lat="44.07992" lon="4.14966">
        <ele>152.99</ele>
        <time>2012-02-17T13:37:49Z</time>
      </trkpt>
      <trkpt lat="44.07991" lon="4.14972">
        <ele>152.99</ele>
        <time>2012-02-17T13:37:50Z</time>
      </trkpt>
      <trkpt lat="44.0799" lon="4.14977">
        <ele>152.99</ele>
        <time>2012-02-17T13:37:51Z</time>
      </trkpt>
      <trkpt lat="44.07987" lon="4.14982">
        <ele>152.99</ele>
        <time>2012-02-17T13:37:52Z</time>
      </trkpt>
      <trkpt lat="44.07985" lon="4.14986">
        <ele>153.47</ele>
        <time>2012-02-17T13:37:53Z</time>
      </trkpt>
      <trkpt lat="44.07984" lon="4.1499">
        <ele>152.99</ele>
        <time>2012-02-17T13:37:54Z</time>
      </trkpt>
      <trkpt lat="44.07983" lon="4.14994">
        <ele>152.99</ele>
        <time>2012-02-17T13:37:55Z</time>
      </trkpt>
      <trkpt lat="44.07982" lon="4.14998">
        <ele>152.99</ele>
        <time>2012-02-17T13:37:56Z</time>
      </trkpt>
      <trkpt lat="44.07981" lon="4.15002">
        <ele>152.99</ele>
        <time>2012-02-17T13:37:57Z</time>
      </trkpt>
      <trkpt lat="44.07981" lon="4.15007">
        <ele>152.51</ele>
        <time>2012-02-17T13:37:58Z</time>
      </trkpt>
      <trkpt lat="44.0798" lon="4.15011">
        <ele>152.51</ele>
        <time>2012-02-17T13:37:59Z</time>
      </trkpt>
      <trkpt lat="44.07979" lon="4.15015">
        <ele>152.51</ele>
        <time>2012-02-17T13:38:00Z</time>
      </trkpt>
      <trkpt lat="44.07978" lon="4.15019">
        <ele>152.03</ele>
        <time>2012-02-17T13:38:01Z</time>
      </trkpt>
      <trkpt lat="44.07977" lon="4.15024">
        <ele>152.03</ele>
        <time>2012-02-17T13:38:02Z</time>
      </trkpt>
      <trkpt lat="44.07975" lon="4.15028">
        <ele>152.03</ele>
        <time>2012-02-17T13:38:03Z</time>
      </trkpt>
      <trkpt lat="44.07974" lon="4.15033">
        <ele>152.03</ele>
        <time>2012-02-17T13:38:04Z</time>
      </trkpt>
      <trkpt lat="44.07964" lon="4.15064">
        <ele>150.1</ele>
        <time>2012-02-17T13:38:13Z</time>
      </trkpt>
      <trkpt lat="44.07961" lon="4.15063">
        <ele>150.58</ele>
        <time>2012-02-17T13:38:25Z</time>
      </trkpt>
      <trkpt lat="44.07961" lon="4.15063">
        <ele>150.1</ele>
        <time>2012-02-17T13:38:47Z</time>
      </trkpt>
      <trkpt lat="44.0796" lon="4.15063">
        <ele>150.1</ele>
        <time>2012-02-17T13:38:57Z</time>
      </trkpt>
      <trkpt lat="44.07959" lon="4.15062">
        <ele>150.58</ele>
        <time>2012-02-17T13:38:58Z</time>
      </trkpt>
      <trkpt lat="44.07933" lon="4.15039">
        <ele>152.03</ele>
        <time>2012-02-17T13:39:06Z</time>
      </trkpt>
      <trkpt lat="44.07928" lon="4.15035">
        <ele>151.54</ele>
        <time>2012-02-17T13:39:07Z</time>
      </trkpt>
      <trkpt lat="44.07889" lon="4.15004">
        <ele>153.47</ele>
        <time>2012-02-17T13:39:16Z</time>
      </trkpt>
      <trkpt lat="44.07866" lon="4.14983">
        <ele>154.91</ele>
        <time>2012-02-17T13:39:25Z</time>
      </trkpt>
      <trkpt lat="44.07856" lon="4.14978">
        <ele>154.91</ele>
        <time>2012-02-17T13:39:29Z</time>
      </trkpt>
      <trkpt lat="44.07854" lon="4.14976">
        <ele>154.43</ele>
        <time>2012-02-17T13:39:30Z</time>
      </trkpt>
      <trkpt lat="44.07831" lon="4.14958">
        <ele>156.35</ele>
        <time>2012-02-17T13:39:41Z</time>
      </trkpt>
      <trkpt lat="44.0781" lon="4.14937">
        <ele>156.83</ele>
        <time>2012-02-17T13:39:51Z</time>
      </trkpt>
      <trkpt lat="44.07797" lon="4.14928">
        <ele>157.79</ele>
        <time>2012-02-17T13:40:00Z</time>
      </trkpt>
      <trkpt lat="44.07797" lon="4.14928">
        <ele>158.27</ele>
        <time>2012-02-17T13:40:25Z</time>
      </trkpt>
      <trkpt lat="44.07791" lon="4.14923">
        <ele>157.79</ele>
        <time>2012-02-17T13:40:31Z</time>
      </trkpt>
      <trkpt lat="44.07771" lon="4.14909">
        <ele>158.75</ele>
        <time>2012-02-17T13:40:41Z</time>
      </trkpt>
      <trkpt lat="44.07746" lon="4.14888">
        <ele>160.68</ele>
        <time>2012-02-17T13:40:52Z</time>
      </trkpt>
      <trkpt lat="44.07714" lon="4.14861">
        <ele>163.08</ele>
        <time>2012-02-17T13:41:05Z</time>
      </trkpt>
      <trkpt lat="44.07684" lon="4.14839">
        <ele>164.52</ele>
        <time>2012-02-17T13:41:18Z</time>
      </trkpt>
      <trkpt lat="44.07661" lon="4.14819">
        <ele>165.96</ele>
        <time>2012-02-17T13:41:28Z</time>
      </trkpt>
      <trkpt lat="44.07635" lon="4.14797">
        <ele>164.52</ele>
        <time>2012-02-17T13:41:39Z</time>
      </trkpt>
      <trkpt lat="44.07606" lon="4.14777">
        <ele>164.04</ele>
        <time>2012-02-17T13:41:49Z</time>
      </trkpt>
      <trkpt lat="44.07601" lon="4.14772">
        <ele>165</ele>
        <time>2012-02-17T13:41:51Z</time>
      </trkpt>
      <trkpt lat="44.07579" lon="4.14752">
        <ele>166.93</ele>
        <time>2012-02-17T13:42:01Z</time>
      </trkpt>
      <trkpt lat="44.07551" lon="4.14728">
        <ele>168.37</ele>
        <time>2012-02-17T13:42:14Z</time>
      </trkpt>
      <trkpt lat="44.07543" lon="4.14721">
        <ele>168.85</ele>
        <time>2012-02-17T13:42:18Z</time>
      </trkpt>
      <trkpt lat="44.0754" lon="4.14718">
        <ele>169.81</ele>
        <time>2012-02-17T13:42:19Z</time>
      </trkpt>
      <trkpt lat="44.07538" lon="4.14716">
        <ele>169.33</ele>
        <time>2012-02-17T13:42:20Z</time>
      </trkpt>
      <trkpt lat="44.07512" lon="4.14697">
        <ele>170.29</ele>
        <time>2012-02-17T13:42:32Z</time>
      </trkpt>
      <trkpt lat="44.07485" lon="4.14675">
        <ele>169.81</ele>
        <time>2012-02-17T13:42:46Z</time>
      </trkpt>
      <trkpt lat="44.07459" lon="4.14653">
        <ele>170.29</ele>
        <time>2012-02-17T13:42:57Z</time>
      </trkpt>
      <trkpt lat="44.07436" lon="4.14636">
        <ele>172.69</ele>
        <time>2012-02-17T13:43:07Z</time>
      </trkpt>
      <trkpt lat="44.07428" lon="4.1463">
        <ele>172.69</ele>
        <time>2012-02-17T13:43:11Z</time>
      </trkpt>
      <trkpt lat="44.07427" lon="4.14629">
        <ele>172.69</ele>
        <time>2012-02-17T13:43:12Z</time>
      </trkpt>
      <trkpt lat="44.07426" lon="4.1463">
        <ele>173.17</ele>
        <time>2012-02-17T13:43:13Z</time>
      </trkpt>
      <trkpt lat="44.07425" lon="4.14631">
        <ele>172.21</ele>
        <time>2012-02-17T13:43:14Z</time>
      </trkpt>
      <trkpt lat="44.07424" lon="4.14633">
        <ele>173.66</ele>
        <time>2012-02-17T13:43:15Z</time>
      </trkpt>
      <trkpt lat="44.07423" lon="4.14635">
        <ele>173.17</ele>
        <time>2012-02-17T13:43:16Z</time>
      </trkpt>
      <trkpt lat="44.07423" lon="4.14638">
        <ele>172.69</ele>
        <time>2012-02-17T13:43:17Z</time>
      </trkpt>
      <trkpt lat="44.07422" lon="4.1464">
        <ele>172.21</ele>
        <time>2012-02-17T13:43:18Z</time>
      </trkpt>
      <trkpt lat="44.07421" lon="4.14641">
        <ele>172.69</ele>
        <time>2012-02-17T13:43:19Z</time>
      </trkpt>
      <trkpt lat="44.0742" lon="4.14643">
        <ele>172.21</ele>
        <time>2012-02-17T13:43:20Z</time>
      </trkpt>
      <trkpt lat="44.07419" lon="4.14645">
        <ele>171.73</ele>
        <time>2012-02-17T13:43:21Z</time>
      </trkpt>
      <trkpt lat="44.07403" lon="4.14682">
        <ele>169.81</ele>
        <time>2012-02-17T13:43:32Z</time>
      </trkpt>
      <trkpt lat="44.07385" lon="4.1472">
        <ele>166.45</ele>
        <time>2012-02-17T13:43:41Z</time>
      </trkpt>
      <trkpt lat="44.07378" lon="4.14743">
        <ele>165</ele>
        <time>2012-02-17T13:43:46Z</time>
      </trkpt>
      <trkpt lat="44.07359" lon="4.14789">
        <ele>161.64</ele>
        <time>2012-02-17T13:43:57Z</time>
      </trkpt>
      <trkpt lat="44.07353" lon="4.14802">
        <ele>160.2</ele>
        <time>2012-02-17T13:44:00Z</time>
      </trkpt>
      <trkpt lat="44.07351" lon="4.14807">
        <ele>160.2</ele>
        <time>2012-02-17T13:44:01Z</time>
      </trkpt>
      <trkpt lat="44.07344" lon="4.14826">
        <ele>158.27</ele>
        <time>2012-02-17T13:44:04Z</time>
      </trkpt>
      <trkpt lat="44.07341" lon="4.14832">
        <ele>158.27</ele>
        <time>2012-02-17T13:44:05Z</time>
      </trkpt>
      <trkpt lat="44.07335" lon="4.14843">
        <ele>159.24</ele>
        <time>2012-02-17T13:44:08Z</time>
      </trkpt>
      <trkpt lat="44.07333" lon="4.14848">
        <ele>159.24</ele>
        <time>2012-02-17T13:44:09Z</time>
      </trkpt>
      <trkpt lat="44.07332" lon="4.14854">
        <ele>159.24</ele>
        <time>2012-02-17T13:44:11Z</time>
      </trkpt>
      <trkpt lat="44.07332" lon="4.14855">
        <ele>159.72</ele>
        <time>2012-02-17T13:44:23Z</time>
      </trkpt>
      <trkpt lat="44.07331" lon="4.14855">
        <ele>159.24</ele>
        <time>2012-02-17T13:45:00Z</time>
      </trkpt>
      <trkpt lat="44.07331" lon="4.14856">
        <ele>158.75</ele>
        <time>2012-02-17T13:45:38Z</time>
      </trkpt>
      <trkpt lat="44.07332" lon="4.1486">
        <ele>158.75</ele>
        <time>2012-02-17T13:45:44Z</time>
      </trkpt>
      <trkpt lat="44.07333" lon="4.14862">
        <ele>159.24</ele>
        <time>2012-02-17T13:45:45Z</time>
      </trkpt>
      <trkpt lat="44.07334" lon="4.14865">
        <ele>158.75</ele>
        <time>2012-02-17T13:45:46Z</time>
      </trkpt>
      <trkpt lat="44.07356" lon="4.14902">
        <ele>158.27</ele>
        <time>2012-02-17T13:45:56Z</time>
      </trkpt>
      <trkpt lat="44.07362" lon="4.14908">
        <ele>158.75</ele>
        <time>2012-02-17T13:45:58Z</time>
      </trkpt>
      <trkpt lat="44.07372" lon="4.14914">
        <ele>158.27</ele>
        <time>2012-02-17T13:46:01Z</time>
      </trkpt>
      <trkpt lat="44.07376" lon="4.14916">
        <ele>158.27</ele>
        <time>2012-02-17T13:46:02Z</time>
      </trkpt>
      <trkpt lat="44.0738" lon="4.1492">
        <ele>157.31</ele>
        <time>2012-02-17T13:46:03Z</time>
      </trkpt>
      <trkpt lat="44.07383" lon="4.14925">
        <ele>157.31</ele>
        <time>2012-02-17T13:46:04Z</time>
      </trkpt>
      <trkpt lat="44.07386" lon="4.1493">
        <ele>156.35</ele>
        <time>2012-02-17T13:46:05Z</time>
      </trkpt>
      <trkpt lat="44.07391" lon="4.14934">
        <ele>156.83</ele>
        <time>2012-02-17T13:46:06Z</time>
      </trkpt>
      <trkpt lat="44.07395" lon="4.14938">
        <ele>156.35</ele>
        <time>2012-02-17T13:46:07Z</time>
      </trkpt>
      <trkpt lat="44.0741" lon="4.1495">
        <ele>155.39</ele>
        <time>2012-02-17T13:46:10Z</time>
      </trkpt>
      <trkpt lat="44.07414" lon="4.14955">
        <ele>155.39</ele>
        <time>2012-02-17T13:46:11Z</time>
      </trkpt>
      <trkpt lat="44.07422" lon="4.14963">
        <ele>154.43</ele>
        <time>2012-02-17T13:46:13Z</time>
      </trkpt>
      <trkpt lat="44.0743" lon="4.1497">
        <ele>153.95</ele>
        <time>2012-02-17T13:46:15Z</time>
      </trkpt>
      <trkpt lat="44.07444" lon="4.14985">
        <ele>152.51</ele>
        <time>2012-02-17T13:46:19Z</time>
      </trkpt>
      <trkpt lat="44.07446" lon="4.14986">
        <ele>151.54</ele>
        <time>2012-02-17T13:46:20Z</time>
      </trkpt>
      <trkpt lat="44.07448" lon="4.14989">
        <ele>152.03</ele>
        <time>2012-02-17T13:46:21Z</time>
      </trkpt>
      <trkpt lat="44.0745" lon="4.14991">
        <ele>151.54</ele>
        <time>2012-02-17T13:46:22Z</time>
      </trkpt>
      <trkpt lat="44.07453" lon="4.14995">
        <ele>151.54</ele>
        <time>2012-02-17T13:46:23Z</time>
      </trkpt>
      <trkpt lat="44.07457" lon="4.14999">
        <ele>151.54</ele>
        <time>2012-02-17T13:46:24Z</time>
      </trkpt>
      <trkpt lat="44.0746" lon="4.15005">
        <ele>150.58</ele>
        <time>2012-02-17T13:46:25Z</time>
      </trkpt>
      <trkpt lat="44.07464" lon="4.15011">
        <ele>151.54</ele>
        <time>2012-02-17T13:46:26Z</time>
      </trkpt>
      <trkpt lat="44.07471" lon="4.15023">
        <ele>151.54</ele>
        <time>2012-02-17T13:46:28Z</time>
      </trkpt>
      <trkpt lat="44.07475" lon="4.15028">
        <ele>150.58</ele>
        <time>2012-02-17T13:46:29Z</time>
      </trkpt>
      <trkpt lat="44.07477" lon="4.15035">
        <ele>150.58</ele>
        <time>2012-02-17T13:46:30Z</time>
      </trkpt>
      <trkpt lat="44.07478" lon="4.15042">
        <ele>150.1</ele>
        <time>2012-02-17T13:46:31Z</time>
      </trkpt>
      <trkpt lat="44.07479" lon="4.15049">
        <ele>149.14</ele>
        <time>2012-02-17T13:46:32Z</time>
      </trkpt>
      <trkpt lat="44.0748" lon="4.15055">
        <ele>149.14</ele>
        <time>2012-02-17T13:46:33Z</time>
      </trkpt>
      <trkpt lat="44.07482" lon="4.15062">
        <ele>149.62</ele>
        <time>2012-02-17T13:46:34Z</time>
      </trkpt>
      <trkpt lat="44.07483" lon="4.1507">
        <ele>148.66</ele>
        <time>2012-02-17T13:46:35Z</time>
      </trkpt>
      <trkpt lat="44.07485" lon="4.15077">
        <ele>148.66</ele>
        <time>2012-02-17T13:46:36Z</time>
      </trkpt>
      <trkpt lat="44.07487" lon="4.15085">
        <ele>148.66</ele>
        <time>2012-02-17T13:46:37Z</time>
      </trkpt>
      <trkpt lat="44.07489" lon="4.15092">
        <ele>148.18</ele>
        <time>2012-02-17T13:46:38Z</time>
      </trkpt>
      <trkpt lat="44.07492" lon="4.15099">
        <ele>148.18</ele>
        <time>2012-02-17T13:46:39Z</time>
      </trkpt>
      <trkpt lat="44.07499" lon="4.15119">
        <ele>147.7</ele>
        <time>2012-02-17T13:46:42Z</time>
      </trkpt>
      <trkpt lat="44.07501" lon="4.15125">
        <ele>146.74</ele>
        <time>2012-02-17T13:46:43Z</time>
      </trkpt>
      <trkpt lat="44.07503" lon="4.1513">
        <ele>146.74</ele>
        <time>2012-02-17T13:46:44Z</time>
      </trkpt>
      <trkpt lat="44.07507" lon="4.15133">
        <ele>147.22</ele>
        <time>2012-02-17T13:46:45Z</time>
      </trkpt>
      <trkpt lat="44.07511" lon="4.15137">
        <ele>145.78</ele>
        <time>2012-02-17T13:46:46Z</time>
      </trkpt>
      <trkpt lat="44.07515" lon="4.15142">
        <ele>146.26</ele>
        <time>2012-02-17T13:46:47Z</time>
      </trkpt>
      <trkpt lat="44.07519" lon="4.15149">
        <ele>145.78</ele>
        <time>2012-02-17T13:46:48Z</time>
      </trkpt>
      <trkpt lat="44.07523" lon="4.15154">
        <ele>145.3</ele>
        <time>2012-02-17T13:46:49Z</time>
      </trkpt>
      <trkpt lat="44.07531" lon="4.15162">
        <ele>145.3</ele>
        <time>2012-02-17T13:46:51Z</time>
      </trkpt>
      <trkpt lat="44.07535" lon="4.15165">
        <ele>144.82</ele>
        <time>2012-02-17T13:46:52Z</time>
      </trkpt>
      <trkpt lat="44.0754" lon="4.15168">
        <ele>144.34</ele>
        <time>2012-02-17T13:46:53Z</time>
      </trkpt>
      <trkpt lat="44.07543" lon="4.15172">
        <ele>143.85</ele>
        <time>2012-02-17T13:46:54Z</time>
      </trkpt>
      <trkpt lat="44.07546" lon="4.15177">
        <ele>143.85</ele>
        <time>2012-02-17T13:46:55Z</time>
      </trkpt>
      <trkpt lat="44.07549" lon="4.15183">
        <ele>143.37</ele>
        <time>2012-02-17T13:46:56Z</time>
      </trkpt>
      <trkpt lat="44.07551" lon="4.1519">
        <ele>143.37</ele>
        <time>2012-02-17T13:46:57Z</time>
      </trkpt>
      <trkpt lat="44.07554" lon="4.15196">
        <ele>142.89</ele>
        <time>2012-02-17T13:46:58Z</time>
      </trkpt>
      <trkpt lat="44.07557" lon="4.15202">
        <ele>142.89</ele>
        <time>2012-02-17T13:46:59Z</time>
      </trkpt>
      <trkpt lat="44.0756" lon="4.15207">
        <ele>141.93</ele>
        <time>2012-02-17T13:47:00Z</time>
      </trkpt>
      <trkpt lat="44.07564" lon="4.15212">
        <ele>141.45</ele>
        <time>2012-02-17T13:47:01Z</time>
      </trkpt>
      <trkpt lat="44.0757" lon="4.15222">
        <ele>140.49</ele>
        <time>2012-02-17T13:47:03Z</time>
      </trkpt>
      <trkpt lat="44.07574" lon="4.15227">
        <ele>140.01</ele>
        <time>2012-02-17T13:47:04Z</time>
      </trkpt>
      <trkpt lat="44.07577" lon="4.15233">
        <ele>140.01</ele>
        <time>2012-02-17T13:47:05Z</time>
      </trkpt>
      <trkpt lat="44.07594" lon="4.15259">
        <ele>138.57</ele>
        <time>2012-02-17T13:47:11Z</time>
      </trkpt>
      <trkpt lat="44.07596" lon="4.15265">
        <ele>138.09</ele>
        <time>2012-02-17T13:47:12Z</time>
      </trkpt>
      <trkpt lat="44.07599" lon="4.15271">
        <ele>138.09</ele>
        <time>2012-02-17T13:47:13Z</time>
      </trkpt>
      <trkpt lat="44.07608" lon="4.15291">
        <ele>137.13</ele>
        <time>2012-02-17T13:47:16Z</time>
      </trkpt>
      <trkpt lat="44.07618" lon="4.15311">
        <ele>135.68</ele>
        <time>2012-02-17T13:47:19Z</time>
      </trkpt>
      <trkpt lat="44.07622" lon="4.15323">
        <ele>134.24</ele>
        <time>2012-02-17T13:47:21Z</time>
      </trkpt>
      <trkpt lat="44.07623" lon="4.15328">
        <ele>134.24</ele>
        <time>2012-02-17T13:47:22Z</time>
      </trkpt>
      <trkpt lat="44.07623" lon="4.15333">
        <ele>134.24</ele>
        <time>2012-02-17T13:47:23Z</time>
      </trkpt>
      <trkpt lat="44.07622" lon="4.15338">
        <ele>133.28</ele>
        <time>2012-02-17T13:47:24Z</time>
      </trkpt>
      <trkpt lat="44.07621" lon="4.15342">
        <ele>133.28</ele>
        <time>2012-02-17T13:47:25Z</time>
      </trkpt>
      <trkpt lat="44.07616" lon="4.15353">
        <ele>132.32</ele>
        <time>2012-02-17T13:47:34Z</time>
      </trkpt>
      <trkpt lat="44.07617" lon="4.15354">
        <ele>131.84</ele>
        <time>2012-02-17T13:47:44Z</time>
      </trkpt>
      <trkpt lat="44.07619" lon="4.15354">
        <ele>131.84</ele>
        <time>2012-02-17T13:47:45Z</time>
      </trkpt>
      <trkpt lat="44.0762" lon="4.15356">
        <ele>132.32</ele>
        <time>2012-02-17T13:47:46Z</time>
      </trkpt>
      <trkpt lat="44.07622" lon="4.15356">
        <ele>131.84</ele>
        <time>2012-02-17T13:47:47Z</time>
      </trkpt>
      <trkpt lat="44.07624" lon="4.15357">
        <ele>132.32</ele>
        <time>2012-02-17T13:47:48Z</time>
      </trkpt>
      <trkpt lat="44.07636" lon="4.15367">
        <ele>131.36</ele>
        <time>2012-02-17T13:47:59Z</time>
      </trkpt>
      <trkpt lat="44.07639" lon="4.15368">
        <ele>131.36</ele>
        <time>2012-02-17T13:48:00Z</time>
      </trkpt>
      <trkpt lat="44.07676" lon="4.15378">
        <ele>129.92</ele>
        <time>2012-02-17T13:48:10Z</time>
      </trkpt>
      <trkpt lat="44.07679" lon="4.15382">
        <ele>129.92</ele>
        <time>2012-02-17T13:48:11Z</time>
      </trkpt>
      <trkpt lat="44.0768" lon="4.15386">
        <ele>129.43</ele>
        <time>2012-02-17T13:48:12Z</time>
      </trkpt>
      <trkpt lat="44.07679" lon="4.1539">
        <ele>128.95</ele>
        <time>2012-02-17T13:48:13Z</time>
      </trkpt>
      <trkpt lat="44.07673" lon="4.15401">
        <ele>128.95</ele>
        <time>2012-02-17T13:48:15Z</time>
      </trkpt>
      <trkpt lat="44.07667" lon="4.15415">
        <ele>128.47</ele>
        <time>2012-02-17T13:48:17Z</time>
      </trkpt>
      <trkpt lat="44.07656" lon="4.15434">
        <ele>128.47</ele>
        <time>2012-02-17T13:48:24Z</time>
      </trkpt>
      <trkpt lat="44.07651" lon="4.15444">
        <ele>128.47</ele>
        <time>2012-02-17T13:48:27Z</time>
      </trkpt>
      <trkpt lat="44.07631" lon="4.15465">
        <ele>130.88</ele>
        <time>2012-02-17T13:48:34Z</time>
      </trkpt>
      <trkpt lat="44.07625" lon="4.15474">
        <ele>132.32</ele>
        <time>2012-02-17T13:48:37Z</time>
      </trkpt>
      <trkpt lat="44.07623" lon="4.15477">
        <ele>132.32</ele>
        <time>2012-02-17T13:48:38Z</time>
      </trkpt>
      <trkpt lat="44.07605" lon="4.15509">
        <ele>133.28</ele>
        <time>2012-02-17T13:48:48Z</time>
      </trkpt>
      <trkpt lat="44.07591" lon="4.15527">
        <ele>132.8</ele>
        <time>2012-02-17T13:48:53Z</time>
      </trkpt>
      <trkpt lat="44.07581" lon="4.15538">
        <ele>132.32</ele>
        <time>2012-02-17T13:48:56Z</time>
      </trkpt>
      <trkpt lat="44.07577" lon="4.15542">
        <ele>131.84</ele>
        <time>2012-02-17T13:48:57Z</time>
      </trkpt>
      <trkpt lat="44.07574" lon="4.15546">
        <ele>131.36</ele>
        <time>2012-02-17T13:48:58Z</time>
      </trkpt>
      <trkpt lat="44.07567" lon="4.15555">
        <ele>132.32</ele>
        <time>2012-02-17T13:49:00Z</time>
      </trkpt>
      <trkpt lat="44.07564" lon="4.15561">
        <ele>131.36</ele>
        <time>2012-02-17T13:49:01Z</time>
      </trkpt>
      <trkpt lat="44.0756" lon="4.15566">
        <ele>131.36</ele>
        <time>2012-02-17T13:49:02Z</time>
      </trkpt>
      <trkpt lat="44.07541" lon="4.15584">
        <ele>130.88</ele>
        <time>2012-02-17T13:49:07Z</time>
      </trkpt>
      <trkpt lat="44.07529" lon="4.15596">
        <ele>130.4</ele>
        <time>2012-02-17T13:49:10Z</time>
      </trkpt>
      <trkpt lat="44.07511" lon="4.15604">
        <ele>130.4</ele>
        <time>2012-02-17T13:49:15Z</time>
      </trkpt>
      <trkpt lat="44.07484" lon="4.156">
        <ele>130.4</ele>
        <time>2012-02-17T13:49:23Z</time>
      </trkpt>
      <trkpt lat="44.0748" lon="4.15601">
        <ele>130.4</ele>
        <time>2012-02-17T13:49:25Z</time>
      </trkpt>
      <trkpt lat="44.07474" lon="4.156">
        <ele>129.92</ele>
        <time>2012-02-17T13:49:27Z</time>
      </trkpt>
      <trkpt lat="44.07449" lon="4.15603">
        <ele>128.95</ele>
        <time>2012-02-17T13:49:34Z</time>
      </trkpt>
      <trkpt lat="44.07441" lon="4.15602">
        <ele>129.43</ele>
        <time>2012-02-17T13:49:36Z</time>
      </trkpt>
      <trkpt lat="44.07433" lon="4.15602">
        <ele>129.43</ele>
        <time>2012-02-17T13:49:38Z</time>
      </trkpt>
      <trkpt lat="44.07416" lon="4.15589">
        <ele>129.43</ele>
        <time>2012-02-17T13:49:43Z</time>
      </trkpt>
      <trkpt lat="44.07382" lon="4.15577">
        <ele>128.47</ele>
        <time>2012-02-17T13:49:51Z</time>
      </trkpt>
      <trkpt lat="44.07374" lon="4.1558">
        <ele>128.95</ele>
        <time>2012-02-17T13:49:53Z</time>
      </trkpt>
      <trkpt lat="44.07351" lon="4.15579">
        <ele>127.99</ele>
        <time>2012-02-17T13:49:58Z</time>
      </trkpt>
      <trkpt lat="44.07311" lon="4.15575">
        <ele>127.03</ele>
        <time>2012-02-17T13:50:07Z</time>
      </trkpt>
      <trkpt lat="44.07298" lon="4.15577">
        <ele>126.55</ele>
        <time>2012-02-17T13:50:10Z</time>
      </trkpt>
      <trkpt lat="44.07279" lon="4.1558">
        <ele>127.51</ele>
        <time>2012-02-17T13:50:14Z</time>
      </trkpt>
      <trkpt lat="44.07266" lon="4.15588">
        <ele>126.55</ele>
        <time>2012-02-17T13:50:17Z</time>
      </trkpt>
      <trkpt lat="44.07237" lon="4.15638">
        <ele>125.11</ele>
        <time>2012-02-17T13:50:26Z</time>
      </trkpt>
      <trkpt lat="44.07232" lon="4.15639">
        <ele>125.11</ele>
        <time>2012-02-17T13:50:27Z</time>
      </trkpt>
      <trkpt lat="44.07208" lon="4.15644">
        <ele>125.11</ele>
        <time>2012-02-17T13:50:34Z</time>
      </trkpt>
      <trkpt lat="44.07198" lon="4.15633">
        <ele>126.07</ele>
        <time>2012-02-17T13:50:37Z</time>
      </trkpt>
      <trkpt lat="44.07188" lon="4.15622">
        <ele>126.07</ele>
        <time>2012-02-17T13:50:40Z</time>
      </trkpt>
      <trkpt lat="44.07185" lon="4.15618">
        <ele>126.07</ele>
        <time>2012-02-17T13:50:41Z</time>
      </trkpt>
      <trkpt lat="44.07182" lon="4.15614">
        <ele>127.03</ele>
        <time>2012-02-17T13:50:42Z</time>
      </trkpt>
      <trkpt lat="44.0717" lon="4.15599">
        <ele>127.51</ele>
        <time>2012-02-17T13:50:46Z</time>
      </trkpt>
      <trkpt lat="44.07166" lon="4.15597">
        <ele>127.03</ele>
        <time>2012-02-17T13:50:47Z</time>
      </trkpt>
      <trkpt lat="44.07157" lon="4.15601">
        <ele>128.47</ele>
        <time>2012-02-17T13:50:50Z</time>
      </trkpt>
      <trkpt lat="44.07139" lon="4.15606">
        <ele>128.95</ele>
        <time>2012-02-17T13:50:55Z</time>
      </trkpt>
      <trkpt lat="44.07133" lon="4.1561">
        <ele>129.92</ele>
        <time>2012-02-17T13:50:59Z</time>
      </trkpt>
      <trkpt lat="44.0713" lon="4.15621">
        <ele>129.92</ele>
        <time>2012-02-17T13:51:04Z</time>
      </trkpt>
      <trkpt lat="44.07144" lon="4.15658">
        <ele>130.88</ele>
        <time>2012-02-17T13:51:17Z</time>
      </trkpt>
      <trkpt lat="44.07155" lon="4.15709">
        <ele>129.43</ele>
        <time>2012-02-17T13:51:29Z</time>
      </trkpt>
      <trkpt lat="44.07156" lon="4.15714">
        <ele>128.95</ele>
        <time>2012-02-17T13:51:30Z</time>
      </trkpt>
      <trkpt lat="44.07167" lon="4.1575">
        <ele>127.51</ele>
        <time>2012-02-17T13:51:37Z</time>
      </trkpt>
      <trkpt lat="44.07169" lon="4.15755">
        <ele>127.51</ele>
        <time>2012-02-17T13:51:38Z</time>
      </trkpt>
      <trkpt lat="44.07171" lon="4.1576">
        <ele>127.03</ele>
        <time>2012-02-17T13:51:39Z</time>
      </trkpt>
      <trkpt lat="44.0717" lon="4.15765">
        <ele>127.51</ele>
        <time>2012-02-17T13:51:40Z</time>
      </trkpt>
      <trkpt lat="44.07168" lon="4.15769">
        <ele>126.55</ele>
        <time>2012-02-17T13:51:41Z</time>
      </trkpt>
      <trkpt lat="44.07164" lon="4.1577">
        <ele>126.55</ele>
        <time>2012-02-17T13:51:42Z</time>
      </trkpt>
      <trkpt lat="44.0716" lon="4.15771">
        <ele>127.03</ele>
        <time>2012-02-17T13:51:43Z</time>
      </trkpt>
      <trkpt lat="44.07155" lon="4.15772">
        <ele>127.51</ele>
        <time>2012-02-17T13:51:44Z</time>
      </trkpt>
      <trkpt lat="44.07151" lon="4.15774">
        <ele>127.51</ele>
        <time>2012-02-17T13:51:45Z</time>
      </trkpt>
      <trkpt lat="44.07145" lon="4.15775">
        <ele>127.99</ele>
        <time>2012-02-17T13:51:46Z</time>
      </trkpt>
      <trkpt lat="44.07135" lon="4.15776">
        <ele>127.99</ele>
        <time>2012-02-17T13:51:48Z</time>
      </trkpt>
      <trkpt lat="44.0713" lon="4.15777">
        <ele>127.51</ele>
        <time>2012-02-17T13:51:49Z</time>
      </trkpt>
      <trkpt lat="44.07126" lon="4.15779">
        <ele>127.99</ele>
        <time>2012-02-17T13:51:50Z</time>
      </trkpt>
      <trkpt lat="44.07121" lon="4.15782">
        <ele>127.99</ele>
        <time>2012-02-17T13:51:51Z</time>
      </trkpt>
      <trkpt lat="44.07117" lon="4.15784">
        <ele>127.51</ele>
        <time>2012-02-17T13:51:52Z</time>
      </trkpt>
      <trkpt lat="44.07112" lon="4.15787">
        <ele>127.51</ele>
        <time>2012-02-17T13:51:53Z</time>
      </trkpt>
      <trkpt lat="44.07107" lon="4.15791">
        <ele>127.51</ele>
        <time>2012-02-17T13:51:54Z</time>
      </trkpt>
      <trkpt lat="44.07104" lon="4.15798">
        <ele>127.51</ele>
        <time>2012-02-17T13:51:55Z</time>
      </trkpt>
      <trkpt lat="44.07101" lon="4.15806">
        <ele>127.51</ele>
        <time>2012-02-17T13:51:56Z</time>
      </trkpt>
      <trkpt lat="44.0709" lon="4.15833">
        <ele>126.07</ele>
        <time>2012-02-17T13:51:59Z</time>
      </trkpt>
      <trkpt lat="44.07087" lon="4.15843">
        <ele>126.07</ele>
        <time>2012-02-17T13:52:00Z</time>
      </trkpt>
      <trkpt lat="44.07084" lon="4.15853">
        <ele>125.59</ele>
        <time>2012-02-17T13:52:01Z</time>
      </trkpt>
      <trkpt lat="44.07081" lon="4.15862">
        <ele>125.59</ele>
        <time>2012-02-17T13:52:02Z</time>
      </trkpt>
      <trkpt lat="44.07077" lon="4.15868">
        <ele>125.11</ele>
        <time>2012-02-17T13:52:03Z</time>
      </trkpt>
      <trkpt lat="44.07072" lon="4.15871">
        <ele>125.59</ele>
        <time>2012-02-17T13:52:04Z</time>
      </trkpt>
      <trkpt lat="44.07068" lon="4.1587">
        <ele>124.63</ele>
        <time>2012-02-17T13:52:05Z</time>
      </trkpt>
      <trkpt lat="44.07066" lon="4.15866">
        <ele>125.11</ele>
        <time>2012-02-17T13:52:06Z</time>
      </trkpt>
      <trkpt lat="44.07065" lon="4.15864">
        <ele>125.11</ele>
        <time>2012-02-17T13:52:07Z</time>
      </trkpt>
      <trkpt lat="44.07065" lon="4.15862">
        <ele>125.11</ele>
        <time>2012-02-17T13:52:08Z</time>
      </trkpt>
      <trkpt lat="44.07064" lon="4.15858">
        <ele>125.11</ele>
        <time>2012-02-17T13:52:09Z</time>
      </trkpt>
      <trkpt lat="44.07054" lon="4.15839">
        <ele>125.59</ele>
        <time>2012-02-17T13:52:18Z</time>
      </trkpt>
      <trkpt lat="44.07052" lon="4.15835">
        <ele>125.59</ele>
        <time>2012-02-17T13:52:20Z</time>
      </trkpt>
      <trkpt lat="44.0705" lon="4.15833">
        <ele>126.07</ele>
        <time>2012-02-17T13:52:21Z</time>
      </trkpt>
      <trkpt lat="44.07047" lon="4.1583">
        <ele>126.07</ele>
        <time>2012-02-17T13:52:22Z</time>
      </trkpt>
      <trkpt lat="44.07044" lon="4.15825">
        <ele>126.07</ele>
        <time>2012-02-17T13:52:23Z</time>
      </trkpt>
      <trkpt lat="44.07041" lon="4.1582">
        <ele>126.55</ele>
        <time>2012-02-17T13:52:24Z</time>
      </trkpt>
      <trkpt lat="44.07039" lon="4.15814">
        <ele>125.59</ele>
        <time>2012-02-17T13:52:25Z</time>
      </trkpt>
      <trkpt lat="44.07036" lon="4.15808">
        <ele>126.07</ele>
        <time>2012-02-17T13:52:26Z</time>
      </trkpt>
      <trkpt lat="44.07032" lon="4.15803">
        <ele>126.07</ele>
        <time>2012-02-17T13:52:27Z</time>
      </trkpt>
      <trkpt lat="44.07023" lon="4.15795">
        <ele>126.55</ele>
        <time>2012-02-17T13:52:29Z</time>
      </trkpt>
      <trkpt lat="44.07011" lon="4.1578">
        <ele>126.07</ele>
        <time>2012-02-17T13:52:32Z</time>
      </trkpt>
      <trkpt lat="44.06996" lon="4.15768">
        <ele>126.55</ele>
        <time>2012-02-17T13:52:35Z</time>
      </trkpt>
      <trkpt lat="44.06991" lon="4.15763">
        <ele>126.07</ele>
        <time>2012-02-17T13:52:36Z</time>
      </trkpt>
      <trkpt lat="44.06987" lon="4.15757">
        <ele>127.03</ele>
        <time>2012-02-17T13:52:37Z</time>
      </trkpt>
      <trkpt lat="44.06983" lon="4.15751">
        <ele>127.03</ele>
        <time>2012-02-17T13:52:38Z</time>
      </trkpt>
      <trkpt lat="44.0698" lon="4.15745">
        <ele>126.55</ele>
        <time>2012-02-17T13:52:39Z</time>
      </trkpt>
      <trkpt lat="44.06977" lon="4.15739">
        <ele>127.03</ele>
        <time>2012-02-17T13:52:40Z</time>
      </trkpt>
      <trkpt lat="44.06974" lon="4.15734">
        <ele>127.03</ele>
        <time>2012-02-17T13:52:41Z</time>
      </trkpt>
      <trkpt lat="44.06973" lon="4.15729">
        <ele>127.03</ele>
        <time>2012-02-17T13:52:42Z</time>
      </trkpt>
      <trkpt lat="44.06973" lon="4.15725">
        <ele>127.51</ele>
        <time>2012-02-17T13:52:43Z</time>
      </trkpt>
      <trkpt lat="44.06973" lon="4.15719">
        <ele>127.03</ele>
        <time>2012-02-17T13:52:44Z</time>
      </trkpt>
      <trkpt lat="44.06972" lon="4.15714">
        <ele>127.51</ele>
        <time>2012-02-17T13:52:45Z</time>
      </trkpt>
      <trkpt lat="44.06971" lon="4.15709">
        <ele>127.99</ele>
        <time>2012-02-17T13:52:46Z</time>
      </trkpt>
      <trkpt lat="44.06969" lon="4.15705">
        <ele>127.99</ele>
        <time>2012-02-17T13:52:47Z</time>
      </trkpt>
      <trkpt lat="44.06966" lon="4.15702">
        <ele>127.99</ele>
        <time>2012-02-17T13:52:48Z</time>
      </trkpt>
      <trkpt lat="44.06963" lon="4.157">
        <ele>127.99</ele>
        <time>2012-02-17T13:52:49Z</time>
      </trkpt>
      <trkpt lat="44.06936" lon="4.15685">
        <ele>127.51</ele>
        <time>2012-02-17T13:53:00Z</time>
      </trkpt>
      <trkpt lat="44.06923" lon="4.15675">
        <ele>127.51</ele>
        <time>2012-02-17T13:53:10Z</time>
      </trkpt>
      <trkpt lat="44.06897" lon="4.15641">
        <ele>129.43</ele>
        <time>2012-02-17T13:53:23Z</time>
      </trkpt>
      <trkpt lat="44.06865" lon="4.15602">
        <ele>129.43</ele>
        <time>2012-02-17T13:53:36Z</time>
      </trkpt>
      <trkpt lat="44.06842" lon="4.15577">
        <ele>129.92</ele>
        <time>2012-02-17T13:53:46Z</time>
      </trkpt>
      <trkpt lat="44.06814" lon="4.15617">
        <ele>128.95</ele>
        <time>2012-02-17T13:53:58Z</time>
      </trkpt>
      <trkpt lat="44.06794" lon="4.15644">
        <ele>128.47</ele>
        <time>2012-02-17T13:54:05Z</time>
      </trkpt>
      <trkpt lat="44.06791" lon="4.15649">
        <ele>127.51</ele>
        <time>2012-02-17T13:54:06Z</time>
      </trkpt>
      <trkpt lat="44.06788" lon="4.15654">
        <ele>128.47</ele>
        <time>2012-02-17T13:54:07Z</time>
      </trkpt>
      <trkpt lat="44.06776" lon="4.1568">
        <ele>127.51</ele>
        <time>2012-02-17T13:54:12Z</time>
      </trkpt>
      <trkpt lat="44.06774" lon="4.15686">
        <ele>127.99</ele>
        <time>2012-02-17T13:54:13Z</time>
      </trkpt>
      <trkpt lat="44.06772" lon="4.15691">
        <ele>127.99</ele>
        <time>2012-02-17T13:54:14Z</time>
      </trkpt>
      <trkpt lat="44.0677" lon="4.15697">
        <ele>127.99</ele>
        <time>2012-02-17T13:54:15Z</time>
      </trkpt>
      <trkpt lat="44.06768" lon="4.15702">
        <ele>127.99</ele>
        <time>2012-02-17T13:54:16Z</time>
      </trkpt>
      <trkpt lat="44.06761" lon="4.15726">
        <ele>127.99</ele>
        <time>2012-02-17T13:54:20Z</time>
      </trkpt>
      <trkpt lat="44.06758" lon="4.15738">
        <ele>127.99</ele>
        <time>2012-02-17T13:54:22Z</time>
      </trkpt>
      <trkpt lat="44.06757" lon="4.15744">
        <ele>128.47</ele>
        <time>2012-02-17T13:54:23Z</time>
      </trkpt>
      <trkpt lat="44.0675" lon="4.15773">
        <ele>127.51</ele>
        <time>2012-02-17T13:54:28Z</time>
      </trkpt>
      <trkpt lat="44.06749" lon="4.15793">
        <ele>128.47</ele>
        <time>2012-02-17T13:54:31Z</time>
      </trkpt>
      <trkpt lat="44.06749" lon="4.15799">
        <ele>127.51</ele>
        <time>2012-02-17T13:54:32Z</time>
      </trkpt>
      <trkpt lat="44.06751" lon="4.15832">
        <ele>127.99</ele>
        <time>2012-02-17T13:54:37Z</time>
      </trkpt>
      <trkpt lat="44.0675" lon="4.15871">
        <ele>127.99</ele>
        <time>2012-02-17T13:54:43Z</time>
      </trkpt>
      <trkpt lat="44.0675" lon="4.15877">
        <ele>127.51</ele>
        <time>2012-02-17T13:54:44Z</time>
      </trkpt>
      <trkpt lat="44.0675" lon="4.15883">
        <ele>128.47</ele>
        <time>2012-02-17T13:54:45Z</time>
      </trkpt>
      <trkpt lat="44.06749" lon="4.15889">
        <ele>128.47</ele>
        <time>2012-02-17T13:54:46Z</time>
      </trkpt>
      <trkpt lat="44.06749" lon="4.15896">
        <ele>128.47</ele>
        <time>2012-02-17T13:54:47Z</time>
      </trkpt>
      <trkpt lat="44.06749" lon="4.15915">
        <ele>127.51</ele>
        <time>2012-02-17T13:54:50Z</time>
      </trkpt>
      <trkpt lat="44.06749" lon="4.15921">
        <ele>127.03</ele>
        <time>2012-02-17T13:54:51Z</time>
      </trkpt>
      <trkpt lat="44.06755" lon="4.15972">
        <ele>125.59</ele>
        <time>2012-02-17T13:55:00Z</time>
      </trkpt>
      <trkpt lat="44.06756" lon="4.15978">
        <ele>125.59</ele>
        <time>2012-02-17T13:55:01Z</time>
      </trkpt>
      <trkpt lat="44.06757" lon="4.15985">
        <ele>125.59</ele>
        <time>2012-02-17T13:55:02Z</time>
      </trkpt>
      <trkpt lat="44.06765" lon="4.16069">
        <ele>124.63</ele>
        <time>2012-02-17T13:55:15Z</time>
      </trkpt>
      <trkpt lat="44.06767" lon="4.16109">
        <ele>125.11</ele>
        <time>2012-02-17T13:55:21Z</time>
      </trkpt>
      <trkpt lat="44.06766" lon="4.16115">
        <ele>125.11</ele>
        <time>2012-02-17T13:55:22Z</time>
      </trkpt>
      <trkpt lat="44.06764" lon="4.16121">
        <ele>125.11</ele>
        <time>2012-02-17T13:55:23Z</time>
      </trkpt>
      <trkpt lat="44.06763" lon="4.16126">
        <ele>124.63</ele>
        <time>2012-02-17T13:55:24Z</time>
      </trkpt>
      <trkpt lat="44.06761" lon="4.1613">
        <ele>124.63</ele>
        <time>2012-02-17T13:55:25Z</time>
      </trkpt>
      <trkpt lat="44.06759" lon="4.16134">
        <ele>124.63</ele>
        <time>2012-02-17T13:55:26Z</time>
      </trkpt>
      <trkpt lat="44.06756" lon="4.16138">
        <ele>124.63</ele>
        <time>2012-02-17T13:55:27Z</time>
      </trkpt>
      <trkpt lat="44.0675" lon="4.16147">
        <ele>124.15</ele>
        <time>2012-02-17T13:55:29Z</time>
      </trkpt>
      <trkpt lat="44.06748" lon="4.16152">
        <ele>124.63</ele>
        <time>2012-02-17T13:55:30Z</time>
      </trkpt>
      <trkpt lat="44.06749" lon="4.16164">
        <ele>124.15</ele>
        <time>2012-02-17T13:55:32Z</time>
      </trkpt>
      <trkpt lat="44.0675" lon="4.1617">
        <ele>124.15</ele>
        <time>2012-02-17T13:55:33Z</time>
      </trkpt>
      <trkpt lat="44.06752" lon="4.16176">
        <ele>123.67</ele>
        <time>2012-02-17T13:55:34Z</time>
      </trkpt>
      <trkpt lat="44.06754" lon="4.16186">
        <ele>124.15</ele>
        <time>2012-02-17T13:55:36Z</time>
      </trkpt>
      <trkpt lat="44.06757" lon="4.16204">
        <ele>124.63</ele>
        <time>2012-02-17T13:55:39Z</time>
      </trkpt>
      <trkpt lat="44.06758" lon="4.16238">
        <ele>124.15</ele>
        <time>2012-02-17T13:55:44Z</time>
      </trkpt>
      <trkpt lat="44.06759" lon="4.16244">
        <ele>124.63</ele>
        <time>2012-02-17T13:55:45Z</time>
      </trkpt>
      <trkpt lat="44.06766" lon="4.16272">
        <ele>125.11</ele>
        <time>2012-02-17T13:55:50Z</time>
      </trkpt>
      <trkpt lat="44.0678" lon="4.16319">
        <ele>127.99</ele>
        <time>2012-02-17T13:55:57Z</time>
      </trkpt>
      <trkpt lat="44.06781" lon="4.16338">
        <ele>127.51</ele>
        <time>2012-02-17T13:56:00Z</time>
      </trkpt>
      <trkpt lat="44.0678" lon="4.16356">
        <ele>126.07</ele>
        <time>2012-02-17T13:56:03Z</time>
      </trkpt>
      <trkpt lat="44.06775" lon="4.16368">
        <ele>126.07</ele>
        <time>2012-02-17T13:56:05Z</time>
      </trkpt>
      <trkpt lat="44.06754" lon="4.16394">
        <ele>122.71</ele>
        <time>2012-02-17T13:56:11Z</time>
      </trkpt>
      <trkpt lat="44.06747" lon="4.16405">
        <ele>121.74</ele>
        <time>2012-02-17T13:56:13Z</time>
      </trkpt>
      <trkpt lat="44.06744" lon="4.16411">
        <ele>120.78</ele>
        <time>2012-02-17T13:56:14Z</time>
      </trkpt>
      <trkpt lat="44.06733" lon="4.16438">
        <ele>119.34</ele>
        <time>2012-02-17T13:56:18Z</time>
      </trkpt>
      <trkpt lat="44.06722" lon="4.16441">
        <ele>118.38</ele>
        <time>2012-02-17T13:56:22Z</time>
      </trkpt>
      <trkpt lat="44.0671" lon="4.16428">
        <ele>117.42</ele>
        <time>2012-02-17T13:56:29Z</time>
      </trkpt>
      <trkpt lat="44.067" lon="4.16414">
        <ele>117.42</ele>
        <time>2012-02-17T13:56:35Z</time>
      </trkpt>
      <trkpt lat="44.06698" lon="4.16412">
        <ele>117.42</ele>
        <time>2012-02-17T13:56:36Z</time>
      </trkpt>
      <trkpt lat="44.06677" lon="4.16376">
        <ele>114.05</ele>
        <time>2012-02-17T13:56:44Z</time>
      </trkpt>
      <trkpt lat="44.06668" lon="4.16367">
        <ele>112.61</ele>
        <time>2012-02-17T13:56:47Z</time>
      </trkpt>
      <trkpt lat="44.06663" lon="4.16361">
        <ele>112.61</ele>
        <time>2012-02-17T13:56:49Z</time>
      </trkpt>
      <trkpt lat="44.06636" lon="4.16344">
        <ele>111.17</ele>
        <time>2012-02-17T13:56:57Z</time>
      </trkpt>
      <trkpt lat="44.06636" lon="4.16339">
        <ele>111.17</ele>
        <time>2012-02-17T13:56:58Z</time>
      </trkpt>
      <trkpt lat="44.06638" lon="4.16327">
        <ele>111.17</ele>
        <time>2012-02-17T13:57:00Z</time>
      </trkpt>
      <trkpt lat="44.06637" lon="4.16313">
        <ele>111.65</ele>
        <time>2012-02-17T13:57:03Z</time>
      </trkpt>
      <trkpt lat="44.06635" lon="4.16311">
        <ele>112.61</ele>
        <time>2012-02-17T13:57:04Z</time>
      </trkpt>
      <trkpt lat="44.06633" lon="4.1631">
        <ele>112.13</ele>
        <time>2012-02-17T13:57:05Z</time>
      </trkpt>
      <trkpt lat="44.0663" lon="4.16312">
        <ele>112.61</ele>
        <time>2012-02-17T13:57:06Z</time>
      </trkpt>
      <trkpt lat="44.06629" lon="4.16315">
        <ele>111.65</ele>
        <time>2012-02-17T13:57:07Z</time>
      </trkpt>
      <trkpt lat="44.0661" lon="4.16332">
        <ele>113.09</ele>
        <time>2012-02-17T13:57:13Z</time>
      </trkpt>
      <trkpt lat="44.06584" lon="4.16348">
        <ele>114.05</ele>
        <time>2012-02-17T13:57:21Z</time>
      </trkpt>
      <trkpt lat="44.06542" lon="4.16356">
        <ele>115.5</ele>
        <time>2012-02-17T13:57:32Z</time>
      </trkpt>
      <trkpt lat="44.06538" lon="4.16358">
        <ele>115.5</ele>
        <time>2012-02-17T13:57:33Z</time>
      </trkpt>
      <trkpt lat="44.06534" lon="4.1636">
        <ele>115.5</ele>
        <time>2012-02-17T13:57:34Z</time>
      </trkpt>
      <trkpt lat="44.06518" lon="4.16367">
        <ele>115.01</ele>
        <time>2012-02-17T13:57:38Z</time>
      </trkpt>
      <trkpt lat="44.06514" lon="4.16369">
        <ele>115.01</ele>
        <time>2012-02-17T13:57:39Z</time>
      </trkpt>
      <trkpt lat="44.06494" lon="4.16378">
        <ele>115.5</ele>
        <time>2012-02-17T13:57:44Z</time>
      </trkpt>
      <trkpt lat="44.06466" lon="4.16393">
        <ele>115.5</ele>
        <time>2012-02-17T13:57:51Z</time>
      </trkpt>
      <trkpt lat="44.06461" lon="4.16395">
        <ele>115.5</ele>
        <time>2012-02-17T13:57:52Z</time>
      </trkpt>
      <trkpt lat="44.06457" lon="4.16395">
        <ele>115.5</ele>
        <time>2012-02-17T13:57:53Z</time>
      </trkpt>
      <trkpt lat="44.06453" lon="4.16396">
        <ele>115.5</ele>
        <time>2012-02-17T13:57:54Z</time>
      </trkpt>
      <trkpt lat="44.06449" lon="4.16395">
        <ele>115.5</ele>
        <time>2012-02-17T13:57:55Z</time>
      </trkpt>
      <trkpt lat="44.06444" lon="4.16395">
        <ele>115.98</ele>
        <time>2012-02-17T13:57:56Z</time>
      </trkpt>
      <trkpt lat="44.0644" lon="4.16394">
        <ele>115.98</ele>
        <time>2012-02-17T13:57:57Z</time>
      </trkpt>
      <trkpt lat="44.06435" lon="4.16393">
        <ele>115.98</ele>
        <time>2012-02-17T13:57:58Z</time>
      </trkpt>
      <trkpt lat="44.06431" lon="4.16393">
        <ele>115.98</ele>
        <time>2012-02-17T13:57:59Z</time>
      </trkpt>
      <trkpt lat="44.06427" lon="4.16392">
        <ele>115.98</ele>
        <time>2012-02-17T13:58:00Z</time>
      </trkpt>
      <trkpt lat="44.06422" lon="4.16391">
        <ele>115.01</ele>
        <time>2012-02-17T13:58:01Z</time>
      </trkpt>
      <trkpt lat="44.06399" lon="4.16389">
        <ele>116.94</ele>
        <time>2012-02-17T13:58:07Z</time>
      </trkpt>
      <trkpt lat="44.06365" lon="4.16398">
        <ele>117.42</ele>
        <time>2012-02-17T13:58:15Z</time>
      </trkpt>
      <trkpt lat="44.06361" lon="4.164">
        <ele>117.9</ele>
        <time>2012-02-17T13:58:16Z</time>
      </trkpt>
      <trkpt lat="44.06357" lon="4.16401">
        <ele>117.42</ele>
        <time>2012-02-17T13:58:17Z</time>
      </trkpt>
      <trkpt lat="44.06353" lon="4.16402">
        <ele>117.9</ele>
        <time>2012-02-17T13:58:18Z</time>
      </trkpt>
      <trkpt lat="44.06349" lon="4.16403">
        <ele>117.9</ele>
        <time>2012-02-17T13:58:19Z</time>
      </trkpt>
      <trkpt lat="44.06347" lon="4.16403">
        <ele>118.38</ele>
        <time>2012-02-17T13:58:20Z</time>
      </trkpt>
      <trkpt lat="44.06345" lon="4.16404">
        <ele>117.9</ele>
        <time>2012-02-17T13:58:21Z</time>
      </trkpt>
      <trkpt lat="44.06345" lon="4.16406">
        <ele>117.42</ele>
        <time>2012-02-17T13:58:22Z</time>
      </trkpt>
      <trkpt lat="44.06356" lon="4.16405">
        <ele>117.9</ele>
        <time>2012-02-17T13:58:28Z</time>
      </trkpt>
      <trkpt lat="44.06363" lon="4.16403">
        <ele>117.9</ele>
        <time>2012-02-17T13:58:39Z</time>
      </trkpt>
      <trkpt lat="44.06364" lon="4.16402">
        <ele>117.9</ele>
        <time>2012-02-17T13:58:50Z</time>
      </trkpt>
      <trkpt lat="44.06337" lon="4.16404">
        <ele>118.38</ele>
        <time>2012-02-17T13:59:02Z</time>
      </trkpt>
      <trkpt lat="44.06304" lon="4.16423">
        <ele>117.9</ele>
        <time>2012-02-17T13:59:12Z</time>
      </trkpt>
      <trkpt lat="44.06294" lon="4.16432">
        <ele>117.9</ele>
        <time>2012-02-17T13:59:15Z</time>
      </trkpt>
      <trkpt lat="44.0629" lon="4.16434">
        <ele>116.94</ele>
        <time>2012-02-17T13:59:16Z</time>
      </trkpt>
      <trkpt lat="44.06285" lon="4.16436">
        <ele>117.42</ele>
        <time>2012-02-17T13:59:17Z</time>
      </trkpt>
      <trkpt lat="44.06268" lon="4.16439">
        <ele>116.46</ele>
        <time>2012-02-17T13:59:21Z</time>
      </trkpt>
      <trkpt lat="44.06263" lon="4.16439">
        <ele>116.94</ele>
        <time>2012-02-17T13:59:22Z</time>
      </trkpt>
      <trkpt lat="44.06221" lon="4.16442">
        <ele>115.5</ele>
        <time>2012-02-17T13:59:32Z</time>
      </trkpt>
      <trkpt lat="44.06216" lon="4.16443">
        <ele>115.5</ele>
        <time>2012-02-17T13:59:33Z</time>
      </trkpt>
      <trkpt lat="44.06212" lon="4.16444">
        <ele>115.5</ele>
        <time>2012-02-17T13:59:34Z</time>
      </trkpt>
      <trkpt lat="44.06208" lon="4.16445">
        <ele>115.01</ele>
        <time>2012-02-17T13:59:35Z</time>
      </trkpt>
      <trkpt lat="44.06204" lon="4.16447">
        <ele>115.01</ele>
        <time>2012-02-17T13:59:36Z</time>
      </trkpt>
      <trkpt lat="44.062" lon="4.16449">
        <ele>115.01</ele>
        <time>2012-02-17T13:59:37Z</time>
      </trkpt>
      <trkpt lat="44.06196" lon="4.16451">
        <ele>115.01</ele>
        <time>2012-02-17T13:59:38Z</time>
      </trkpt>
      <trkpt lat="44.06183" lon="4.16461">
        <ele>114.05</ele>
        <time>2012-02-17T13:59:42Z</time>
      </trkpt>
      <trkpt lat="44.0618" lon="4.1646">
        <ele>113.57</ele>
        <time>2012-02-17T13:59:43Z</time>
      </trkpt>
      <trkpt lat="44.06178" lon="4.16458">
        <ele>113.57</ele>
        <time>2012-02-17T13:59:44Z</time>
      </trkpt>
      <trkpt lat="44.06176" lon="4.16455">
        <ele>113.57</ele>
        <time>2012-02-17T13:59:45Z</time>
      </trkpt>
      <trkpt lat="44.06175" lon="4.16452">
        <ele>113.57</ele>
        <time>2012-02-17T13:59:46Z</time>
      </trkpt>
      <trkpt lat="44.06174" lon="4.16449">
        <ele>113.57</ele>
        <time>2012-02-17T13:59:47Z</time>
      </trkpt>
      <trkpt lat="44.06172" lon="4.16447">
        <ele>114.53</ele>
        <time>2012-02-17T13:59:48Z</time>
      </trkpt>
      <trkpt lat="44.06171" lon="4.16444">
        <ele>114.05</ele>
        <time>2012-02-17T13:59:49Z</time>
      </trkpt>
      <trkpt lat="44.0617" lon="4.16441">
        <ele>114.05</ele>
        <time>2012-02-17T13:59:50Z</time>
      </trkpt>
      <trkpt lat="44.06169" lon="4.16437">
        <ele>114.05</ele>
        <time>2012-02-17T13:59:51Z</time>
      </trkpt>
      <trkpt lat="44.06169" lon="4.16434">
        <ele>115.01</ele>
        <time>2012-02-17T13:59:52Z</time>
      </trkpt>
      <trkpt lat="44.06167" lon="4.16431">
        <ele>115.01</ele>
        <time>2012-02-17T13:59:53Z</time>
      </trkpt>
      <trkpt lat="44.06166" lon="4.16429">
        <ele>115.5</ele>
        <time>2012-02-17T13:59:54Z</time>
      </trkpt>
      <trkpt lat="44.06164" lon="4.16427">
        <ele>115.5</ele>
        <time>2012-02-17T13:59:55Z</time>
      </trkpt>
      <trkpt lat="44.06162" lon="4.16424">
        <ele>115.5</ele>
        <time>2012-02-17T13:59:56Z</time>
      </trkpt>
      <trkpt lat="44.06136" lon="4.16388">
        <ele>115.5</ele>
        <time>2012-02-17T14:00:09Z</time>
      </trkpt>
      <trkpt lat="44.06126" lon="4.16365">
        <ele>116.94</ele>
        <time>2012-02-17T14:00:16Z</time>
      </trkpt>
      <trkpt lat="44.06127" lon="4.16361">
        <ele>115.98</ele>
        <time>2012-02-17T14:00:17Z</time>
      </trkpt>
      <trkpt lat="44.06128" lon="4.16358">
        <ele>116.46</ele>
        <time>2012-02-17T14:00:18Z</time>
      </trkpt>
      <trkpt lat="44.06129" lon="4.16355">
        <ele>116.94</ele>
        <time>2012-02-17T14:00:19Z</time>
      </trkpt>
      <trkpt lat="44.0613" lon="4.1635">
        <ele>116.46</ele>
        <time>2012-02-17T14:00:20Z</time>
      </trkpt>
      <trkpt lat="44.0613" lon="4.16346">
        <ele>117.9</ele>
        <time>2012-02-17T14:00:21Z</time>
      </trkpt>
      <trkpt lat="44.06129" lon="4.16297">
        <ele>118.86</ele>
        <time>2012-02-17T14:00:34Z</time>
      </trkpt>
      <trkpt lat="44.06118" lon="4.16255">
        <ele>119.82</ele>
        <time>2012-02-17T14:00:45Z</time>
      </trkpt>
      <trkpt lat="44.06104" lon="4.16225">
        <ele>119.34</ele>
        <time>2012-02-17T14:00:55Z</time>
      </trkpt>
      <trkpt lat="44.06097" lon="4.16189">
        <ele>120.3</ele>
        <time>2012-02-17T14:01:05Z</time>
      </trkpt>
      <trkpt lat="44.06099" lon="4.16175">
        <ele>120.78</ele>
        <time>2012-02-17T14:01:09Z</time>
      </trkpt>
      <trkpt lat="44.06101" lon="4.16172">
        <ele>120.78</ele>
        <time>2012-02-17T14:01:10Z</time>
      </trkpt>
      <trkpt lat="44.06104" lon="4.16171">
        <ele>120.78</ele>
        <time>2012-02-17T14:01:11Z</time>
      </trkpt>
      <trkpt lat="44.06105" lon="4.16168">
        <ele>121.26</ele>
        <time>2012-02-17T14:01:12Z</time>
      </trkpt>
      <trkpt lat="44.06107" lon="4.16165">
        <ele>121.26</ele>
        <time>2012-02-17T14:01:13Z</time>
      </trkpt>
      <trkpt lat="44.06107" lon="4.16161">
        <ele>121.26</ele>
        <time>2012-02-17T14:01:14Z</time>
      </trkpt>
      <trkpt lat="44.06108" lon="4.16158">
        <ele>121.26</ele>
        <time>2012-02-17T14:01:15Z</time>
      </trkpt>
      <trkpt lat="44.06108" lon="4.16155">
        <ele>121.26</ele>
        <time>2012-02-17T14:01:16Z</time>
      </trkpt>
      <trkpt lat="44.06108" lon="4.16152">
        <ele>121.74</ele>
        <time>2012-02-17T14:01:17Z</time>
      </trkpt>
      <trkpt lat="44.06109" lon="4.1615">
        <ele>121.74</ele>
        <time>2012-02-17T14:01:18Z</time>
      </trkpt>
      <trkpt lat="44.06109" lon="4.16147">
        <ele>121.74</ele>
        <time>2012-02-17T14:01:19Z</time>
      </trkpt>
      <trkpt lat="44.06108" lon="4.16144">
        <ele>121.26</ele>
        <time>2012-02-17T14:01:20Z</time>
      </trkpt>
      <trkpt lat="44.06109" lon="4.16141">
        <ele>121.26</ele>
        <time>2012-02-17T14:01:21Z</time>
      </trkpt>
      <trkpt lat="44.0611" lon="4.16138">
        <ele>121.26</ele>
        <time>2012-02-17T14:01:22Z</time>
      </trkpt>
      <trkpt lat="44.06116" lon="4.16123">
        <ele>123.19</ele>
        <time>2012-02-17T14:01:28Z</time>
      </trkpt>
      <trkpt lat="44.06116" lon="4.1612">
        <ele>122.71</ele>
        <time>2012-02-17T14:01:29Z</time>
      </trkpt>
      <trkpt lat="44.06116" lon="4.16117">
        <ele>122.71</ele>
        <time>2012-02-17T14:01:30Z</time>
      </trkpt>
      <trkpt lat="44.06117" lon="4.16114">
        <ele>123.19</ele>
        <time>2012-02-17T14:01:31Z</time>
      </trkpt>
      <trkpt lat="44.06118" lon="4.16111">
        <ele>123.19</ele>
        <time>2012-02-17T14:01:32Z</time>
      </trkpt>
      <trkpt lat="44.06119" lon="4.16108">
        <ele>123.67</ele>
        <time>2012-02-17T14:01:33Z</time>
      </trkpt>
      <trkpt lat="44.06121" lon="4.16105">
        <ele>123.19</ele>
        <time>2012-02-17T14:01:34Z</time>
      </trkpt>
      <trkpt lat="44.06123" lon="4.16102">
        <ele>124.15</ele>
        <time>2012-02-17T14:01:35Z</time>
      </trkpt>
      <trkpt lat="44.06124" lon="4.16099">
        <ele>123.67</ele>
        <time>2012-02-17T14:01:36Z</time>
      </trkpt>
      <trkpt lat="44.06126" lon="4.16096">
        <ele>124.15</ele>
        <time>2012-02-17T14:01:37Z</time>
      </trkpt>
      <trkpt lat="44.06127" lon="4.16093">
        <ele>124.15</ele>
        <time>2012-02-17T14:01:38Z</time>
      </trkpt>
      <trkpt lat="44.06127" lon="4.16078">
        <ele>124.63</ele>
        <time>2012-02-17T14:01:42Z</time>
      </trkpt>
      <trkpt lat="44.06125" lon="4.16072">
        <ele>125.59</ele>
        <time>2012-02-17T14:01:44Z</time>
      </trkpt>
      <trkpt lat="44.06126" lon="4.16069">
        <ele>125.59</ele>
        <time>2012-02-17T14:01:45Z</time>
      </trkpt>
      <trkpt lat="44.06127" lon="4.16067">
        <ele>127.03</ele>
        <time>2012-02-17T14:01:46Z</time>
      </trkpt>
      <trkpt lat="44.06128" lon="4.16063">
        <ele>126.55</ele>
        <time>2012-02-17T14:01:47Z</time>
      </trkpt>
      <trkpt lat="44.0613" lon="4.16058">
        <ele>127.51</ele>
        <time>2012-02-17T14:01:50Z</time>
      </trkpt>
      <trkpt lat="44.06131" lon="4.16056">
        <ele>127.99</ele>
        <time>2012-02-17T14:01:51Z</time>
      </trkpt>
      <trkpt lat="44.06132" lon="4.16055">
        <ele>127.99</ele>
        <time>2012-02-17T14:01:52Z</time>
      </trkpt>
      <trkpt lat="44.06137" lon="4.16048">
        <ele>128.95</ele>
        <time>2012-02-17T14:01:56Z</time>
      </trkpt>
      <trkpt lat="44.06138" lon="4.16047">
        <ele>128.95</ele>
        <time>2012-02-17T14:01:57Z</time>
      </trkpt>
      <trkpt lat="44.0614" lon="4.16044">
        <ele>129.43</ele>
        <time>2012-02-17T14:01:58Z</time>
      </trkpt>
      <trkpt lat="44.06141" lon="4.16042">
        <ele>128.95</ele>
        <time>2012-02-17T14:01:59Z</time>
      </trkpt>
      <trkpt lat="44.06142" lon="4.1604">
        <ele>129.43</ele>
        <time>2012-02-17T14:02:00Z</time>
      </trkpt>
      <trkpt lat="44.06143" lon="4.16038">
        <ele>129.43</ele>
        <time>2012-02-17T14:02:01Z</time>
      </trkpt>
      <trkpt lat="44.06144" lon="4.16036">
        <ele>130.4</ele>
        <time>2012-02-17T14:02:02Z</time>
      </trkpt>
      <trkpt lat="44.06145" lon="4.16033">
        <ele>130.88</ele>
        <time>2012-02-17T14:02:03Z</time>
      </trkpt>
      <trkpt lat="44.06146" lon="4.16031">
        <ele>130.88</ele>
        <time>2012-02-17T14:02:04Z</time>
      </trkpt>
      <trkpt lat="44.06147" lon="4.16028">
        <ele>131.36</ele>
        <time>2012-02-17T14:02:05Z</time>
      </trkpt>
      <trkpt lat="44.06148" lon="4.16025">
        <ele>131.36</ele>
        <time>2012-02-17T14:02:06Z</time>
      </trkpt>
      <trkpt lat="44.06149" lon="4.16023">
        <ele>131.36</ele>
        <time>2012-02-17T14:02:07Z</time>
      </trkpt>
      <trkpt lat="44.06155" lon="4.16013">
        <ele>132.8</ele>
        <time>2012-02-17T14:02:12Z</time>
      </trkpt>
      <trkpt lat="44.06156" lon="4.16011">
        <ele>132.8</ele>
        <time>2012-02-17T14:02:13Z</time>
      </trkpt>
      <trkpt lat="44.06157" lon="4.1601">
        <ele>132.32</ele>
        <time>2012-02-17T14:02:14Z</time>
      </trkpt>
      <trkpt lat="44.06158" lon="4.16009">
        <ele>132.32</ele>
        <time>2012-02-17T14:02:15Z</time>
      </trkpt>
      <trkpt lat="44.06159" lon="4.16007">
        <ele>132.8</ele>
        <time>2012-02-17T14:02:16Z</time>
      </trkpt>
      <trkpt lat="44.06161" lon="4.16006">
        <ele>132.8</ele>
        <time>2012-02-17T14:02:17Z</time>
      </trkpt>
      <trkpt lat="44.06162" lon="4.16005">
        <ele>133.28</ele>
        <time>2012-02-17T14:02:18Z</time>
      </trkpt>
      <trkpt lat="44.06175" lon="4.1599">
        <ele>133.76</ele>
        <time>2012-02-17T14:02:28Z</time>
      </trkpt>
      <trkpt lat="44.06176" lon="4.15989">
        <ele>134.24</ele>
        <time>2012-02-17T14:02:29Z</time>
      </trkpt>
      <trkpt lat="44.06176" lon="4.15987">
        <ele>134.24</ele>
        <time>2012-02-17T14:02:30Z</time>
      </trkpt>
      <trkpt lat="44.06177" lon="4.15985">
        <ele>133.76</ele>
        <time>2012-02-17T14:02:31Z</time>
      </trkpt>
      <trkpt lat="44.06178" lon="4.15983">
        <ele>133.76</ele>
        <time>2012-02-17T14:02:32Z</time>
      </trkpt>
      <trkpt lat="44.0618" lon="4.15982">
        <ele>134.24</ele>
        <time>2012-02-17T14:02:33Z</time>
      </trkpt>
      <trkpt lat="44.06195" lon="4.15966">
        <ele>137.13</ele>
        <time>2012-02-17T14:02:43Z</time>
      </trkpt>
      <trkpt lat="44.06208" lon="4.15955">
        <ele>138.57</ele>
        <time>2012-02-17T14:02:53Z</time>
      </trkpt>
      <trkpt lat="44.06209" lon="4.15953">
        <ele>138.57</ele>
        <time>2012-02-17T14:02:54Z</time>
      </trkpt>
      <trkpt lat="44.06215" lon="4.15935">
        <ele>140.97</ele>
        <time>2012-02-17T14:03:02Z</time>
      </trkpt>
      <trkpt lat="44.06216" lon="4.15934">
        <ele>141.45</ele>
        <time>2012-02-17T14:03:03Z</time>
      </trkpt>
      <trkpt lat="44.06217" lon="4.15932">
        <ele>140.97</ele>
        <time>2012-02-17T14:03:04Z</time>
      </trkpt>
      <trkpt lat="44.06218" lon="4.1593">
        <ele>140.97</ele>
        <time>2012-02-17T14:03:05Z</time>
      </trkpt>
      <trkpt lat="44.06219" lon="4.15928">
        <ele>140.97</ele>
        <time>2012-02-17T14:03:06Z</time>
      </trkpt>
      <trkpt lat="44.0622" lon="4.15926">
        <ele>140.97</ele>
        <time>2012-02-17T14:03:07Z</time>
      </trkpt>
      <trkpt lat="44.06224" lon="4.15913">
        <ele>142.41</ele>
        <time>2012-02-17T14:03:13Z</time>
      </trkpt>
      <trkpt lat="44.06224" lon="4.1591">
        <ele>142.89</ele>
        <time>2012-02-17T14:03:14Z</time>
      </trkpt>
      <trkpt lat="44.06224" lon="4.15907">
        <ele>142.89</ele>
        <time>2012-02-17T14:03:15Z</time>
      </trkpt>
      <trkpt lat="44.06225" lon="4.15895">
        <ele>145.3</ele>
        <time>2012-02-17T14:03:26Z</time>
      </trkpt>
      <trkpt lat="44.06224" lon="4.15895">
        <ele>145.3</ele>
        <time>2012-02-17T14:03:38Z</time>
      </trkpt>
      <trkpt lat="44.06221" lon="4.15896">
        <ele>144.34</ele>
        <time>2012-02-17T14:03:42Z</time>
      </trkpt>
      <trkpt lat="44.0622" lon="4.15897">
        <ele>144.82</ele>
        <time>2012-02-17T14:03:43Z</time>
      </trkpt>
      <trkpt lat="44.06212" lon="4.15899">
        <ele>145.3</ele>
        <time>2012-02-17T14:03:48Z</time>
      </trkpt>
      <trkpt lat="44.06204" lon="4.15902">
        <ele>144.82</ele>
        <time>2012-02-17T14:03:54Z</time>
      </trkpt>
      <trkpt lat="44.06201" lon="4.15908">
        <ele>144.34</ele>
        <time>2012-02-17T14:03:58Z</time>
      </trkpt>
      <trkpt lat="44.06198" lon="4.15911">
        <ele>143.85</ele>
        <time>2012-02-17T14:04:15Z</time>
      </trkpt>
      <trkpt lat="44.06198" lon="4.15911">
        <ele>143.37</ele>
        <time>2012-02-17T14:04:42Z</time>
      </trkpt>
      <trkpt lat="44.06198" lon="4.15911">
        <ele>143.37</ele>
        <time>2012-02-17T14:05:12Z</time>
      </trkpt>
      <trkpt lat="44.06196" lon="4.15914">
        <ele>143.37</ele>
        <time>2012-02-17T14:05:22Z</time>
      </trkpt>
      <trkpt lat="44.06175" lon="4.15934">
        <ele>140.01</ele>
        <time>2012-02-17T14:05:29Z</time>
      </trkpt>
      <trkpt lat="44.06171" lon="4.15933">
        <ele>139.53</ele>
        <time>2012-02-17T14:05:30Z</time>
      </trkpt>
      <trkpt lat="44.06166" lon="4.15931">
        <ele>139.05</ele>
        <time>2012-02-17T14:05:31Z</time>
      </trkpt>
      <trkpt lat="44.06161" lon="4.15927">
        <ele>138.09</ele>
        <time>2012-02-17T14:05:32Z</time>
      </trkpt>
      <trkpt lat="44.0614" lon="4.15914">
        <ele>136.64</ele>
        <time>2012-02-17T14:05:36Z</time>
      </trkpt>
      <trkpt lat="44.06109" lon="4.1589">
        <ele>135.68</ele>
        <time>2012-02-17T14:05:46Z</time>
      </trkpt>
      <trkpt lat="44.06106" lon="4.1589">
        <ele>135.2</ele>
        <time>2012-02-17T14:05:47Z</time>
      </trkpt>
      <trkpt lat="44.06087" lon="4.15899">
        <ele>132.32</ele>
        <time>2012-02-17T14:05:54Z</time>
      </trkpt>
      <trkpt lat="44.06086" lon="4.15875">
        <ele>132.8</ele>
        <time>2012-02-17T14:06:03Z</time>
      </trkpt>
      <trkpt lat="44.06073" lon="4.15845">
        <ele>133.28</ele>
        <time>2012-02-17T14:06:10Z</time>
      </trkpt>
      <trkpt lat="44.06061" lon="4.15833">
        <ele>132.32</ele>
        <time>2012-02-17T14:06:15Z</time>
      </trkpt>
      <trkpt lat="44.06036" lon="4.15831">
        <ele>133.28</ele>
        <time>2012-02-17T14:06:24Z</time>
      </trkpt>
      <trkpt lat="44.06024" lon="4.15829">
        <ele>133.76</ele>
        <time>2012-02-17T14:06:28Z</time>
      </trkpt>
      <trkpt lat="44.06005" lon="4.15828">
        <ele>133.76</ele>
        <time>2012-02-17T14:06:34Z</time>
      </trkpt>
      <trkpt lat="44.05993" lon="4.15827">
        <ele>133.76</ele>
        <time>2012-02-17T14:06:42Z</time>
      </trkpt>
      <trkpt lat="44.05986" lon="4.15823">
        <ele>134.24</ele>
        <time>2012-02-17T14:06:45Z</time>
      </trkpt>
      <trkpt lat="44.05969" lon="4.1582">
        <ele>134.72</ele>
        <time>2012-02-17T14:06:51Z</time>
      </trkpt>
      <trkpt lat="44.05955" lon="4.15819">
        <ele>135.2</ele>
        <time>2012-02-17T14:06:55Z</time>
      </trkpt>
      <trkpt lat="44.05945" lon="4.15832">
        <ele>135.2</ele>
        <time>2012-02-17T14:06:59Z</time>
      </trkpt>
      <trkpt lat="44.05931" lon="4.15859">
        <ele>134.24</ele>
        <time>2012-02-17T14:07:05Z</time>
      </trkpt>
      <trkpt lat="44.05908" lon="4.15878">
        <ele>135.2</ele>
        <time>2012-02-17T14:07:12Z</time>
      </trkpt>
      <trkpt lat="44.05887" lon="4.15877">
        <ele>135.2</ele>
        <time>2012-02-17T14:07:19Z</time>
      </trkpt>
      <trkpt lat="44.05845" lon="4.1586">
        <ele>137.13</ele>
        <time>2012-02-17T14:07:32Z</time>
      </trkpt>
      <trkpt lat="44.05818" lon="4.15843">
        <ele>138.57</ele>
        <time>2012-02-17T14:07:43Z</time>
      </trkpt>
      <trkpt lat="44.05814" lon="4.15841">
        <ele>138.57</ele>
        <time>2012-02-17T14:07:47Z</time>
      </trkpt>
      <trkpt lat="44.05803" lon="4.15834">
        <ele>140.97</ele>
        <time>2012-02-17T14:07:52Z</time>
      </trkpt>
      <trkpt lat="44.05801" lon="4.15835">
        <ele>140.97</ele>
        <time>2012-02-17T14:07:53Z</time>
      </trkpt>
      <trkpt lat="44.05765" lon="4.15841">
        <ele>141.93</ele>
        <time>2012-02-17T14:08:07Z</time>
      </trkpt>
      <trkpt lat="44.05764" lon="4.15841">
        <ele>141.93</ele>
        <time>2012-02-17T14:08:08Z</time>
      </trkpt>
      <trkpt lat="44.05745" lon="4.15826">
        <ele>143.85</ele>
        <time>2012-02-17T14:08:17Z</time>
      </trkpt>
      <trkpt lat="44.0574" lon="4.15823">
        <ele>144.82</ele>
        <time>2012-02-17T14:08:19Z</time>
      </trkpt>
      <trkpt lat="44.05712" lon="4.15806">
        <ele>145.78</ele>
        <time>2012-02-17T14:08:32Z</time>
      </trkpt>
      <trkpt lat="44.05696" lon="4.15798">
        <ele>147.22</ele>
        <time>2012-02-17T14:08:40Z</time>
      </trkpt>
      <trkpt lat="44.0568" lon="4.15767">
        <ele>149.14</ele>
        <time>2012-02-17T14:08:52Z</time>
      </trkpt>
      <trkpt lat="44.05653" lon="4.15743">
        <ele>150.1</ele>
        <time>2012-02-17T14:09:05Z</time>
      </trkpt>
      <trkpt lat="44.05656" lon="4.15735">
        <ele>150.58</ele>
        <time>2012-02-17T14:09:15Z</time>
      </trkpt>
      <trkpt lat="44.05655" lon="4.15735">
        <ele>150.1</ele>
        <time>2012-02-17T14:09:27Z</time>
      </trkpt>
      <trkpt lat="44.05651" lon="4.15739">
        <ele>151.06</ele>
        <time>2012-02-17T14:09:31Z</time>
      </trkpt>
      <trkpt lat="44.05631" lon="4.15757">
        <ele>151.54</ele>
        <time>2012-02-17T14:09:43Z</time>
      </trkpt>
      <trkpt lat="44.05624" lon="4.15754">
        <ele>151.06</ele>
        <time>2012-02-17T14:09:55Z</time>
      </trkpt>
      <trkpt lat="44.05624" lon="4.15755">
        <ele>151.06</ele>
        <time>2012-02-17T14:10:07Z</time>
      </trkpt>
      <trkpt lat="44.05619" lon="4.15766">
        <ele>151.06</ele>
        <time>2012-02-17T14:10:13Z</time>
      </trkpt>
      <trkpt lat="44.05592" lon="4.15793">
        <ele>150.1</ele>
        <time>2012-02-17T14:10:26Z</time>
      </trkpt>
      <trkpt lat="44.05563" lon="4.15828">
        <ele>148.66</ele>
        <time>2012-02-17T14:10:38Z</time>
      </trkpt>
      <trkpt lat="44.05525" lon="4.15885">
        <ele>146.74</ele>
        <time>2012-02-17T14:10:51Z</time>
      </trkpt>
      <trkpt lat="44.05519" lon="4.15894">
        <ele>146.74</ele>
        <time>2012-02-17T14:10:53Z</time>
      </trkpt>
      <trkpt lat="44.05516" lon="4.15898">
        <ele>146.26</ele>
        <time>2012-02-17T14:10:54Z</time>
      </trkpt>
      <trkpt lat="44.05513" lon="4.15903">
        <ele>146.26</ele>
        <time>2012-02-17T14:10:55Z</time>
      </trkpt>
      <trkpt lat="44.05509" lon="4.15908">
        <ele>145.78</ele>
        <time>2012-02-17T14:10:56Z</time>
      </trkpt>
      <trkpt lat="44.05506" lon="4.15913">
        <ele>146.26</ele>
        <time>2012-02-17T14:10:57Z</time>
      </trkpt>
      <trkpt lat="44.05461" lon="4.15979">
        <ele>146.26</ele>
        <time>2012-02-17T14:11:12Z</time>
      </trkpt>
      <trkpt lat="44.05419" lon="4.16025">
        <ele>145.78</ele>
        <time>2012-02-17T14:11:26Z</time>
      </trkpt>
      <trkpt lat="44.05413" lon="4.16029">
        <ele>145.78</ele>
        <time>2012-02-17T14:11:29Z</time>
      </trkpt>
      <trkpt lat="44.05412" lon="4.1603">
        <ele>145.78</ele>
        <time>2012-02-17T14:11:30Z</time>
      </trkpt>
      <trkpt lat="44.05411" lon="4.16032">
        <ele>145.78</ele>
        <time>2012-02-17T14:11:31Z</time>
      </trkpt>
      <trkpt lat="44.05409" lon="4.16035">
        <ele>145.3</ele>
        <time>2012-02-17T14:11:32Z</time>
      </trkpt>
      <trkpt lat="44.05406" lon="4.16038">
        <ele>145.3</ele>
        <time>2012-02-17T14:11:33Z</time>
      </trkpt>
      <trkpt lat="44.05403" lon="4.1604">
        <ele>146.26</ele>
        <time>2012-02-17T14:11:34Z</time>
      </trkpt>
      <trkpt lat="44.054" lon="4.16043">
        <ele>145.78</ele>
        <time>2012-02-17T14:11:35Z</time>
      </trkpt>
      <trkpt lat="44.05355" lon="4.16076">
        <ele>147.22</ele>
        <time>2012-02-17T14:11:48Z</time>
      </trkpt>
      <trkpt lat="44.05336" lon="4.1609">
        <ele>146.74</ele>
        <time>2012-02-17T14:11:53Z</time>
      </trkpt>
      <trkpt lat="44.05319" lon="4.16106">
        <ele>148.18</ele>
        <time>2012-02-17T14:11:58Z</time>
      </trkpt>
      <trkpt lat="44.0528" lon="4.16152">
        <ele>147.7</ele>
        <time>2012-02-17T14:12:10Z</time>
      </trkpt>
      <trkpt lat="44.05227" lon="4.16212">
        <ele>149.14</ele>
        <time>2012-02-17T14:12:27Z</time>
      </trkpt>
      <trkpt lat="44.05188" lon="4.16259">
        <ele>151.06</ele>
        <time>2012-02-17T14:12:40Z</time>
      </trkpt>
      <trkpt lat="44.05161" lon="4.16286">
        <ele>150.58</ele>
        <time>2012-02-17T14:12:49Z</time>
      </trkpt>
      <trkpt lat="44.05147" lon="4.16319">
        <ele>152.03</ele>
        <time>2012-02-17T14:12:56Z</time>
      </trkpt>
      <trkpt lat="44.05144" lon="4.16324">
        <ele>152.03</ele>
        <time>2012-02-17T14:12:57Z</time>
      </trkpt>
      <trkpt lat="44.05142" lon="4.1633">
        <ele>152.51</ele>
        <time>2012-02-17T14:12:58Z</time>
      </trkpt>
      <trkpt lat="44.0512" lon="4.1638">
        <ele>152.03</ele>
        <time>2012-02-17T14:13:09Z</time>
      </trkpt>
      <trkpt lat="44.05094" lon="4.16422">
        <ele>150.58</ele>
        <time>2012-02-17T14:13:19Z</time>
      </trkpt>
      <trkpt lat="44.0508" lon="4.16441">
        <ele>151.06</ele>
        <time>2012-02-17T14:13:24Z</time>
      </trkpt>
      <trkpt lat="44.05076" lon="4.16445">
        <ele>151.06</ele>
        <time>2012-02-17T14:13:25Z</time>
      </trkpt>
      <trkpt lat="44.05072" lon="4.1645">
        <ele>151.06</ele>
        <time>2012-02-17T14:13:26Z</time>
      </trkpt>
      <trkpt lat="44.05065" lon="4.16457">
        <ele>150.1</ele>
        <time>2012-02-17T14:13:28Z</time>
      </trkpt>
      <trkpt lat="44.05061" lon="4.16459">
        <ele>150.1</ele>
        <time>2012-02-17T14:13:29Z</time>
      </trkpt>
      <trkpt lat="44.05058" lon="4.1646">
        <ele>149.62</ele>
        <time>2012-02-17T14:13:30Z</time>
      </trkpt>
      <trkpt lat="44.05054" lon="4.16461">
        <ele>150.1</ele>
        <time>2012-02-17T14:13:31Z</time>
      </trkpt>
      <trkpt lat="44.05049" lon="4.16462">
        <ele>150.1</ele>
        <time>2012-02-17T14:13:32Z</time>
      </trkpt>
      <trkpt lat="44.05045" lon="4.16463">
        <ele>150.1</ele>
        <time>2012-02-17T14:13:33Z</time>
      </trkpt>
      <trkpt lat="44.04996" lon="4.16464">
        <ele>151.54</ele>
        <time>2012-02-17T14:13:45Z</time>
      </trkpt>
      <trkpt lat="44.04992" lon="4.16464">
        <ele>151.06</ele>
        <time>2012-02-17T14:13:46Z</time>
      </trkpt>
      <trkpt lat="44.04987" lon="4.16464">
        <ele>151.54</ele>
        <time>2012-02-17T14:13:47Z</time>
      </trkpt>
      <trkpt lat="44.04978" lon="4.16462">
        <ele>151.06</ele>
        <time>2012-02-17T14:13:49Z</time>
      </trkpt>
      <trkpt lat="44.04973" lon="4.16463">
        <ele>151.54</ele>
        <time>2012-02-17T14:13:50Z</time>
      </trkpt>
      <trkpt lat="44.04969" lon="4.16464">
        <ele>151.54</ele>
        <time>2012-02-17T14:13:51Z</time>
      </trkpt>
      <trkpt lat="44.04965" lon="4.16466">
        <ele>151.54</ele>
        <time>2012-02-17T14:13:52Z</time>
      </trkpt>
      <trkpt lat="44.04961" lon="4.16468">
        <ele>151.06</ele>
        <time>2012-02-17T14:13:53Z</time>
      </trkpt>
      <trkpt lat="44.04957" lon="4.16472">
        <ele>151.54</ele>
        <time>2012-02-17T14:13:54Z</time>
      </trkpt>
      <trkpt lat="44.04937" lon="4.16486">
        <ele>151.06</ele>
        <time>2012-02-17T14:13:58Z</time>
      </trkpt>
      <trkpt lat="44.04932" lon="4.16489">
        <ele>151.06</ele>
        <time>2012-02-17T14:13:59Z</time>
      </trkpt>
      <trkpt lat="44.04927" lon="4.1649">
        <ele>150.58</ele>
        <time>2012-02-17T14:14:00Z</time>
      </trkpt>
      <trkpt lat="44.04922" lon="4.16489">
        <ele>150.58</ele>
        <time>2012-02-17T14:14:01Z</time>
      </trkpt>
      <trkpt lat="44.04916" lon="4.16487">
        <ele>150.58</ele>
        <time>2012-02-17T14:14:02Z</time>
      </trkpt>
      <trkpt lat="44.04911" lon="4.16486">
        <ele>150.58</ele>
        <time>2012-02-17T14:14:03Z</time>
      </trkpt>
      <trkpt lat="44.04906" lon="4.16486">
        <ele>150.58</ele>
        <time>2012-02-17T14:14:04Z</time>
      </trkpt>
      <trkpt lat="44.04901" lon="4.16486">
        <ele>151.06</ele>
        <time>2012-02-17T14:14:05Z</time>
      </trkpt>
      <trkpt lat="44.04895" lon="4.16488">
        <ele>150.58</ele>
        <time>2012-02-17T14:14:06Z</time>
      </trkpt>
      <trkpt lat="44.0489" lon="4.1649">
        <ele>150.58</ele>
        <time>2012-02-17T14:14:07Z</time>
      </trkpt>
      <trkpt lat="44.04867" lon="4.16503">
        <ele>152.03</ele>
        <time>2012-02-17T14:14:12Z</time>
      </trkpt>
      <trkpt lat="44.04863" lon="4.16504">
        <ele>152.03</ele>
        <time>2012-02-17T14:14:13Z</time>
      </trkpt>
      <trkpt lat="44.0486" lon="4.16506">
        <ele>152.51</ele>
        <time>2012-02-17T14:14:14Z</time>
      </trkpt>
      <trkpt lat="44.04858" lon="4.16507">
        <ele>152.03</ele>
        <time>2012-02-17T14:14:15Z</time>
      </trkpt>
      <trkpt lat="44.04855" lon="4.16508">
        <ele>152.99</ele>
        <time>2012-02-17T14:14:16Z</time>
      </trkpt>
      <trkpt lat="44.04853" lon="4.16508">
        <ele>152.51</ele>
        <time>2012-02-17T14:14:17Z</time>
      </trkpt>
      <trkpt lat="44.04851" lon="4.1651">
        <ele>152.99</ele>
        <time>2012-02-17T14:14:18Z</time>
      </trkpt>
      <trkpt lat="44.04848" lon="4.16511">
        <ele>152.99</ele>
        <time>2012-02-17T14:14:19Z</time>
      </trkpt>
      <trkpt lat="44.04845" lon="4.16512">
        <ele>152.51</ele>
        <time>2012-02-17T14:14:20Z</time>
      </trkpt>
      <trkpt lat="44.04815" lon="4.1652">
        <ele>152.03</ele>
        <time>2012-02-17T14:14:30Z</time>
      </trkpt>
      <trkpt lat="44.0481" lon="4.16521">
        <ele>151.54</ele>
        <time>2012-02-17T14:14:31Z</time>
      </trkpt>
      <trkpt lat="44.04788" lon="4.16524">
        <ele>150.58</ele>
        <time>2012-02-17T14:14:36Z</time>
      </trkpt>
      <trkpt lat="44.04784" lon="4.16527">
        <ele>150.58</ele>
        <time>2012-02-17T14:14:37Z</time>
      </trkpt>
      <trkpt lat="44.04776" lon="4.16533">
        <ele>150.58</ele>
        <time>2012-02-17T14:14:39Z</time>
      </trkpt>
      <trkpt lat="44.04753" lon="4.16551">
        <ele>150.58</ele>
        <time>2012-02-17T14:14:45Z</time>
      </trkpt>
      <trkpt lat="44.0475" lon="4.16554">
        <ele>151.54</ele>
        <time>2012-02-17T14:14:46Z</time>
      </trkpt>
      <trkpt lat="44.04746" lon="4.16556">
        <ele>152.03</ele>
        <time>2012-02-17T14:14:47Z</time>
      </trkpt>
      <trkpt lat="44.04743" lon="4.16558">
        <ele>152.03</ele>
        <time>2012-02-17T14:14:48Z</time>
      </trkpt>
      <trkpt lat="44.0474" lon="4.16561">
        <ele>152.03</ele>
        <time>2012-02-17T14:14:49Z</time>
      </trkpt>
      <trkpt lat="44.04705" lon="4.16568">
        <ele>153.47</ele>
        <time>2012-02-17T14:14:59Z</time>
      </trkpt>
      <trkpt lat="44.04695" lon="4.16572">
        <ele>154.43</ele>
        <time>2012-02-17T14:15:03Z</time>
      </trkpt>
      <trkpt lat="44.04693" lon="4.16577">
        <ele>154.43</ele>
        <time>2012-02-17T14:15:04Z</time>
      </trkpt>
      <trkpt lat="44.04661" lon="4.16636">
        <ele>154.91</ele>
        <time>2012-02-17T14:15:18Z</time>
      </trkpt>
      <trkpt lat="44.04622" lon="4.16703">
        <ele>156.83</ele>
        <time>2012-02-17T14:15:34Z</time>
      </trkpt>
      <trkpt lat="44.0461" lon="4.16723">
        <ele>156.83</ele>
        <time>2012-02-17T14:15:39Z</time>
      </trkpt>
      <trkpt lat="44.04607" lon="4.16727">
        <ele>157.31</ele>
        <time>2012-02-17T14:15:40Z</time>
      </trkpt>
      <trkpt lat="44.04588" lon="4.16754">
        <ele>158.27</ele>
        <time>2012-02-17T14:15:47Z</time>
      </trkpt>
      <trkpt lat="44.04554" lon="4.16827">
        <ele>159.24</ele>
        <time>2012-02-17T14:16:02Z</time>
      </trkpt>
      <trkpt lat="44.04522" lon="4.16897">
        <ele>158.75</ele>
        <time>2012-02-17T14:16:17Z</time>
      </trkpt>
      <trkpt lat="44.04475" lon="4.1694">
        <ele>161.64</ele>
        <time>2012-02-17T14:16:31Z</time>
      </trkpt>
      <trkpt lat="44.04443" lon="4.16962">
        <ele>162.12</ele>
        <time>2012-02-17T14:16:40Z</time>
      </trkpt>
      <trkpt lat="44.04396" lon="4.16995">
        <ele>164.52</ele>
        <time>2012-02-17T14:16:53Z</time>
      </trkpt>
      <trkpt lat="44.04354" lon="4.17024">
        <ele>164.52</ele>
        <time>2012-02-17T14:17:06Z</time>
      </trkpt>
      <trkpt lat="44.04303" lon="4.17054">
        <ele>161.16</ele>
        <time>2012-02-17T14:17:15Z</time>
      </trkpt>
      <trkpt lat="44.04296" lon="4.17057">
        <ele>161.16</ele>
        <time>2012-02-17T14:17:16Z</time>
      </trkpt>
      <trkpt lat="44.04283" lon="4.17061">
        <ele>160.68</ele>
        <time>2012-02-17T14:17:18Z</time>
      </trkpt>
      <trkpt lat="44.04276" lon="4.17062">
        <ele>160.68</ele>
        <time>2012-02-17T14:17:19Z</time>
      </trkpt>
      <trkpt lat="44.0427" lon="4.17061">
        <ele>160.2</ele>
        <time>2012-02-17T14:17:20Z</time>
      </trkpt>
      <trkpt lat="44.04263" lon="4.1706">
        <ele>160.2</ele>
        <time>2012-02-17T14:17:21Z</time>
      </trkpt>
      <trkpt lat="44.04256" lon="4.17061">
        <ele>160.2</ele>
        <time>2012-02-17T14:17:22Z</time>
      </trkpt>
      <trkpt lat="44.0425" lon="4.17064">
        <ele>159.72</ele>
        <time>2012-02-17T14:17:23Z</time>
      </trkpt>
      <trkpt lat="44.04243" lon="4.17068">
        <ele>159.24</ele>
        <time>2012-02-17T14:17:24Z</time>
      </trkpt>
      <trkpt lat="44.04222" lon="4.17077">
        <ele>158.27</ele>
        <time>2012-02-17T14:17:27Z</time>
      </trkpt>
      <trkpt lat="44.04214" lon="4.17079">
        <ele>157.31</ele>
        <time>2012-02-17T14:17:28Z</time>
      </trkpt>
      <trkpt lat="44.04206" lon="4.1708">
        <ele>157.31</ele>
        <time>2012-02-17T14:17:29Z</time>
      </trkpt>
      <trkpt lat="44.04178" lon="4.17085">
        <ele>154.91</ele>
        <time>2012-02-17T14:17:32Z</time>
      </trkpt>
      <trkpt lat="44.04149" lon="4.1709">
        <ele>152.03</ele>
        <time>2012-02-17T14:17:35Z</time>
      </trkpt>
      <trkpt lat="44.04033" lon="4.17116">
        <ele>149.62</ele>
        <time>2012-02-17T14:17:48Z</time>
      </trkpt>
      <trkpt lat="44.03919" lon="4.17143">
        <ele>147.22</ele>
        <time>2012-02-17T14:18:02Z</time>
      </trkpt>
      <trkpt lat="44.03808" lon="4.17169">
        <ele>145.3</ele>
        <time>2012-02-17T14:18:17Z</time>
      </trkpt>
      <trkpt lat="44.03787" lon="4.17173">
        <ele>145.3</ele>
        <time>2012-02-17T14:18:24Z</time>
      </trkpt>
      <trkpt lat="44.03777" lon="4.17168">
        <ele>144.82</ele>
        <time>2012-02-17T14:18:33Z</time>
      </trkpt>
      <trkpt lat="44.03774" lon="4.17168">
        <ele>145.3</ele>
        <time>2012-02-17T14:18:34Z</time>
      </trkpt>
      <trkpt lat="44.03749" lon="4.17164">
        <ele>147.7</ele>
        <time>2012-02-17T14:18:42Z</time>
      </trkpt>
      <trkpt lat="44.03714" lon="4.17163">
        <ele>149.62</ele>
        <time>2012-02-17T14:18:55Z</time>
      </trkpt>
      <trkpt lat="44.03685" lon="4.17162">
        <ele>151.54</ele>
        <time>2012-02-17T14:19:08Z</time>
      </trkpt>
      <trkpt lat="44.03653" lon="4.17157">
        <ele>153.47</ele>
        <time>2012-02-17T14:19:22Z</time>
      </trkpt>
      <trkpt lat="44.03621" lon="4.17159">
        <ele>154.91</ele>
        <time>2012-02-17T14:19:35Z</time>
      </trkpt>
      <trkpt lat="44.03591" lon="4.17158">
        <ele>155.87</ele>
        <time>2012-02-17T14:19:47Z</time>
      </trkpt>
      <trkpt lat="44.03552" lon="4.17157">
        <ele>157.79</ele>
        <time>2012-02-17T14:20:02Z</time>
      </trkpt>
      <trkpt lat="44.03513" lon="4.17156">
        <ele>160.2</ele>
        <time>2012-02-17T14:20:17Z</time>
      </trkpt>
      <trkpt lat="44.03477" lon="4.17156">
        <ele>160.2</ele>
        <time>2012-02-17T14:20:29Z</time>
      </trkpt>
      <trkpt lat="44.03437" lon="4.17152">
        <ele>161.16</ele>
        <time>2012-02-17T14:20:42Z</time>
      </trkpt>
      <trkpt lat="44.03407" lon="4.17159">
        <ele>161.64</ele>
        <time>2012-02-17T14:20:53Z</time>
      </trkpt>
      <trkpt lat="44.03379" lon="4.17173">
        <ele>163.08</ele>
        <time>2012-02-17T14:21:02Z</time>
      </trkpt>
      <trkpt lat="44.03348" lon="4.17198">
        <ele>164.52</ele>
        <time>2012-02-17T14:21:15Z</time>
      </trkpt>
      <trkpt lat="44.03343" lon="4.17201">
        <ele>164.52</ele>
        <time>2012-02-17T14:21:17Z</time>
      </trkpt>
      <trkpt lat="44.0334" lon="4.17201">
        <ele>165.48</ele>
        <time>2012-02-17T14:21:18Z</time>
      </trkpt>
      <trkpt lat="44.03338" lon="4.172">
        <ele>165.48</ele>
        <time>2012-02-17T14:21:19Z</time>
      </trkpt>
      <trkpt lat="44.03337" lon="4.172">
        <ele>165.96</ele>
        <time>2012-02-17T14:21:20Z</time>
      </trkpt>
      <trkpt lat="44.03336" lon="4.172">
        <ele>165.96</ele>
        <time>2012-02-17T14:21:21Z</time>
      </trkpt>
      <trkpt lat="44.03334" lon="4.172">
        <ele>166.45</ele>
        <time>2012-02-17T14:21:22Z</time>
      </trkpt>
      <trkpt lat="44.03313" lon="4.17191">
        <ele>166.93</ele>
        <time>2012-02-17T14:21:34Z</time>
      </trkpt>
      <trkpt lat="44.03283" lon="4.1715">
        <ele>167.89</ele>
        <time>2012-02-17T14:21:49Z</time>
      </trkpt>
      <trkpt lat="44.0326" lon="4.17107">
        <ele>167.89</ele>
        <time>2012-02-17T14:22:00Z</time>
      </trkpt>
      <trkpt lat="44.03254" lon="4.17098">
        <ele>166.45</ele>
        <time>2012-02-17T14:22:02Z</time>
      </trkpt>
      <trkpt lat="44.0325" lon="4.17093">
        <ele>166.45</ele>
        <time>2012-02-17T14:22:03Z</time>
      </trkpt>
      <trkpt lat="44.03245" lon="4.17089">
        <ele>165.96</ele>
        <time>2012-02-17T14:22:04Z</time>
      </trkpt>
      <trkpt lat="44.0324" lon="4.17086">
        <ele>165.96</ele>
        <time>2012-02-17T14:22:05Z</time>
      </trkpt>
      <trkpt lat="44.03234" lon="4.17083">
        <ele>165.96</ele>
        <time>2012-02-17T14:22:06Z</time>
      </trkpt>
      <trkpt lat="44.03197" lon="4.17076">
        <ele>164.52</ele>
        <time>2012-02-17T14:22:14Z</time>
      </trkpt>
      <trkpt lat="44.03195" lon="4.17079">
        <ele>165</ele>
        <time>2012-02-17T14:22:15Z</time>
      </trkpt>
      <trkpt lat="44.03194" lon="4.17084">
        <ele>164.04</ele>
        <time>2012-02-17T14:22:16Z</time>
      </trkpt>
      <trkpt lat="44.03193" lon="4.17089">
        <ele>163.56</ele>
        <time>2012-02-17T14:22:17Z</time>
      </trkpt>
      <trkpt lat="44.03193" lon="4.17092">
        <ele>163.08</ele>
        <time>2012-02-17T14:22:18Z</time>
      </trkpt>
      <trkpt lat="44.03193" lon="4.17095">
        <ele>163.56</ele>
        <time>2012-02-17T14:22:19Z</time>
      </trkpt>
      <trkpt lat="44.03193" lon="4.17098">
        <ele>162.6</ele>
        <time>2012-02-17T14:22:20Z</time>
      </trkpt>
      <trkpt lat="44.03194" lon="4.17101">
        <ele>163.08</ele>
        <time>2012-02-17T14:22:21Z</time>
      </trkpt>
      <trkpt lat="44.03195" lon="4.17105">
        <ele>163.08</ele>
        <time>2012-02-17T14:22:22Z</time>
      </trkpt>
      <trkpt lat="44.03196" lon="4.1711">
        <ele>162.6</ele>
        <time>2012-02-17T14:22:23Z</time>
      </trkpt>
      <trkpt lat="44.03209" lon="4.1715">
        <ele>161.64</ele>
        <time>2012-02-17T14:22:34Z</time>
      </trkpt>
      <trkpt lat="44.0321" lon="4.17168">
        <ele>160.68</ele>
        <time>2012-02-17T14:22:38Z</time>
      </trkpt>
      <trkpt lat="44.03209" lon="4.17172">
        <ele>161.16</ele>
        <time>2012-02-17T14:22:39Z</time>
      </trkpt>
      <trkpt lat="44.03207" lon="4.17177">
        <ele>160.68</ele>
        <time>2012-02-17T14:22:40Z</time>
      </trkpt>
      <trkpt lat="44.03206" lon="4.17181">
        <ele>159.72</ele>
        <time>2012-02-17T14:22:41Z</time>
      </trkpt>
      <trkpt lat="44.03206" lon="4.17187">
        <ele>159.72</ele>
        <time>2012-02-17T14:22:42Z</time>
      </trkpt>
      <trkpt lat="44.03206" lon="4.17192">
        <ele>159.24</ele>
        <time>2012-02-17T14:22:43Z</time>
      </trkpt>
      <trkpt lat="44.03207" lon="4.17197">
        <ele>159.72</ele>
        <time>2012-02-17T14:22:44Z</time>
      </trkpt>
      <trkpt lat="44.03208" lon="4.17203">
        <ele>159.24</ele>
        <time>2012-02-17T14:22:45Z</time>
      </trkpt>
      <trkpt lat="44.03209" lon="4.17208">
        <ele>159.72</ele>
        <time>2012-02-17T14:22:46Z</time>
      </trkpt>
      <trkpt lat="44.03208" lon="4.1722">
        <ele>159.24</ele>
        <time>2012-02-17T14:22:48Z</time>
      </trkpt>
      <trkpt lat="44.03206" lon="4.17225">
        <ele>158.27</ele>
        <time>2012-02-17T14:22:49Z</time>
      </trkpt>
      <trkpt lat="44.03204" lon="4.1723">
        <ele>158.27</ele>
        <time>2012-02-17T14:22:50Z</time>
      </trkpt>
      <trkpt lat="44.032" lon="4.17234">
        <ele>158.75</ele>
        <time>2012-02-17T14:22:51Z</time>
      </trkpt>
      <trkpt lat="44.03197" lon="4.17238">
        <ele>158.27</ele>
        <time>2012-02-17T14:22:52Z</time>
      </trkpt>
      <trkpt lat="44.03193" lon="4.17242">
        <ele>157.31</ele>
        <time>2012-02-17T14:22:53Z</time>
      </trkpt>
      <trkpt lat="44.0319" lon="4.17246">
        <ele>156.35</ele>
        <time>2012-02-17T14:22:54Z</time>
      </trkpt>
      <trkpt lat="44.03191" lon="4.17251">
        <ele>156.35</ele>
        <time>2012-02-17T14:22:55Z</time>
      </trkpt>
      <trkpt lat="44.03194" lon="4.17254">
        <ele>156.35</ele>
        <time>2012-02-17T14:22:56Z</time>
      </trkpt>
      <trkpt lat="44.03198" lon="4.17256">
        <ele>155.87</ele>
        <time>2012-02-17T14:22:57Z</time>
      </trkpt>
      <trkpt lat="44.03204" lon="4.17257">
        <ele>155.87</ele>
        <time>2012-02-17T14:22:58Z</time>
      </trkpt>
      <trkpt lat="44.03209" lon="4.17258">
        <ele>155.39</ele>
        <time>2012-02-17T14:22:59Z</time>
      </trkpt>
      <trkpt lat="44.03215" lon="4.17261">
        <ele>156.35</ele>
        <time>2012-02-17T14:23:00Z</time>
      </trkpt>
      <trkpt lat="44.03219" lon="4.17266">
        <ele>155.39</ele>
        <time>2012-02-17T14:23:01Z</time>
      </trkpt>
      <trkpt lat="44.03222" lon="4.17272">
        <ele>155.87</ele>
        <time>2012-02-17T14:23:02Z</time>
      </trkpt>
      <trkpt lat="44.03224" lon="4.1728">
        <ele>155.87</ele>
        <time>2012-02-17T14:23:03Z</time>
      </trkpt>
      <trkpt lat="44.03226" lon="4.17287">
        <ele>155.87</ele>
        <time>2012-02-17T14:23:04Z</time>
      </trkpt>
      <trkpt lat="44.03242" lon="4.17351">
        <ele>155.39</ele>
        <time>2012-02-17T14:23:13Z</time>
      </trkpt>
      <trkpt lat="44.03246" lon="4.17365">
        <ele>154.91</ele>
        <time>2012-02-17T14:23:15Z</time>
      </trkpt>
      <trkpt lat="44.03245" lon="4.17371">
        <ele>154.91</ele>
        <time>2012-02-17T14:23:16Z</time>
      </trkpt>
      <trkpt lat="44.03243" lon="4.17378">
        <ele>154.43</ele>
        <time>2012-02-17T14:23:17Z</time>
      </trkpt>
      <trkpt lat="44.03239" lon="4.17382">
        <ele>154.91</ele>
        <time>2012-02-17T14:23:18Z</time>
      </trkpt>
      <trkpt lat="44.03234" lon="4.17386">
        <ele>154.91</ele>
        <time>2012-02-17T14:23:19Z</time>
      </trkpt>
      <trkpt lat="44.03229" lon="4.17389">
        <ele>153.95</ele>
        <time>2012-02-17T14:23:20Z</time>
      </trkpt>
      <trkpt lat="44.03223" lon="4.17392">
        <ele>153.95</ele>
        <time>2012-02-17T14:23:21Z</time>
      </trkpt>
      <trkpt lat="44.03218" lon="4.17396">
        <ele>153.95</ele>
        <time>2012-02-17T14:23:22Z</time>
      </trkpt>
      <trkpt lat="44.03213" lon="4.17401">
        <ele>153.47</ele>
        <time>2012-02-17T14:23:23Z</time>
      </trkpt>
      <trkpt lat="44.03208" lon="4.17407">
        <ele>152.99</ele>
        <time>2012-02-17T14:23:24Z</time>
      </trkpt>
      <trkpt lat="44.03205" lon="4.17414">
        <ele>152.03</ele>
        <time>2012-02-17T14:23:25Z</time>
      </trkpt>
      <trkpt lat="44.03202" lon="4.17421">
        <ele>151.54</ele>
        <time>2012-02-17T14:23:26Z</time>
      </trkpt>
      <trkpt lat="44.03198" lon="4.17427">
        <ele>150.58</ele>
        <time>2012-02-17T14:23:27Z</time>
      </trkpt>
      <trkpt lat="44.03192" lon="4.17432">
        <ele>149.62</ele>
        <time>2012-02-17T14:23:28Z</time>
      </trkpt>
      <trkpt lat="44.03186" lon="4.17436">
        <ele>149.62</ele>
        <time>2012-02-17T14:23:29Z</time>
      </trkpt>
      <trkpt lat="44.03169" lon="4.17451">
        <ele>147.7</ele>
        <time>2012-02-17T14:23:32Z</time>
      </trkpt>
      <trkpt lat="44.03154" lon="4.17465">
        <ele>144.34</ele>
        <time>2012-02-17T14:23:35Z</time>
      </trkpt>
      <trkpt lat="44.0315" lon="4.17468">
        <ele>143.37</ele>
        <time>2012-02-17T14:23:36Z</time>
      </trkpt>
      <trkpt lat="44.03141" lon="4.17476">
        <ele>142.41</ele>
        <time>2012-02-17T14:23:38Z</time>
      </trkpt>
      <trkpt lat="44.03121" lon="4.17495">
        <ele>138.57</ele>
        <time>2012-02-17T14:23:42Z</time>
      </trkpt>
      <trkpt lat="44.03114" lon="4.17502">
        <ele>137.13</ele>
        <time>2012-02-17T14:23:44Z</time>
      </trkpt>
      <trkpt lat="44.03111" lon="4.17506">
        <ele>136.16</ele>
        <time>2012-02-17T14:23:45Z</time>
      </trkpt>
      <trkpt lat="44.03108" lon="4.17511">
        <ele>135.2</ele>
        <time>2012-02-17T14:23:46Z</time>
      </trkpt>
      <trkpt lat="44.03103" lon="4.17513">
        <ele>134.72</ele>
        <time>2012-02-17T14:23:47Z</time>
      </trkpt>
      <trkpt lat="44.03099" lon="4.17513">
        <ele>134.24</ele>
        <time>2012-02-17T14:23:48Z</time>
      </trkpt>
      <trkpt lat="44.03094" lon="4.17516">
        <ele>134.24</ele>
        <time>2012-02-17T14:23:49Z</time>
      </trkpt>
      <trkpt lat="44.03088" lon="4.17518">
        <ele>134.24</ele>
        <time>2012-02-17T14:23:50Z</time>
      </trkpt>
      <trkpt lat="44.03082" lon="4.17521">
        <ele>133.28</ele>
        <time>2012-02-17T14:23:51Z</time>
      </trkpt>
      <trkpt lat="44.03077" lon="4.17524">
        <ele>131.84</ele>
        <time>2012-02-17T14:23:52Z</time>
      </trkpt>
      <trkpt lat="44.03071" lon="4.17527">
        <ele>131.84</ele>
        <time>2012-02-17T14:23:53Z</time>
      </trkpt>
      <trkpt lat="44.03048" lon="4.17543">
        <ele>129.92</ele>
        <time>2012-02-17T14:23:57Z</time>
      </trkpt>
      <trkpt lat="44.03042" lon="4.17547">
        <ele>129.92</ele>
        <time>2012-02-17T14:23:58Z</time>
      </trkpt>
      <trkpt lat="44.03019" lon="4.17549">
        <ele>129.43</ele>
        <time>2012-02-17T14:24:05Z</time>
      </trkpt>
      <trkpt lat="44.02993" lon="4.17546">
        <ele>132.32</ele>
        <time>2012-02-17T14:24:13Z</time>
      </trkpt>
      <trkpt lat="44.02989" lon="4.17546">
        <ele>131.84</ele>
        <time>2012-02-17T14:24:14Z</time>
      </trkpt>
      <trkpt lat="44.02985" lon="4.17546">
        <ele>132.32</ele>
        <time>2012-02-17T14:24:15Z</time>
      </trkpt>
      <trkpt lat="44.02958" lon="4.17544">
        <ele>134.72</ele>
        <time>2012-02-17T14:24:21Z</time>
      </trkpt>
      <trkpt lat="44.02941" lon="4.17545">
        <ele>135.68</ele>
        <time>2012-02-17T14:24:25Z</time>
      </trkpt>
      <trkpt lat="44.02928" lon="4.17547">
        <ele>137.13</ele>
        <time>2012-02-17T14:24:28Z</time>
      </trkpt>
      <trkpt lat="44.02915" lon="4.17548">
        <ele>137.13</ele>
        <time>2012-02-17T14:24:31Z</time>
      </trkpt>
      <trkpt lat="44.02911" lon="4.1755">
        <ele>137.61</ele>
        <time>2012-02-17T14:24:32Z</time>
      </trkpt>
      <trkpt lat="44.02907" lon="4.17551">
        <ele>137.13</ele>
        <time>2012-02-17T14:24:33Z</time>
      </trkpt>
      <trkpt lat="44.02893" lon="4.17553">
        <ele>138.57</ele>
        <time>2012-02-17T14:24:36Z</time>
      </trkpt>
      <trkpt lat="44.0287" lon="4.17552">
        <ele>139.53</ele>
        <time>2012-02-17T14:24:41Z</time>
      </trkpt>
      <trkpt lat="44.02825" lon="4.17563">
        <ele>138.57</ele>
        <time>2012-02-17T14:24:53Z</time>
      </trkpt>
      <trkpt lat="44.02821" lon="4.17565">
        <ele>137.13</ele>
        <time>2012-02-17T14:24:54Z</time>
      </trkpt>
      <trkpt lat="44.02818" lon="4.17567">
        <ele>137.13</ele>
        <time>2012-02-17T14:24:55Z</time>
      </trkpt>
      <trkpt lat="44.02812" lon="4.17569">
        <ele>137.13</ele>
        <time>2012-02-17T14:25:00Z</time>
      </trkpt>
      <trkpt lat="44.02812" lon="4.17571">
        <ele>136.64</ele>
        <time>2012-02-17T14:25:01Z</time>
      </trkpt>
      <trkpt lat="44.02812" lon="4.17575">
        <ele>137.13</ele>
        <time>2012-02-17T14:25:02Z</time>
      </trkpt>
      <trkpt lat="44.02812" lon="4.17581">
        <ele>137.13</ele>
        <time>2012-02-17T14:25:03Z</time>
      </trkpt>
      <trkpt lat="44.02812" lon="4.17588">
        <ele>136.64</ele>
        <time>2012-02-17T14:25:04Z</time>
      </trkpt>
      <trkpt lat="44.02808" lon="4.17638">
        <ele>136.64</ele>
        <time>2012-02-17T14:25:12Z</time>
      </trkpt>
      <trkpt lat="44.02806" lon="4.17656">
        <ele>137.13</ele>
        <time>2012-02-17T14:25:15Z</time>
      </trkpt>
      <trkpt lat="44.02805" lon="4.17661">
        <ele>137.61</ele>
        <time>2012-02-17T14:25:16Z</time>
      </trkpt>
      <trkpt lat="44.02801" lon="4.1769">
        <ele>138.09</ele>
        <time>2012-02-17T14:25:21Z</time>
      </trkpt>
      <trkpt lat="44.02799" lon="4.17695">
        <ele>138.09</ele>
        <time>2012-02-17T14:25:22Z</time>
      </trkpt>
      <trkpt lat="44.02797" lon="4.177">
        <ele>138.09</ele>
        <time>2012-02-17T14:25:23Z</time>
      </trkpt>
      <trkpt lat="44.02794" lon="4.17711">
        <ele>138.57</ele>
        <time>2012-02-17T14:25:25Z</time>
      </trkpt>
      <trkpt lat="44.02793" lon="4.17717">
        <ele>139.53</ele>
        <time>2012-02-17T14:25:26Z</time>
      </trkpt>
      <trkpt lat="44.02793" lon="4.17722">
        <ele>140.01</ele>
        <time>2012-02-17T14:25:27Z</time>
      </trkpt>
      <trkpt lat="44.02793" lon="4.17728">
        <ele>140.01</ele>
        <time>2012-02-17T14:25:28Z</time>
      </trkpt>
      <trkpt lat="44.02794" lon="4.17734">
        <ele>140.49</ele>
        <time>2012-02-17T14:25:29Z</time>
      </trkpt>
      <trkpt lat="44.02796" lon="4.17739">
        <ele>140.49</ele>
        <time>2012-02-17T14:25:30Z</time>
      </trkpt>
      <trkpt lat="44.02797" lon="4.17744">
        <ele>140.97</ele>
        <time>2012-02-17T14:25:31Z</time>
      </trkpt>
      <trkpt lat="44.02809" lon="4.17769">
        <ele>139.05</ele>
        <time>2012-02-17T14:25:36Z</time>
      </trkpt>
      <trkpt lat="44.02809" lon="4.17774">
        <ele>139.05</ele>
        <time>2012-02-17T14:25:37Z</time>
      </trkpt>
      <trkpt lat="44.02806" lon="4.17779">
        <ele>138.57</ele>
        <time>2012-02-17T14:25:38Z</time>
      </trkpt>
      <trkpt lat="44.02803" lon="4.17783">
        <ele>138.09</ele>
        <time>2012-02-17T14:25:39Z</time>
      </trkpt>
      <trkpt lat="44.02798" lon="4.17786">
        <ele>138.57</ele>
        <time>2012-02-17T14:25:40Z</time>
      </trkpt>
      <trkpt lat="44.02794" lon="4.17787">
        <ele>138.09</ele>
        <time>2012-02-17T14:25:41Z</time>
      </trkpt>
      <trkpt lat="44.02784" lon="4.17791">
        <ele>138.09</ele>
        <time>2012-02-17T14:25:43Z</time>
      </trkpt>
      <trkpt lat="44.0278" lon="4.17795">
        <ele>138.57</ele>
        <time>2012-02-17T14:25:44Z</time>
      </trkpt>
      <trkpt lat="44.02765" lon="4.17811">
        <ele>137.13</ele>
        <time>2012-02-17T14:25:48Z</time>
      </trkpt>
      <trkpt lat="44.02762" lon="4.17815">
        <ele>137.13</ele>
        <time>2012-02-17T14:25:49Z</time>
      </trkpt>
      <trkpt lat="44.02759" lon="4.17818">
        <ele>137.13</ele>
        <time>2012-02-17T14:25:50Z</time>
      </trkpt>
      <trkpt lat="44.02757" lon="4.17819">
        <ele>137.13</ele>
        <time>2012-02-17T14:25:53Z</time>
      </trkpt>
      <trkpt lat="44.02756" lon="4.17817">
        <ele>137.13</ele>
        <time>2012-02-17T14:25:54Z</time>
      </trkpt>
      <trkpt lat="44.02754" lon="4.17815">
        <ele>136.16</ele>
        <time>2012-02-17T14:25:55Z</time>
      </trkpt>
      <trkpt lat="44.02744" lon="4.17798">
        <ele>135.2</ele>
        <time>2012-02-17T14:26:00Z</time>
      </trkpt>
      <trkpt lat="44.02741" lon="4.17794">
        <ele>134.72</ele>
        <time>2012-02-17T14:26:01Z</time>
      </trkpt>
      <trkpt lat="44.02737" lon="4.17792">
        <ele>134.24</ele>
        <time>2012-02-17T14:26:02Z</time>
      </trkpt>
      <trkpt lat="44.02733" lon="4.17791">
        <ele>134.24</ele>
        <time>2012-02-17T14:26:03Z</time>
      </trkpt>
      <trkpt lat="44.02729" lon="4.17788">
        <ele>134.72</ele>
        <time>2012-02-17T14:26:04Z</time>
      </trkpt>
      <trkpt lat="44.02725" lon="4.17787">
        <ele>134.24</ele>
        <time>2012-02-17T14:26:05Z</time>
      </trkpt>
      <trkpt lat="44.02721" lon="4.17785">
        <ele>134.24</ele>
        <time>2012-02-17T14:26:06Z</time>
      </trkpt>
      <trkpt lat="44.02717" lon="4.17783">
        <ele>134.24</ele>
        <time>2012-02-17T14:26:07Z</time>
      </trkpt>
      <trkpt lat="44.02713" lon="4.17782">
        <ele>134.24</ele>
        <time>2012-02-17T14:26:08Z</time>
      </trkpt>
      <trkpt lat="44.02709" lon="4.17781">
        <ele>134.24</ele>
        <time>2012-02-17T14:26:09Z</time>
      </trkpt>
      <trkpt lat="44.02704" lon="4.17781">
        <ele>132.8</ele>
        <time>2012-02-17T14:26:10Z</time>
      </trkpt>
      <trkpt lat="44.02698" lon="4.17778">
        <ele>132.32</ele>
        <time>2012-02-17T14:26:11Z</time>
      </trkpt>
      <trkpt lat="44.02693" lon="4.17776">
        <ele>131.36</ele>
        <time>2012-02-17T14:26:12Z</time>
      </trkpt>
      <trkpt lat="44.02688" lon="4.17775">
        <ele>130.88</ele>
        <time>2012-02-17T14:26:13Z</time>
      </trkpt>
      <trkpt lat="44.02685" lon="4.17774">
        <ele>130.88</ele>
        <time>2012-02-17T14:26:14Z</time>
      </trkpt>
      <trkpt lat="44.02682" lon="4.17773">
        <ele>130.4</ele>
        <time>2012-02-17T14:26:15Z</time>
      </trkpt>
      <trkpt lat="44.02656" lon="4.17753">
        <ele>126.55</ele>
        <time>2012-02-17T14:26:22Z</time>
      </trkpt>
      <trkpt lat="44.02648" lon="4.17746">
        <ele>126.07</ele>
        <time>2012-02-17T14:26:24Z</time>
      </trkpt>
      <trkpt lat="44.0264" lon="4.17742">
        <ele>125.11</ele>
        <time>2012-02-17T14:26:26Z</time>
      </trkpt>
      <trkpt lat="44.02632" lon="4.17733">
        <ele>123.67</ele>
        <time>2012-02-17T14:26:29Z</time>
      </trkpt>
      <trkpt lat="44.02622" lon="4.17724">
        <ele>123.19</ele>
        <time>2012-02-17T14:26:33Z</time>
      </trkpt>
      <trkpt lat="44.02611" lon="4.17715">
        <ele>122.22</ele>
        <time>2012-02-17T14:26:36Z</time>
      </trkpt>
      <trkpt lat="44.02605" lon="4.17695">
        <ele>120.78</ele>
        <time>2012-02-17T14:26:40Z</time>
      </trkpt>
      <trkpt lat="44.02602" lon="4.17685">
        <ele>119.82</ele>
        <time>2012-02-17T14:26:42Z</time>
      </trkpt>
      <trkpt lat="44.026" lon="4.1767">
        <ele>118.86</ele>
        <time>2012-02-17T14:26:46Z</time>
      </trkpt>
      <trkpt lat="44.02595" lon="4.17649">
        <ele>117.42</ele>
        <time>2012-02-17T14:26:52Z</time>
      </trkpt>
      <trkpt lat="44.02592" lon="4.17633">
        <ele>116.46</ele>
        <time>2012-02-17T14:26:56Z</time>
      </trkpt>
      <trkpt lat="44.02591" lon="4.1762">
        <ele>115.98</ele>
        <time>2012-02-17T14:26:58Z</time>
      </trkpt>
      <trkpt lat="44.02584" lon="4.176">
        <ele>115.01</ele>
        <time>2012-02-17T14:27:02Z</time>
      </trkpt>
      <trkpt lat="44.02579" lon="4.1759">
        <ele>113.57</ele>
        <time>2012-02-17T14:27:05Z</time>
      </trkpt>
      <trkpt lat="44.02575" lon="4.17578">
        <ele>112.61</ele>
        <time>2012-02-17T14:27:07Z</time>
      </trkpt>
      <trkpt lat="44.02569" lon="4.17568">
        <ele>111.17</ele>
        <time>2012-02-17T14:27:09Z</time>
      </trkpt>
      <trkpt lat="44.02567" lon="4.17561">
        <ele>110.21</ele>
        <time>2012-02-17T14:27:11Z</time>
      </trkpt>
      <trkpt lat="44.02564" lon="4.17552">
        <ele>110.69</ele>
        <time>2012-02-17T14:27:15Z</time>
      </trkpt>
      <trkpt lat="44.02535" lon="4.17528">
        <ele>107.81</ele>
        <time>2012-02-17T14:27:25Z</time>
      </trkpt>
      <trkpt lat="44.02525" lon="4.17511">
        <ele>107.32</ele>
        <time>2012-02-17T14:27:28Z</time>
      </trkpt>
      <trkpt lat="44.02521" lon="4.17496">
        <ele>106.36</ele>
        <time>2012-02-17T14:27:30Z</time>
      </trkpt>
      <trkpt lat="44.02516" lon="4.17486">
        <ele>105.4</ele>
        <time>2012-02-17T14:27:32Z</time>
      </trkpt>
      <trkpt lat="44.02509" lon="4.17474">
        <ele>105.4</ele>
        <time>2012-02-17T14:27:34Z</time>
      </trkpt>
      <trkpt lat="44.02502" lon="4.17456">
        <ele>103.96</ele>
        <time>2012-02-17T14:27:38Z</time>
      </trkpt>
      <trkpt lat="44.02493" lon="4.17433">
        <ele>101.56</ele>
        <time>2012-02-17T14:27:46Z</time>
      </trkpt>
      <trkpt lat="44.02485" lon="4.17423">
        <ele>101.08</ele>
        <time>2012-02-17T14:27:49Z</time>
      </trkpt>
      <trkpt lat="44.02478" lon="4.17409">
        <ele>100.11</ele>
        <time>2012-02-17T14:27:52Z</time>
      </trkpt>
      <trkpt lat="44.02465" lon="4.17404">
        <ele>101.08</ele>
        <time>2012-02-17T14:27:56Z</time>
      </trkpt>
      <trkpt lat="44.0245" lon="4.17406">
        <ele>100.11</ele>
        <time>2012-02-17T14:27:59Z</time>
      </trkpt>
      <trkpt lat="44.02441" lon="4.17403">
        <ele>99.15</ele>
        <time>2012-02-17T14:28:01Z</time>
      </trkpt>
      <trkpt lat="44.02419" lon="4.17393">
        <ele>98.67</ele>
        <time>2012-02-17T14:28:07Z</time>
      </trkpt>
      <trkpt lat="44.02398" lon="4.17396">
        <ele>98.19</ele>
        <time>2012-02-17T14:28:13Z</time>
      </trkpt>
      <trkpt lat="44.02376" lon="4.17411">
        <ele>94.83</ele>
        <time>2012-02-17T14:28:19Z</time>
      </trkpt>
      <trkpt lat="44.02359" lon="4.17419">
        <ele>93.39</ele>
        <time>2012-02-17T14:28:22Z</time>
      </trkpt>
      <trkpt lat="44.0233" lon="4.17415">
        <ele>92.42</ele>
        <time>2012-02-17T14:28:27Z</time>
      </trkpt>
      <trkpt lat="44.02318" lon="4.17409">
        <ele>91.46</ele>
        <time>2012-02-17T14:28:29Z</time>
      </trkpt>
      <trkpt lat="44.02279" lon="4.17397">
        <ele>90.02</ele>
        <time>2012-02-17T14:28:35Z</time>
      </trkpt>
      <trkpt lat="44.02245" lon="4.17358">
        <ele>85.69</ele>
        <time>2012-02-17T14:28:42Z</time>
      </trkpt>
      <trkpt lat="44.02234" lon="4.17344">
        <ele>84.73</ele>
        <time>2012-02-17T14:28:44Z</time>
      </trkpt>
      <trkpt lat="44.02222" lon="4.17333">
        <ele>84.25</ele>
        <time>2012-02-17T14:28:49Z</time>
      </trkpt>
      <trkpt lat="44.02233" lon="4.17297">
        <ele>84.73</ele>
        <time>2012-02-17T14:29:00Z</time>
      </trkpt>
      <trkpt lat="44.02241" lon="4.17279">
        <ele>85.69</ele>
        <time>2012-02-17T14:29:04Z</time>
      </trkpt>
      <trkpt lat="44.02286" lon="4.17201">
        <ele>88.1</ele>
        <time>2012-02-17T14:29:22Z</time>
      </trkpt>
      <trkpt lat="44.02321" lon="4.17137">
        <ele>90.02</ele>
        <time>2012-02-17T14:29:36Z</time>
      </trkpt>
      <trkpt lat="44.02323" lon="4.17132">
        <ele>89.54</ele>
        <time>2012-02-17T14:29:37Z</time>
      </trkpt>
      <trkpt lat="44.02333" lon="4.17112">
        <ele>90.02</ele>
        <time>2012-02-17T14:29:41Z</time>
      </trkpt>
      <trkpt lat="44.02346" lon="4.17071">
        <ele>89.06</ele>
        <time>2012-02-17T14:29:48Z</time>
      </trkpt>
      <trkpt lat="44.02347" lon="4.17063">
        <ele>89.06</ele>
        <time>2012-02-17T14:29:49Z</time>
      </trkpt>
      <trkpt lat="44.02349" lon="4.17056">
        <ele>88.58</ele>
        <time>2012-02-17T14:29:50Z</time>
      </trkpt>
      <trkpt lat="44.02351" lon="4.17049">
        <ele>88.1</ele>
        <time>2012-02-17T14:29:51Z</time>
      </trkpt>
      <trkpt lat="44.02353" lon="4.17041">
        <ele>88.58</ele>
        <time>2012-02-17T14:29:52Z</time>
      </trkpt>
      <trkpt lat="44.02366" lon="4.17">
        <ele>86.18</ele>
        <time>2012-02-17T14:29:57Z</time>
      </trkpt>
      <trkpt lat="44.02369" lon="4.16992">
        <ele>87.14</ele>
        <time>2012-02-17T14:29:58Z</time>
      </trkpt>
      <trkpt lat="44.02411" lon="4.16885">
        <ele>83.77</ele>
        <time>2012-02-17T14:30:11Z</time>
      </trkpt>
      <trkpt lat="44.0246" lon="4.16763">
        <ele>82.33</ele>
        <time>2012-02-17T14:30:27Z</time>
      </trkpt>
      <trkpt lat="44.02504" lon="4.16681">
        <ele>83.29</ele>
        <time>2012-02-17T14:30:40Z</time>
      </trkpt>
      <trkpt lat="44.02555" lon="4.16585">
        <ele>83.77</ele>
        <time>2012-02-17T14:30:56Z</time>
      </trkpt>
      <trkpt lat="44.02584" lon="4.16538">
        <ele>83.77</ele>
        <time>2012-02-17T14:31:05Z</time>
      </trkpt>
      <trkpt lat="44.02587" lon="4.16534">
        <ele>83.29</ele>
        <time>2012-02-17T14:31:06Z</time>
      </trkpt>
      <trkpt lat="44.0259" lon="4.16529">
        <ele>83.77</ele>
        <time>2012-02-17T14:31:07Z</time>
      </trkpt>
      <trkpt lat="44.02592" lon="4.16524">
        <ele>84.25</ele>
        <time>2012-02-17T14:31:08Z</time>
      </trkpt>
      <trkpt lat="44.02593" lon="4.16519">
        <ele>83.77</ele>
        <time>2012-02-17T14:31:09Z</time>
      </trkpt>
      <trkpt lat="44.02592" lon="4.16514">
        <ele>84.73</ele>
        <time>2012-02-17T14:31:10Z</time>
      </trkpt>
      <trkpt lat="44.02589" lon="4.16511">
        <ele>84.25</ele>
        <time>2012-02-17T14:31:11Z</time>
      </trkpt>
      <trkpt lat="44.02585" lon="4.16511">
        <ele>83.77</ele>
        <time>2012-02-17T14:31:12Z</time>
      </trkpt>
      <trkpt lat="44.0258" lon="4.16514">
        <ele>83.29</ele>
        <time>2012-02-17T14:31:13Z</time>
      </trkpt>
      <trkpt lat="44.02575" lon="4.16519">
        <ele>82.33</ele>
        <time>2012-02-17T14:31:14Z</time>
      </trkpt>
      <trkpt lat="44.02569" lon="4.16525">
        <ele>81.37</ele>
        <time>2012-02-17T14:31:15Z</time>
      </trkpt>
      <trkpt lat="44.02562" lon="4.16529">
        <ele>80.41</ele>
        <time>2012-02-17T14:31:16Z</time>
      </trkpt>
      <trkpt lat="44.02554" lon="4.1653">
        <ele>80.41</ele>
        <time>2012-02-17T14:31:17Z</time>
      </trkpt>
      <trkpt lat="44.02546" lon="4.16528">
        <ele>80.41</ele>
        <time>2012-02-17T14:31:18Z</time>
      </trkpt>
      <trkpt lat="44.02539" lon="4.16525">
        <ele>80.41</ele>
        <time>2012-02-17T14:31:19Z</time>
      </trkpt>
      <trkpt lat="44.02519" lon="4.16516">
        <ele>80.41</ele>
        <time>2012-02-17T14:31:22Z</time>
      </trkpt>
      <trkpt lat="44.02507" lon="4.16507">
        <ele>79.93</ele>
        <time>2012-02-17T14:31:24Z</time>
      </trkpt>
      <trkpt lat="44.02502" lon="4.16499">
        <ele>79.93</ele>
        <time>2012-02-17T14:31:25Z</time>
      </trkpt>
      <trkpt lat="44.02499" lon="4.1649">
        <ele>80.89</ele>
        <time>2012-02-17T14:31:26Z</time>
      </trkpt>
      <trkpt lat="44.02498" lon="4.16481">
        <ele>80.89</ele>
        <time>2012-02-17T14:31:27Z</time>
      </trkpt>
      <trkpt lat="44.02496" lon="4.16473">
        <ele>79.93</ele>
        <time>2012-02-17T14:31:28Z</time>
      </trkpt>
      <trkpt lat="44.02493" lon="4.16466">
        <ele>80.41</ele>
        <time>2012-02-17T14:31:29Z</time>
      </trkpt>
      <trkpt lat="44.02489" lon="4.16461">
        <ele>80.41</ele>
        <time>2012-02-17T14:31:30Z</time>
      </trkpt>
      <trkpt lat="44.02484" lon="4.16456">
        <ele>79.93</ele>
        <time>2012-02-17T14:31:31Z</time>
      </trkpt>
      <trkpt lat="44.0248" lon="4.16453">
        <ele>79.93</ele>
        <time>2012-02-17T14:31:32Z</time>
      </trkpt>
      <trkpt lat="44.02464" lon="4.16434">
        <ele>79.93</ele>
        <time>2012-02-17T14:31:36Z</time>
      </trkpt>
      <trkpt lat="44.02455" lon="4.16414">
        <ele>79.45</ele>
        <time>2012-02-17T14:31:40Z</time>
      </trkpt>
      <trkpt lat="44.02452" lon="4.16408">
        <ele>80.41</ele>
        <time>2012-02-17T14:31:41Z</time>
      </trkpt>
      <trkpt lat="44.0245" lon="4.16403">
        <ele>79.93</ele>
        <time>2012-02-17T14:31:42Z</time>
      </trkpt>
      <trkpt lat="44.02447" lon="4.16398">
        <ele>80.41</ele>
        <time>2012-02-17T14:31:43Z</time>
      </trkpt>
      <trkpt lat="44.02444" lon="4.16393">
        <ele>80.41</ele>
        <time>2012-02-17T14:31:44Z</time>
      </trkpt>
      <trkpt lat="44.02426" lon="4.16366">
        <ele>80.41</ele>
        <time>2012-02-17T14:31:51Z</time>
      </trkpt>
      <trkpt lat="44.02422" lon="4.16364">
        <ele>80.41</ele>
        <time>2012-02-17T14:31:52Z</time>
      </trkpt>
      <trkpt lat="44.02418" lon="4.16361">
        <ele>80.41</ele>
        <time>2012-02-17T14:31:53Z</time>
      </trkpt>
      <trkpt lat="44.02403" lon="4.16351">
        <ele>81.37</ele>
        <time>2012-02-17T14:31:57Z</time>
      </trkpt>
      <trkpt lat="44.02379" lon="4.16344">
        <ele>80.89</ele>
        <time>2012-02-17T14:32:03Z</time>
      </trkpt>
      <trkpt lat="44.02375" lon="4.16342">
        <ele>80.41</ele>
        <time>2012-02-17T14:32:04Z</time>
      </trkpt>
      <trkpt lat="44.02372" lon="4.1634">
        <ele>80.89</ele>
        <time>2012-02-17T14:32:05Z</time>
      </trkpt>
      <trkpt lat="44.02368" lon="4.16337">
        <ele>81.37</ele>
        <time>2012-02-17T14:32:06Z</time>
      </trkpt>
      <trkpt lat="44.02364" lon="4.16334">
        <ele>80.41</ele>
        <time>2012-02-17T14:32:07Z</time>
      </trkpt>
      <trkpt lat="44.0236" lon="4.1633">
        <ele>80.41</ele>
        <time>2012-02-17T14:32:08Z</time>
      </trkpt>
      <trkpt lat="44.02357" lon="4.16326">
        <ele>80.89</ele>
        <time>2012-02-17T14:32:09Z</time>
      </trkpt>
      <trkpt lat="44.02354" lon="4.1632">
        <ele>81.37</ele>
        <time>2012-02-17T14:32:10Z</time>
      </trkpt>
      <trkpt lat="44.02351" lon="4.16315">
        <ele>80.89</ele>
        <time>2012-02-17T14:32:11Z</time>
      </trkpt>
      <trkpt lat="44.02345" lon="4.16304">
        <ele>80.89</ele>
        <time>2012-02-17T14:32:13Z</time>
      </trkpt>
      <trkpt lat="44.02342" lon="4.16298">
        <ele>81.37</ele>
        <time>2012-02-17T14:32:14Z</time>
      </trkpt>
      <trkpt lat="44.0232" lon="4.16269">
        <ele>80.89</ele>
        <time>2012-02-17T14:32:20Z</time>
      </trkpt>
      <trkpt lat="44.0229" lon="4.16239">
        <ele>80.41</ele>
        <time>2012-02-17T14:32:27Z</time>
      </trkpt>
      <trkpt lat="44.02283" lon="4.16229">
        <ele>80.89</ele>
        <time>2012-02-17T14:32:29Z</time>
      </trkpt>
      <trkpt lat="44.0228" lon="4.16223">
        <ele>80.41</ele>
        <time>2012-02-17T14:32:30Z</time>
      </trkpt>
      <trkpt lat="44.0227" lon="4.16199">
        <ele>80.89</ele>
        <time>2012-02-17T14:32:34Z</time>
      </trkpt>
      <trkpt lat="44.02268" lon="4.16192">
        <ele>80.89</ele>
        <time>2012-02-17T14:32:35Z</time>
      </trkpt>
      <trkpt lat="44.02264" lon="4.16178">
        <ele>80.89</ele>
        <time>2012-02-17T14:32:37Z</time>
      </trkpt>
      <trkpt lat="44.02262" lon="4.16172">
        <ele>81.37</ele>
        <time>2012-02-17T14:32:38Z</time>
      </trkpt>
      <trkpt lat="44.02259" lon="4.16166">
        <ele>80.89</ele>
        <time>2012-02-17T14:32:39Z</time>
      </trkpt>
      <trkpt lat="44.02252" lon="4.16156">
        <ele>80.89</ele>
        <time>2012-02-17T14:32:41Z</time>
      </trkpt>
      <trkpt lat="44.02248" lon="4.16151">
        <ele>80.89</ele>
        <time>2012-02-17T14:32:42Z</time>
      </trkpt>
      <trkpt lat="44.02244" lon="4.16145">
        <ele>80.41</ele>
        <time>2012-02-17T14:32:43Z</time>
      </trkpt>
      <trkpt lat="44.02241" lon="4.16139">
        <ele>80.89</ele>
        <time>2012-02-17T14:32:44Z</time>
      </trkpt>
      <trkpt lat="44.02238" lon="4.16133">
        <ele>80.89</ele>
        <time>2012-02-17T14:32:45Z</time>
      </trkpt>
      <trkpt lat="44.02225" lon="4.1611">
        <ele>80.41</ele>
        <time>2012-02-17T14:32:49Z</time>
      </trkpt>
      <trkpt lat="44.02209" lon="4.1608">
        <ele>80.89</ele>
        <time>2012-02-17T14:32:54Z</time>
      </trkpt>
      <trkpt lat="44.02206" lon="4.16073">
        <ele>80.89</ele>
        <time>2012-02-17T14:32:55Z</time>
      </trkpt>
      <trkpt lat="44.02197" lon="4.16056">
        <ele>81.37</ele>
        <time>2012-02-17T14:32:58Z</time>
      </trkpt>
      <trkpt lat="44.02183" lon="4.16028">
        <ele>82.33</ele>
        <time>2012-02-17T14:33:03Z</time>
      </trkpt>
      <trkpt lat="44.02179" lon="4.16017">
        <ele>81.85</ele>
        <time>2012-02-17T14:33:05Z</time>
      </trkpt>
      <trkpt lat="44.02178" lon="4.16011">
        <ele>81.85</ele>
        <time>2012-02-17T14:33:06Z</time>
      </trkpt>
      <trkpt lat="44.02177" lon="4.16004">
        <ele>82.81</ele>
        <time>2012-02-17T14:33:07Z</time>
      </trkpt>
      <trkpt lat="44.02176" lon="4.15998">
        <ele>82.33</ele>
        <time>2012-02-17T14:33:08Z</time>
      </trkpt>
      <trkpt lat="44.02177" lon="4.15992">
        <ele>81.85</ele>
        <time>2012-02-17T14:33:09Z</time>
      </trkpt>
      <trkpt lat="44.0218" lon="4.15986">
        <ele>81.85</ele>
        <time>2012-02-17T14:33:10Z</time>
      </trkpt>
      <trkpt lat="44.02183" lon="4.15981">
        <ele>82.81</ele>
        <time>2012-02-17T14:33:11Z</time>
      </trkpt>
      <trkpt lat="44.02186" lon="4.15976">
        <ele>82.33</ele>
        <time>2012-02-17T14:33:12Z</time>
      </trkpt>
      <trkpt lat="44.0219" lon="4.15972">
        <ele>82.81</ele>
        <time>2012-02-17T14:33:13Z</time>
      </trkpt>
      <trkpt lat="44.0223" lon="4.15912">
        <ele>82.81</ele>
        <time>2012-02-17T14:33:25Z</time>
      </trkpt>
      <trkpt lat="44.02237" lon="4.15902">
        <ele>82.81</ele>
        <time>2012-02-17T14:33:27Z</time>
      </trkpt>
      <trkpt lat="44.02242" lon="4.15899">
        <ele>82.81</ele>
        <time>2012-02-17T14:33:28Z</time>
      </trkpt>
      <trkpt lat="44.02249" lon="4.15893">
        <ele>83.29</ele>
        <time>2012-02-17T14:33:30Z</time>
      </trkpt>
      <trkpt lat="44.02252" lon="4.15888">
        <ele>82.33</ele>
        <time>2012-02-17T14:33:31Z</time>
      </trkpt>
      <trkpt lat="44.02252" lon="4.15883">
        <ele>82.33</ele>
        <time>2012-02-17T14:33:32Z</time>
      </trkpt>
      <trkpt lat="44.0225" lon="4.15878">
        <ele>82.33</ele>
        <time>2012-02-17T14:33:33Z</time>
      </trkpt>
      <trkpt lat="44.02246" lon="4.15874">
        <ele>82.33</ele>
        <time>2012-02-17T14:33:34Z</time>
      </trkpt>
      <trkpt lat="44.02242" lon="4.15871">
        <ele>81.85</ele>
        <time>2012-02-17T14:33:35Z</time>
      </trkpt>
      <trkpt lat="44.02195" lon="4.15847">
        <ele>82.33</ele>
        <time>2012-02-17T14:33:46Z</time>
      </trkpt>
      <trkpt lat="44.02191" lon="4.15845">
        <ele>82.33</ele>
        <time>2012-02-17T14:33:47Z</time>
      </trkpt>
      <trkpt lat="44.02175" lon="4.15835">
        <ele>82.81</ele>
        <time>2012-02-17T14:33:51Z</time>
      </trkpt>
      <trkpt lat="44.02119" lon="4.15805">
        <ele>82.81</ele>
        <time>2012-02-17T14:34:04Z</time>
      </trkpt>
      <trkpt lat="44.02046" lon="4.15765">
        <ele>83.77</ele>
        <time>2012-02-17T14:34:20Z</time>
      </trkpt>
      <trkpt lat="44.02037" lon="4.15759">
        <ele>83.29</ele>
        <time>2012-02-17T14:34:22Z</time>
      </trkpt>
      <trkpt lat="44.01994" lon="4.15723">
        <ele>83.29</ele>
        <time>2012-02-17T14:34:32Z</time>
      </trkpt>
      <trkpt lat="44.01989" lon="4.15721">
        <ele>82.81</ele>
        <time>2012-02-17T14:34:33Z</time>
      </trkpt>
      <trkpt lat="44.01985" lon="4.1572">
        <ele>82.81</ele>
        <time>2012-02-17T14:34:34Z</time>
      </trkpt>
      <trkpt lat="44.0198" lon="4.15721">
        <ele>82.81</ele>
        <time>2012-02-17T14:34:35Z</time>
      </trkpt>
      <trkpt lat="44.01975" lon="4.15723">
        <ele>83.29</ele>
        <time>2012-02-17T14:34:36Z</time>
      </trkpt>
      <trkpt lat="44.0197" lon="4.15725">
        <ele>82.81</ele>
        <time>2012-02-17T14:34:37Z</time>
      </trkpt>
      <trkpt lat="44.01965" lon="4.15729">
        <ele>83.29</ele>
        <time>2012-02-17T14:34:38Z</time>
      </trkpt>
      <trkpt lat="44.01961" lon="4.15734">
        <ele>83.77</ele>
        <time>2012-02-17T14:34:39Z</time>
      </trkpt>
      <trkpt lat="44.01957" lon="4.15738">
        <ele>83.29</ele>
        <time>2012-02-17T14:34:40Z</time>
      </trkpt>
      <trkpt lat="44.01953" lon="4.15744">
        <ele>83.29</ele>
        <time>2012-02-17T14:34:41Z</time>
      </trkpt>
      <trkpt lat="44.0195" lon="4.15749">
        <ele>83.29</ele>
        <time>2012-02-17T14:34:42Z</time>
      </trkpt>
      <trkpt lat="44.01947" lon="4.15753">
        <ele>83.77</ele>
        <time>2012-02-17T14:34:43Z</time>
      </trkpt>
      <trkpt lat="44.01943" lon="4.15756">
        <ele>83.29</ele>
        <time>2012-02-17T14:34:44Z</time>
      </trkpt>
      <trkpt lat="44.01938" lon="4.15756">
        <ele>82.81</ele>
        <time>2012-02-17T14:34:45Z</time>
      </trkpt>
      <trkpt lat="44.01934" lon="4.15755">
        <ele>82.81</ele>
        <time>2012-02-17T14:34:46Z</time>
      </trkpt>
      <trkpt lat="44.01931" lon="4.15753">
        <ele>83.29</ele>
        <time>2012-02-17T14:34:47Z</time>
      </trkpt>
      <trkpt lat="44.01927" lon="4.15749">
        <ele>82.81</ele>
        <time>2012-02-17T14:34:48Z</time>
      </trkpt>
      <trkpt lat="44.01924" lon="4.15745">
        <ele>82.33</ele>
        <time>2012-02-17T14:34:49Z</time>
      </trkpt>
      <trkpt lat="44.0192" lon="4.15742">
        <ele>82.33</ele>
        <time>2012-02-17T14:34:50Z</time>
      </trkpt>
      <trkpt lat="44.01916" lon="4.15738">
        <ele>82.81</ele>
        <time>2012-02-17T14:34:51Z</time>
      </trkpt>
      <trkpt lat="44.01913" lon="4.15733">
        <ele>82.33</ele>
        <time>2012-02-17T14:34:52Z</time>
      </trkpt>
      <trkpt lat="44.01902" lon="4.15719">
        <ele>81.85</ele>
        <time>2012-02-17T14:34:55Z</time>
      </trkpt>
      <trkpt lat="44.01899" lon="4.15713">
        <ele>80.89</ele>
        <time>2012-02-17T14:34:56Z</time>
      </trkpt>
      <trkpt lat="44.01896" lon="4.15708">
        <ele>81.37</ele>
        <time>2012-02-17T14:34:57Z</time>
      </trkpt>
      <trkpt lat="44.01894" lon="4.15701">
        <ele>80.41</ele>
        <time>2012-02-17T14:34:58Z</time>
      </trkpt>
      <trkpt lat="44.01892" lon="4.15695">
        <ele>80.89</ele>
        <time>2012-02-17T14:34:59Z</time>
      </trkpt>
      <trkpt lat="44.01889" lon="4.15688">
        <ele>81.37</ele>
        <time>2012-02-17T14:35:00Z</time>
      </trkpt>
      <trkpt lat="44.01874" lon="4.1565">
        <ele>80.41</ele>
        <time>2012-02-17T14:35:06Z</time>
      </trkpt>
      <trkpt lat="44.01871" lon="4.15645">
        <ele>79.93</ele>
        <time>2012-02-17T14:35:07Z</time>
      </trkpt>
      <trkpt lat="44.01856" lon="4.15624">
        <ele>79.45</ele>
        <time>2012-02-17T14:35:11Z</time>
      </trkpt>
      <trkpt lat="44.01853" lon="4.15618">
        <ele>78.97</ele>
        <time>2012-02-17T14:35:12Z</time>
      </trkpt>
      <trkpt lat="44.01846" lon="4.15601">
        <ele>79.93</ele>
        <time>2012-02-17T14:35:15Z</time>
      </trkpt>
      <trkpt lat="44.01845" lon="4.15596">
        <ele>80.41</ele>
        <time>2012-02-17T14:35:16Z</time>
      </trkpt>
      <trkpt lat="44.01845" lon="4.15591">
        <ele>80.41</ele>
        <time>2012-02-17T14:35:17Z</time>
      </trkpt>
      <trkpt lat="44.01847" lon="4.15587">
        <ele>81.37</ele>
        <time>2012-02-17T14:35:18Z</time>
      </trkpt>
      <trkpt lat="44.0185" lon="4.15582">
        <ele>81.37</ele>
        <time>2012-02-17T14:35:19Z</time>
      </trkpt>
      <trkpt lat="44.01852" lon="4.15576">
        <ele>81.85</ele>
        <time>2012-02-17T14:35:20Z</time>
      </trkpt>
      <trkpt lat="44.01853" lon="4.15569">
        <ele>81.37</ele>
        <time>2012-02-17T14:35:21Z</time>
      </trkpt>
      <trkpt lat="44.01852" lon="4.15563">
        <ele>81.85</ele>
        <time>2012-02-17T14:35:22Z</time>
      </trkpt>
      <trkpt lat="44.01851" lon="4.15557">
        <ele>81.37</ele>
        <time>2012-02-17T14:35:23Z</time>
      </trkpt>
      <trkpt lat="44.01849" lon="4.15552">
        <ele>82.33</ele>
        <time>2012-02-17T14:35:24Z</time>
      </trkpt>
      <trkpt lat="44.01847" lon="4.15547">
        <ele>81.85</ele>
        <time>2012-02-17T14:35:25Z</time>
      </trkpt>
      <trkpt lat="44.01845" lon="4.15542">
        <ele>82.33</ele>
        <time>2012-02-17T14:35:26Z</time>
      </trkpt>
      <trkpt lat="44.01843" lon="4.15536">
        <ele>82.33</ele>
        <time>2012-02-17T14:35:27Z</time>
      </trkpt>
      <trkpt lat="44.01841" lon="4.1553">
        <ele>81.85</ele>
        <time>2012-02-17T14:35:28Z</time>
      </trkpt>
      <trkpt lat="44.0184" lon="4.15523">
        <ele>82.81</ele>
        <time>2012-02-17T14:35:29Z</time>
      </trkpt>
      <trkpt lat="44.01838" lon="4.15516">
        <ele>82.81</ele>
        <time>2012-02-17T14:35:30Z</time>
      </trkpt>
      <trkpt lat="44.01838" lon="4.15509">
        <ele>82.33</ele>
        <time>2012-02-17T14:35:31Z</time>
      </trkpt>
      <trkpt lat="44.01837" lon="4.15503">
        <ele>82.33</ele>
        <time>2012-02-17T14:35:32Z</time>
      </trkpt>
      <trkpt lat="44.01835" lon="4.15499">
        <ele>83.29</ele>
        <time>2012-02-17T14:35:33Z</time>
      </trkpt>
      <trkpt lat="44.01831" lon="4.15496">
        <ele>83.29</ele>
        <time>2012-02-17T14:35:34Z</time>
      </trkpt>
      <trkpt lat="44.0183" lon="4.15492">
        <ele>82.81</ele>
        <time>2012-02-17T14:35:35Z</time>
      </trkpt>
      <trkpt lat="44.01831" lon="4.15488">
        <ele>83.29</ele>
        <time>2012-02-17T14:35:36Z</time>
      </trkpt>
      <trkpt lat="44.01832" lon="4.15483">
        <ele>82.81</ele>
        <time>2012-02-17T14:35:37Z</time>
      </trkpt>
      <trkpt lat="44.01833" lon="4.15479">
        <ele>82.81</ele>
        <time>2012-02-17T14:35:38Z</time>
      </trkpt>
      <trkpt lat="44.01833" lon="4.15475">
        <ele>83.77</ele>
        <time>2012-02-17T14:35:39Z</time>
      </trkpt>
      <trkpt lat="44.01831" lon="4.1547">
        <ele>83.77</ele>
        <time>2012-02-17T14:35:40Z</time>
      </trkpt>
      <trkpt lat="44.01829" lon="4.15466">
        <ele>83.29</ele>
        <time>2012-02-17T14:35:41Z</time>
      </trkpt>
      <trkpt lat="44.01827" lon="4.15461">
        <ele>83.29</ele>
        <time>2012-02-17T14:35:42Z</time>
      </trkpt>
      <trkpt lat="44.01824" lon="4.15456">
        <ele>83.77</ele>
        <time>2012-02-17T14:35:43Z</time>
      </trkpt>
      <trkpt lat="44.01807" lon="4.15432">
        <ele>83.77</ele>
        <time>2012-02-17T14:35:49Z</time>
      </trkpt>
      <trkpt lat="44.01804" lon="4.15427">
        <ele>83.77</ele>
        <time>2012-02-17T14:35:50Z</time>
      </trkpt>
      <trkpt lat="44.01802" lon="4.15423">
        <ele>84.25</ele>
        <time>2012-02-17T14:35:51Z</time>
      </trkpt>
      <trkpt lat="44.01777" lon="4.15384">
        <ele>83.77</ele>
        <time>2012-02-17T14:36:00Z</time>
      </trkpt>
      <trkpt lat="44.01774" lon="4.1538">
        <ele>83.77</ele>
        <time>2012-02-17T14:36:01Z</time>
      </trkpt>
      <trkpt lat="44.01746" lon="4.15332">
        <ele>82.81</ele>
        <time>2012-02-17T14:36:12Z</time>
      </trkpt>
      <trkpt lat="44.01743" lon="4.15331">
        <ele>83.29</ele>
        <time>2012-02-17T14:36:13Z</time>
      </trkpt>
      <trkpt lat="44.0174" lon="4.15333">
        <ele>83.77</ele>
        <time>2012-02-17T14:36:14Z</time>
      </trkpt>
      <trkpt lat="44.01737" lon="4.15337">
        <ele>83.77</ele>
        <time>2012-02-17T14:36:15Z</time>
      </trkpt>
      <trkpt lat="44.01734" lon="4.15341">
        <ele>83.77</ele>
        <time>2012-02-17T14:36:16Z</time>
      </trkpt>
      <trkpt lat="44.01731" lon="4.15346">
        <ele>83.77</ele>
        <time>2012-02-17T14:36:17Z</time>
      </trkpt>
      <trkpt lat="44.01728" lon="4.15351">
        <ele>83.77</ele>
        <time>2012-02-17T14:36:18Z</time>
      </trkpt>
      <trkpt lat="44.01724" lon="4.15356">
        <ele>83.77</ele>
        <time>2012-02-17T14:36:19Z</time>
      </trkpt>
      <trkpt lat="44.01697" lon="4.15391">
        <ele>83.29</ele>
        <time>2012-02-17T14:36:27Z</time>
      </trkpt>
      <trkpt lat="44.01688" lon="4.15401">
        <ele>83.29</ele>
        <time>2012-02-17T14:36:30Z</time>
      </trkpt>
      <trkpt lat="44.01684" lon="4.15401">
        <ele>83.29</ele>
        <time>2012-02-17T14:36:31Z</time>
      </trkpt>
      <trkpt lat="44.0168" lon="4.15399">
        <ele>83.77</ele>
        <time>2012-02-17T14:36:32Z</time>
      </trkpt>
      <trkpt lat="44.01655" lon="4.15373">
        <ele>83.77</ele>
        <time>2012-02-17T14:36:42Z</time>
      </trkpt>
      <trkpt lat="44.01652" lon="4.1533">
        <ele>84.25</ele>
        <time>2012-02-17T14:36:52Z</time>
      </trkpt>
      <trkpt lat="44.01655" lon="4.1532">
        <ele>83.77</ele>
        <time>2012-02-17T14:36:54Z</time>
      </trkpt>
      <trkpt lat="44.01658" lon="4.15315">
        <ele>84.25</ele>
        <time>2012-02-17T14:36:55Z</time>
      </trkpt>
      <trkpt lat="44.0166" lon="4.1531">
        <ele>84.25</ele>
        <time>2012-02-17T14:36:56Z</time>
      </trkpt>
      <trkpt lat="44.01663" lon="4.15306">
        <ele>84.25</ele>
        <time>2012-02-17T14:36:57Z</time>
      </trkpt>
      <trkpt lat="44.01666" lon="4.15302">
        <ele>84.25</ele>
        <time>2012-02-17T14:36:58Z</time>
      </trkpt>
      <trkpt lat="44.01691" lon="4.15271">
        <ele>84.25</ele>
        <time>2012-02-17T14:37:06Z</time>
      </trkpt>
      <trkpt lat="44.01694" lon="4.15266">
        <ele>84.73</ele>
        <time>2012-02-17T14:37:07Z</time>
      </trkpt>
      <trkpt lat="44.01695" lon="4.15261">
        <ele>83.77</ele>
        <time>2012-02-17T14:37:08Z</time>
      </trkpt>
      <trkpt lat="44.01694" lon="4.15254">
        <ele>83.29</ele>
        <time>2012-02-17T14:37:09Z</time>
      </trkpt>
      <trkpt lat="44.01692" lon="4.15249">
        <ele>83.77</ele>
        <time>2012-02-17T14:37:10Z</time>
      </trkpt>
      <trkpt lat="44.0169" lon="4.15243">
        <ele>84.25</ele>
        <time>2012-02-17T14:37:11Z</time>
      </trkpt>
      <trkpt lat="44.01687" lon="4.15238">
        <ele>84.25</ele>
        <time>2012-02-17T14:37:12Z</time>
      </trkpt>
      <trkpt lat="44.01684" lon="4.15233">
        <ele>83.77</ele>
        <time>2012-02-17T14:37:13Z</time>
      </trkpt>
      <trkpt lat="44.01681" lon="4.15227">
        <ele>83.77</ele>
        <time>2012-02-17T14:37:14Z</time>
      </trkpt>
      <trkpt lat="44.01678" lon="4.15222">
        <ele>83.29</ele>
        <time>2012-02-17T14:37:15Z</time>
      </trkpt>
      <trkpt lat="44.01647" lon="4.15168">
        <ele>83.77</ele>
        <time>2012-02-17T14:37:26Z</time>
      </trkpt>
      <trkpt lat="44.01645" lon="4.15163">
        <ele>83.77</ele>
        <time>2012-02-17T14:37:27Z</time>
      </trkpt>
      <trkpt lat="44.01643" lon="4.15157">
        <ele>84.73</ele>
        <time>2012-02-17T14:37:28Z</time>
      </trkpt>
      <trkpt lat="44.01628" lon="4.15119">
        <ele>83.77</ele>
        <time>2012-02-17T14:37:35Z</time>
      </trkpt>
      <trkpt lat="44.01625" lon="4.15115">
        <ele>84.25</ele>
        <time>2012-02-17T14:37:36Z</time>
      </trkpt>
      <trkpt lat="44.01615" lon="4.15094">
        <ele>84.25</ele>
        <time>2012-02-17T14:37:40Z</time>
      </trkpt>
      <trkpt lat="44.01613" lon="4.15088">
        <ele>84.25</ele>
        <time>2012-02-17T14:37:41Z</time>
      </trkpt>
      <trkpt lat="44.0161" lon="4.15083">
        <ele>83.77</ele>
        <time>2012-02-17T14:37:42Z</time>
      </trkpt>
      <trkpt lat="44.01578" lon="4.15019">
        <ele>84.25</ele>
        <time>2012-02-17T14:37:54Z</time>
      </trkpt>
      <trkpt lat="44.01573" lon="4.15008">
        <ele>84.25</ele>
        <time>2012-02-17T14:37:56Z</time>
      </trkpt>
      <trkpt lat="44.01568" lon="4.14998">
        <ele>83.77</ele>
        <time>2012-02-17T14:37:58Z</time>
      </trkpt>
      <trkpt lat="44.01549" lon="4.14954">
        <ele>83.77</ele>
        <time>2012-02-17T14:38:06Z</time>
      </trkpt>
      <trkpt lat="44.01543" lon="4.14937">
        <ele>84.73</ele>
        <time>2012-02-17T14:38:09Z</time>
      </trkpt>
      <trkpt lat="44.01533" lon="4.14917">
        <ele>84.73</ele>
        <time>2012-02-17T14:38:13Z</time>
      </trkpt>
      <trkpt lat="44.01529" lon="4.14913">
        <ele>84.25</ele>
        <time>2012-02-17T14:38:14Z</time>
      </trkpt>
      <trkpt lat="44.01507" lon="4.14886">
        <ele>84.25</ele>
        <time>2012-02-17T14:38:20Z</time>
      </trkpt>
      <trkpt lat="44.01503" lon="4.14884">
        <ele>84.25</ele>
        <time>2012-02-17T14:38:21Z</time>
      </trkpt>
      <trkpt lat="44.01499" lon="4.1488">
        <ele>83.77</ele>
        <time>2012-02-17T14:38:22Z</time>
      </trkpt>
      <trkpt lat="44.01495" lon="4.14876">
        <ele>83.77</ele>
        <time>2012-02-17T14:38:23Z</time>
      </trkpt>
      <trkpt lat="44.01491" lon="4.14871">
        <ele>84.25</ele>
        <time>2012-02-17T14:38:24Z</time>
      </trkpt>
      <trkpt lat="44.0148" lon="4.14857">
        <ele>85.21</ele>
        <time>2012-02-17T14:38:27Z</time>
      </trkpt>
      <trkpt lat="44.01476" lon="4.14852">
        <ele>84.73</ele>
        <time>2012-02-17T14:38:28Z</time>
      </trkpt>
      <trkpt lat="44.01473" lon="4.14847">
        <ele>84.73</ele>
        <time>2012-02-17T14:38:29Z</time>
      </trkpt>
      <trkpt lat="44.0147" lon="4.14841">
        <ele>84.73</ele>
        <time>2012-02-17T14:38:30Z</time>
      </trkpt>
      <trkpt lat="44.01468" lon="4.14835">
        <ele>84.73</ele>
        <time>2012-02-17T14:38:31Z</time>
      </trkpt>
      <trkpt lat="44.01453" lon="4.14809">
        <ele>84.73</ele>
        <time>2012-02-17T14:38:36Z</time>
      </trkpt>
      <trkpt lat="44.01449" lon="4.14805">
        <ele>84.73</ele>
        <time>2012-02-17T14:38:37Z</time>
      </trkpt>
      <trkpt lat="44.01444" lon="4.14802">
        <ele>84.73</ele>
        <time>2012-02-17T14:38:38Z</time>
      </trkpt>
      <trkpt lat="44.0144" lon="4.14801">
        <ele>85.21</ele>
        <time>2012-02-17T14:38:39Z</time>
      </trkpt>
      <trkpt lat="44.01435" lon="4.14802">
        <ele>85.69</ele>
        <time>2012-02-17T14:38:40Z</time>
      </trkpt>
      <trkpt lat="44.0143" lon="4.14803">
        <ele>85.21</ele>
        <time>2012-02-17T14:38:41Z</time>
      </trkpt>
      <trkpt lat="44.01425" lon="4.14805">
        <ele>85.69</ele>
        <time>2012-02-17T14:38:42Z</time>
      </trkpt>
      <trkpt lat="44.0139" lon="4.14821">
        <ele>84.73</ele>
        <time>2012-02-17T14:38:50Z</time>
      </trkpt>
      <trkpt lat="44.01387" lon="4.1482">
        <ele>84.25</ele>
        <time>2012-02-17T14:38:51Z</time>
      </trkpt>
      <trkpt lat="44.01385" lon="4.14817">
        <ele>84.73</ele>
        <time>2012-02-17T14:38:52Z</time>
      </trkpt>
      <trkpt lat="44.01383" lon="4.14813">
        <ele>84.73</ele>
        <time>2012-02-17T14:38:53Z</time>
      </trkpt>
      <trkpt lat="44.01379" lon="4.1481">
        <ele>83.77</ele>
        <time>2012-02-17T14:38:54Z</time>
      </trkpt>
      <trkpt lat="44.01376" lon="4.14806">
        <ele>83.77</ele>
        <time>2012-02-17T14:38:55Z</time>
      </trkpt>
      <trkpt lat="44.01372" lon="4.14797">
        <ele>84.25</ele>
        <time>2012-02-17T14:38:57Z</time>
      </trkpt>
      <trkpt lat="44.01362" lon="4.1477">
        <ele>83.77</ele>
        <time>2012-02-17T14:39:02Z</time>
      </trkpt>
      <trkpt lat="44.01345" lon="4.14723">
        <ele>84.25</ele>
        <time>2012-02-17T14:39:11Z</time>
      </trkpt>
      <trkpt lat="44.01344" lon="4.14717">
        <ele>84.73</ele>
        <time>2012-02-17T14:39:12Z</time>
      </trkpt>
      <trkpt lat="44.01346" lon="4.14696">
        <ele>84.73</ele>
        <time>2012-02-17T14:39:16Z</time>
      </trkpt>
      <trkpt lat="44.01346" lon="4.1469">
        <ele>85.21</ele>
        <time>2012-02-17T14:39:17Z</time>
      </trkpt>
      <trkpt lat="44.01346" lon="4.14673">
        <ele>84.73</ele>
        <time>2012-02-17T14:39:20Z</time>
      </trkpt>
      <trkpt lat="44.01347" lon="4.14667">
        <ele>85.21</ele>
        <time>2012-02-17T14:39:21Z</time>
      </trkpt>
      <trkpt lat="44.01348" lon="4.14662">
        <ele>85.69</ele>
        <time>2012-02-17T14:39:22Z</time>
      </trkpt>
      <trkpt lat="44.0136" lon="4.14632">
        <ele>85.69</ele>
        <time>2012-02-17T14:39:28Z</time>
      </trkpt>
      <trkpt lat="44.01363" lon="4.14628">
        <ele>85.69</ele>
        <time>2012-02-17T14:39:29Z</time>
      </trkpt>
      <trkpt lat="44.01366" lon="4.14625">
        <ele>85.21</ele>
        <time>2012-02-17T14:39:30Z</time>
      </trkpt>
      <trkpt lat="44.01381" lon="4.14614">
        <ele>85.69</ele>
        <time>2012-02-17T14:39:34Z</time>
      </trkpt>
      <trkpt lat="44.01385" lon="4.14612">
        <ele>85.21</ele>
        <time>2012-02-17T14:39:35Z</time>
      </trkpt>
      <trkpt lat="44.01389" lon="4.14611">
        <ele>85.21</ele>
        <time>2012-02-17T14:39:36Z</time>
      </trkpt>
      <trkpt lat="44.01423" lon="4.1459">
        <ele>85.21</ele>
        <time>2012-02-17T14:39:47Z</time>
      </trkpt>
      <trkpt lat="44.01427" lon="4.14574">
        <ele>85.21</ele>
        <time>2012-02-17T14:39:51Z</time>
      </trkpt>
      <trkpt lat="44.01426" lon="4.1457">
        <ele>84.73</ele>
        <time>2012-02-17T14:39:52Z</time>
      </trkpt>
      <trkpt lat="44.01424" lon="4.14524">
        <ele>83.77</ele>
        <time>2012-02-17T14:40:01Z</time>
      </trkpt>
      <trkpt lat="44.01422" lon="4.14496">
        <ele>84.25</ele>
        <time>2012-02-17T14:40:06Z</time>
      </trkpt>
      <trkpt lat="44.01422" lon="4.14468">
        <ele>84.73</ele>
        <time>2012-02-17T14:40:11Z</time>
      </trkpt>
      <trkpt lat="44.01422" lon="4.14462">
        <ele>84.73</ele>
        <time>2012-02-17T14:40:12Z</time>
      </trkpt>
      <trkpt lat="44.01423" lon="4.14451">
        <ele>85.21</ele>
        <time>2012-02-17T14:40:14Z</time>
      </trkpt>
      <trkpt lat="44.01424" lon="4.14445">
        <ele>85.21</ele>
        <time>2012-02-17T14:40:15Z</time>
      </trkpt>
      <trkpt lat="44.01426" lon="4.14434">
        <ele>85.69</ele>
        <time>2012-02-17T14:40:17Z</time>
      </trkpt>
      <trkpt lat="44.01428" lon="4.14428">
        <ele>85.21</ele>
        <time>2012-02-17T14:40:18Z</time>
      </trkpt>
      <trkpt lat="44.0143" lon="4.14422">
        <ele>85.69</ele>
        <time>2012-02-17T14:40:19Z</time>
      </trkpt>
      <trkpt lat="44.01432" lon="4.14416">
        <ele>85.69</ele>
        <time>2012-02-17T14:40:20Z</time>
      </trkpt>
      <trkpt lat="44.01434" lon="4.14411">
        <ele>86.18</ele>
        <time>2012-02-17T14:40:21Z</time>
      </trkpt>
      <trkpt lat="44.01443" lon="4.14384">
        <ele>85.69</ele>
        <time>2012-02-17T14:40:26Z</time>
      </trkpt>
      <trkpt lat="44.01448" lon="4.14369">
        <ele>85.69</ele>
        <time>2012-02-17T14:40:35Z</time>
      </trkpt>
      <trkpt lat="44.01448" lon="4.14369">
        <ele>85.69</ele>
        <time>2012-02-17T14:41:03Z</time>
      </trkpt>
      <trkpt lat="44.01448" lon="4.14369">
        <ele>85.69</ele>
        <time>2012-02-17T14:41:35Z</time>
      </trkpt>
      <trkpt lat="44.01449" lon="4.14369">
        <ele>85.69</ele>
        <time>2012-02-17T14:42:03Z</time>
      </trkpt>
      <trkpt lat="44.01451" lon="4.14368">
        <ele>85.69</ele>
        <time>2012-02-17T14:42:14Z</time>
      </trkpt>
      <trkpt lat="44.01452" lon="4.14367">
        <ele>85.69</ele>
        <time>2012-02-17T14:42:15Z</time>
      </trkpt>
      <trkpt lat="44.01454" lon="4.14366">
        <ele>86.18</ele>
        <time>2012-02-17T14:42:16Z</time>
      </trkpt>
      <trkpt lat="44.01455" lon="4.14365">
        <ele>85.69</ele>
        <time>2012-02-17T14:42:17Z</time>
      </trkpt>
      <trkpt lat="44.01457" lon="4.14364">
        <ele>85.21</ele>
        <time>2012-02-17T14:42:18Z</time>
      </trkpt>
      <trkpt lat="44.01458" lon="4.14362">
        <ele>85.69</ele>
        <time>2012-02-17T14:42:19Z</time>
      </trkpt>
      <trkpt lat="44.01458" lon="4.14359">
        <ele>85.21</ele>
        <time>2012-02-17T14:42:20Z</time>
      </trkpt>
      <trkpt lat="44.01474" lon="4.14322">
        <ele>86.66</ele>
        <time>2012-02-17T14:42:31Z</time>
      </trkpt>
      <trkpt lat="44.015" lon="4.14281">
        <ele>87.14</ele>
        <time>2012-02-17T14:42:42Z</time>
      </trkpt>
      <trkpt lat="44.01551" lon="4.14252">
        <ele>87.62</ele>
        <time>2012-02-17T14:42:56Z</time>
      </trkpt>
      <trkpt lat="44.01562" lon="4.14246">
        <ele>88.1</ele>
        <time>2012-02-17T14:42:59Z</time>
      </trkpt>
      <trkpt lat="44.01566" lon="4.14244">
        <ele>87.14</ele>
        <time>2012-02-17T14:43:00Z</time>
      </trkpt>
      <trkpt lat="44.01576" lon="4.14235">
        <ele>88.58</ele>
        <time>2012-02-17T14:43:03Z</time>
      </trkpt>
      <trkpt lat="44.01583" lon="4.14227">
        <ele>89.54</ele>
        <time>2012-02-17T14:43:05Z</time>
      </trkpt>
      <trkpt lat="44.0162" lon="4.1422">
        <ele>88.58</ele>
        <time>2012-02-17T14:43:15Z</time>
      </trkpt>
      <trkpt lat="44.01624" lon="4.14219">
        <ele>89.06</ele>
        <time>2012-02-17T14:43:16Z</time>
      </trkpt>
      <trkpt lat="44.01636" lon="4.14218">
        <ele>89.06</ele>
        <time>2012-02-17T14:43:19Z</time>
      </trkpt>
      <trkpt lat="44.01682" lon="4.1422">
        <ele>90.02</ele>
        <time>2012-02-17T14:43:30Z</time>
      </trkpt>
      <trkpt lat="44.01706" lon="4.14214">
        <ele>89.54</ele>
        <time>2012-02-17T14:43:36Z</time>
      </trkpt>
      <trkpt lat="44.01732" lon="4.14185">
        <ele>89.06</ele>
        <time>2012-02-17T14:43:45Z</time>
      </trkpt>
      <trkpt lat="44.01734" lon="4.1418">
        <ele>89.06</ele>
        <time>2012-02-17T14:43:46Z</time>
      </trkpt>
      <trkpt lat="44.01757" lon="4.14132">
        <ele>89.06</ele>
        <time>2012-02-17T14:43:55Z</time>
      </trkpt>
      <trkpt lat="44.0176" lon="4.14128">
        <ele>88.1</ele>
        <time>2012-02-17T14:43:56Z</time>
      </trkpt>
      <trkpt lat="44.01764" lon="4.14125">
        <ele>88.58</ele>
        <time>2012-02-17T14:43:57Z</time>
      </trkpt>
      <trkpt lat="44.01768" lon="4.14124">
        <ele>88.58</ele>
        <time>2012-02-17T14:43:58Z</time>
      </trkpt>
      <trkpt lat="44.01773" lon="4.14122">
        <ele>88.58</ele>
        <time>2012-02-17T14:43:59Z</time>
      </trkpt>
      <trkpt lat="44.01777" lon="4.14121">
        <ele>88.1</ele>
        <time>2012-02-17T14:44:00Z</time>
      </trkpt>
      <trkpt lat="44.01781" lon="4.1412">
        <ele>89.06</ele>
        <time>2012-02-17T14:44:01Z</time>
      </trkpt>
      <trkpt lat="44.01786" lon="4.14119">
        <ele>88.58</ele>
        <time>2012-02-17T14:44:02Z</time>
      </trkpt>
      <trkpt lat="44.01791" lon="4.1412">
        <ele>87.62</ele>
        <time>2012-02-17T14:44:03Z</time>
      </trkpt>
      <trkpt lat="44.01796" lon="4.14123">
        <ele>88.1</ele>
        <time>2012-02-17T14:44:04Z</time>
      </trkpt>
      <trkpt lat="44.018" lon="4.14124">
        <ele>87.62</ele>
        <time>2012-02-17T14:44:05Z</time>
      </trkpt>
      <trkpt lat="44.01804" lon="4.14126">
        <ele>87.14</ele>
        <time>2012-02-17T14:44:06Z</time>
      </trkpt>
      <trkpt lat="44.01809" lon="4.14128">
        <ele>87.62</ele>
        <time>2012-02-17T14:44:07Z</time>
      </trkpt>
      <trkpt lat="44.01837" lon="4.14141">
        <ele>87.14</ele>
        <time>2012-02-17T14:44:13Z</time>
      </trkpt>
      <trkpt lat="44.01842" lon="4.14141">
        <ele>87.14</ele>
        <time>2012-02-17T14:44:14Z</time>
      </trkpt>
      <trkpt lat="44.01846" lon="4.1414">
        <ele>87.14</ele>
        <time>2012-02-17T14:44:15Z</time>
      </trkpt>
      <trkpt lat="44.01855" lon="4.14138">
        <ele>87.62</ele>
        <time>2012-02-17T14:44:17Z</time>
      </trkpt>
      <trkpt lat="44.01859" lon="4.14139">
        <ele>86.66</ele>
        <time>2012-02-17T14:44:18Z</time>
      </trkpt>
      <trkpt lat="44.01864" lon="4.14142">
        <ele>87.14</ele>
        <time>2012-02-17T14:44:19Z</time>
      </trkpt>
      <trkpt lat="44.01868" lon="4.14145">
        <ele>87.14</ele>
        <time>2012-02-17T14:44:20Z</time>
      </trkpt>
      <trkpt lat="44.01872" lon="4.14147">
        <ele>87.62</ele>
        <time>2012-02-17T14:44:21Z</time>
      </trkpt>
      <trkpt lat="44.01876" lon="4.14149">
        <ele>87.14</ele>
        <time>2012-02-17T14:44:22Z</time>
      </trkpt>
      <trkpt lat="44.01881" lon="4.14151">
        <ele>87.14</ele>
        <time>2012-02-17T14:44:23Z</time>
      </trkpt>
      <trkpt lat="44.01885" lon="4.14152">
        <ele>86.66</ele>
        <time>2012-02-17T14:44:24Z</time>
      </trkpt>
      <trkpt lat="44.01939" lon="4.14163">
        <ele>88.58</ele>
        <time>2012-02-17T14:44:36Z</time>
      </trkpt>
      <trkpt lat="44.01943" lon="4.14166">
        <ele>88.58</ele>
        <time>2012-02-17T14:44:37Z</time>
      </trkpt>
      <trkpt lat="44.01947" lon="4.1417">
        <ele>88.1</ele>
        <time>2012-02-17T14:44:38Z</time>
      </trkpt>
      <trkpt lat="44.01951" lon="4.14173">
        <ele>87.62</ele>
        <time>2012-02-17T14:44:39Z</time>
      </trkpt>
      <trkpt lat="44.01956" lon="4.14176">
        <ele>88.58</ele>
        <time>2012-02-17T14:44:40Z</time>
      </trkpt>
      <trkpt lat="44.01964" lon="4.14182">
        <ele>88.1</ele>
        <time>2012-02-17T14:44:42Z</time>
      </trkpt>
      <trkpt lat="44.01986" lon="4.14193">
        <ele>88.1</ele>
        <time>2012-02-17T14:44:47Z</time>
      </trkpt>
      <trkpt lat="44.0202" lon="4.14218">
        <ele>87.62</ele>
        <time>2012-02-17T14:44:55Z</time>
      </trkpt>
      <trkpt lat="44.02048" lon="4.14243">
        <ele>87.62</ele>
        <time>2012-02-17T14:45:02Z</time>
      </trkpt>
      <trkpt lat="44.02053" lon="4.14245">
        <ele>88.1</ele>
        <time>2012-02-17T14:45:03Z</time>
      </trkpt>
      <trkpt lat="44.02057" lon="4.14247">
        <ele>87.62</ele>
        <time>2012-02-17T14:45:04Z</time>
      </trkpt>
      <trkpt lat="44.0206" lon="4.1425">
        <ele>87.62</ele>
        <time>2012-02-17T14:45:05Z</time>
      </trkpt>
      <trkpt lat="44.02063" lon="4.14254">
        <ele>87.62</ele>
        <time>2012-02-17T14:45:06Z</time>
      </trkpt>
      <trkpt lat="44.02067" lon="4.14258">
        <ele>87.62</ele>
        <time>2012-02-17T14:45:07Z</time>
      </trkpt>
      <trkpt lat="44.0207" lon="4.14262">
        <ele>87.14</ele>
        <time>2012-02-17T14:45:08Z</time>
      </trkpt>
      <trkpt lat="44.02074" lon="4.14265">
        <ele>87.14</ele>
        <time>2012-02-17T14:45:09Z</time>
      </trkpt>
      <trkpt lat="44.02082" lon="4.14271">
        <ele>87.62</ele>
        <time>2012-02-17T14:45:11Z</time>
      </trkpt>
      <trkpt lat="44.0209" lon="4.14276">
        <ele>87.14</ele>
        <time>2012-02-17T14:45:13Z</time>
      </trkpt>
      <trkpt lat="44.02093" lon="4.1428">
        <ele>87.14</ele>
        <time>2012-02-17T14:45:14Z</time>
      </trkpt>
      <trkpt lat="44.021" lon="4.14286">
        <ele>87.14</ele>
        <time>2012-02-17T14:45:16Z</time>
      </trkpt>
      <trkpt lat="44.02128" lon="4.14309">
        <ele>86.18</ele>
        <time>2012-02-17T14:45:25Z</time>
      </trkpt>
      <trkpt lat="44.02132" lon="4.14312">
        <ele>86.66</ele>
        <time>2012-02-17T14:45:26Z</time>
      </trkpt>
      <trkpt lat="44.02135" lon="4.14314">
        <ele>86.66</ele>
        <time>2012-02-17T14:45:27Z</time>
      </trkpt>
      <trkpt lat="44.02138" lon="4.14317">
        <ele>87.14</ele>
        <time>2012-02-17T14:45:28Z</time>
      </trkpt>
      <trkpt lat="44.02141" lon="4.1432">
        <ele>86.66</ele>
        <time>2012-02-17T14:45:29Z</time>
      </trkpt>
      <trkpt lat="44.02144" lon="4.14323">
        <ele>86.18</ele>
        <time>2012-02-17T14:45:30Z</time>
      </trkpt>
      <trkpt lat="44.02147" lon="4.14326">
        <ele>86.66</ele>
        <time>2012-02-17T14:45:31Z</time>
      </trkpt>
      <trkpt lat="44.02165" lon="4.14347">
        <ele>86.66</ele>
        <time>2012-02-17T14:45:37Z</time>
      </trkpt>
      <trkpt lat="44.02199" lon="4.14374">
        <ele>87.14</ele>
        <time>2012-02-17T14:45:48Z</time>
      </trkpt>
      <trkpt lat="44.02201" lon="4.14377">
        <ele>86.66</ele>
        <time>2012-02-17T14:45:49Z</time>
      </trkpt>
      <trkpt lat="44.02213" lon="4.14385">
        <ele>87.14</ele>
        <time>2012-02-17T14:45:54Z</time>
      </trkpt>
      <trkpt lat="44.02243" lon="4.14405">
        <ele>87.14</ele>
        <time>2012-02-17T14:46:04Z</time>
      </trkpt>
      <trkpt lat="44.02254" lon="4.14405">
        <ele>87.14</ele>
        <time>2012-02-17T14:46:08Z</time>
      </trkpt>
      <trkpt lat="44.02281" lon="4.14419">
        <ele>87.62</ele>
        <time>2012-02-17T14:46:16Z</time>
      </trkpt>
      <trkpt lat="44.02293" lon="4.14421">
        <ele>87.14</ele>
        <time>2012-02-17T14:46:19Z</time>
      </trkpt>
      <trkpt lat="44.02301" lon="4.14429">
        <ele>87.14</ele>
        <time>2012-02-17T14:46:23Z</time>
      </trkpt>
      <trkpt lat="44.02332" lon="4.1444">
        <ele>86.66</ele>
        <time>2012-02-17T14:46:33Z</time>
      </trkpt>
      <trkpt lat="44.02343" lon="4.1445">
        <ele>87.14</ele>
        <time>2012-02-17T14:46:37Z</time>
      </trkpt>
      <trkpt lat="44.02344" lon="4.14473">
        <ele>87.62</ele>
        <time>2012-02-17T14:46:42Z</time>
      </trkpt>
      <trkpt lat="44.02352" lon="4.14509">
        <ele>89.06</ele>
        <time>2012-02-17T14:46:50Z</time>
      </trkpt>
      <trkpt lat="44.02353" lon="4.14514">
        <ele>89.06</ele>
        <time>2012-02-17T14:46:51Z</time>
      </trkpt>
      <trkpt lat="44.02356" lon="4.14517">
        <ele>89.06</ele>
        <time>2012-02-17T14:46:52Z</time>
      </trkpt>
      <trkpt lat="44.02397" lon="4.14536">
        <ele>88.1</ele>
        <time>2012-02-17T14:47:03Z</time>
      </trkpt>
      <trkpt lat="44.02445" lon="4.14558">
        <ele>88.58</ele>
        <time>2012-02-17T14:47:17Z</time>
      </trkpt>
      <trkpt lat="44.02454" lon="4.14567">
        <ele>89.54</ele>
        <time>2012-02-17T14:47:20Z</time>
      </trkpt>
      <trkpt lat="44.02468" lon="4.14584">
        <ele>90.5</ele>
        <time>2012-02-17T14:47:25Z</time>
      </trkpt>
      <trkpt lat="44.02476" lon="4.14584">
        <ele>90.98</ele>
        <time>2012-02-17T14:47:29Z</time>
      </trkpt>
      <trkpt lat="44.02511" lon="4.14582">
        <ele>91.46</ele>
        <time>2012-02-17T14:47:42Z</time>
      </trkpt>
      <trkpt lat="44.02559" lon="4.14585">
        <ele>91.94</ele>
        <time>2012-02-17T14:47:56Z</time>
      </trkpt>
      <trkpt lat="44.02578" lon="4.14585">
        <ele>90.98</ele>
        <time>2012-02-17T14:48:01Z</time>
      </trkpt>
      <trkpt lat="44.0261" lon="4.14586">
        <ele>90.98</ele>
        <time>2012-02-17T14:48:11Z</time>
      </trkpt>
      <trkpt lat="44.02613" lon="4.14587">
        <ele>91.46</ele>
        <time>2012-02-17T14:48:21Z</time>
      </trkpt>
      <trkpt lat="44.02613" lon="4.14587">
        <ele>90.5</ele>
        <time>2012-02-17T14:48:36Z</time>
      </trkpt>
      <trkpt lat="44.02615" lon="4.14587">
        <ele>91.46</ele>
        <time>2012-02-17T14:49:06Z</time>
      </trkpt>
      <trkpt lat="44.02636" lon="4.14584">
        <ele>90.02</ele>
        <time>2012-02-17T14:49:11Z</time>
      </trkpt>
      <trkpt lat="44.02641" lon="4.14584">
        <ele>90.5</ele>
        <time>2012-02-17T14:49:12Z</time>
      </trkpt>
      <trkpt lat="44.02681" lon="4.14596">
        <ele>90.98</ele>
        <time>2012-02-17T14:49:23Z</time>
      </trkpt>
      <trkpt lat="44.02709" lon="4.14608">
        <ele>91.94</ele>
        <time>2012-02-17T14:49:32Z</time>
      </trkpt>
      <trkpt lat="44.02741" lon="4.14633">
        <ele>91.94</ele>
        <time>2012-02-17T14:49:43Z</time>
      </trkpt>
      <trkpt lat="44.02761" lon="4.14654">
        <ele>93.39</ele>
        <time>2012-02-17T14:49:51Z</time>
      </trkpt>
      <trkpt lat="44.02793" lon="4.14698">
        <ele>91.94</ele>
        <time>2012-02-17T14:50:02Z</time>
      </trkpt>
      <trkpt lat="44.02799" lon="4.14709">
        <ele>91.94</ele>
        <time>2012-02-17T14:50:04Z</time>
      </trkpt>
      <trkpt lat="44.02805" lon="4.14719">
        <ele>91.46</ele>
        <time>2012-02-17T14:50:06Z</time>
      </trkpt>
      <trkpt lat="44.02808" lon="4.14723">
        <ele>92.42</ele>
        <time>2012-02-17T14:50:07Z</time>
      </trkpt>
      <trkpt lat="44.02816" lon="4.1473">
        <ele>91.94</ele>
        <time>2012-02-17T14:50:09Z</time>
      </trkpt>
      <trkpt lat="44.02831" lon="4.14745">
        <ele>91.46</ele>
        <time>2012-02-17T14:50:13Z</time>
      </trkpt>
      <trkpt lat="44.02834" lon="4.14749">
        <ele>91.94</ele>
        <time>2012-02-17T14:50:14Z</time>
      </trkpt>
      <trkpt lat="44.02836" lon="4.14754">
        <ele>90.98</ele>
        <time>2012-02-17T14:50:15Z</time>
      </trkpt>
      <trkpt lat="44.02839" lon="4.14759">
        <ele>91.94</ele>
        <time>2012-02-17T14:50:16Z</time>
      </trkpt>
      <trkpt lat="44.02841" lon="4.14764">
        <ele>91.46</ele>
        <time>2012-02-17T14:50:17Z</time>
      </trkpt>
      <trkpt lat="44.0287" lon="4.14797">
        <ele>91.94</ele>
        <time>2012-02-17T14:50:26Z</time>
      </trkpt>
      <trkpt lat="44.02873" lon="4.14799">
        <ele>92.9</ele>
        <time>2012-02-17T14:50:27Z</time>
      </trkpt>
      <trkpt lat="44.02876" lon="4.14801">
        <ele>92.9</ele>
        <time>2012-02-17T14:50:28Z</time>
      </trkpt>
      <trkpt lat="44.0288" lon="4.14802">
        <ele>92.9</ele>
        <time>2012-02-17T14:50:29Z</time>
      </trkpt>
      <trkpt lat="44.02884" lon="4.14801">
        <ele>92.9</ele>
        <time>2012-02-17T14:50:30Z</time>
      </trkpt>
      <trkpt lat="44.02888" lon="4.14799">
        <ele>92.9</ele>
        <time>2012-02-17T14:50:31Z</time>
      </trkpt>
      <trkpt lat="44.02892" lon="4.14797">
        <ele>91.94</ele>
        <time>2012-02-17T14:50:32Z</time>
      </trkpt>
      <trkpt lat="44.02896" lon="4.14795">
        <ele>92.9</ele>
        <time>2012-02-17T14:50:33Z</time>
      </trkpt>
      <trkpt lat="44.029" lon="4.14793">
        <ele>92.9</ele>
        <time>2012-02-17T14:50:34Z</time>
      </trkpt>
      <trkpt lat="44.02904" lon="4.14792">
        <ele>91.94</ele>
        <time>2012-02-17T14:50:35Z</time>
      </trkpt>
      <trkpt lat="44.02936" lon="4.14797">
        <ele>91.46</ele>
        <time>2012-02-17T14:50:45Z</time>
      </trkpt>
      <trkpt lat="44.02938" lon="4.14798">
        <ele>91.46</ele>
        <time>2012-02-17T14:50:57Z</time>
      </trkpt>
      <trkpt lat="44.02951" lon="4.148">
        <ele>91.94</ele>
        <time>2012-02-17T14:51:04Z</time>
      </trkpt>
      <trkpt lat="44.02953" lon="4.148">
        <ele>91.94</ele>
        <time>2012-02-17T14:51:05Z</time>
      </trkpt>
      <trkpt lat="44.02956" lon="4.148">
        <ele>91.46</ele>
        <time>2012-02-17T14:51:06Z</time>
      </trkpt>
      <trkpt lat="44.02994" lon="4.14791">
        <ele>92.42</ele>
        <time>2012-02-17T14:51:19Z</time>
      </trkpt>
      <trkpt lat="44.03049" lon="4.1475">
        <ele>92.42</ele>
        <time>2012-02-17T14:51:36Z</time>
      </trkpt>
      <trkpt lat="44.03052" lon="4.14742">
        <ele>91.94</ele>
        <time>2012-02-17T14:51:38Z</time>
      </trkpt>
      <trkpt lat="44.03051" lon="4.14737">
        <ele>92.42</ele>
        <time>2012-02-17T14:51:39Z</time>
      </trkpt>
      <trkpt lat="44.03048" lon="4.14734">
        <ele>91.94</ele>
        <time>2012-02-17T14:51:40Z</time>
      </trkpt>
      <trkpt lat="44.03045" lon="4.14731">
        <ele>92.42</ele>
        <time>2012-02-17T14:51:41Z</time>
      </trkpt>
      <trkpt lat="44.03041" lon="4.14729">
        <ele>92.9</ele>
        <time>2012-02-17T14:51:42Z</time>
      </trkpt>
      <trkpt lat="44.03037" lon="4.14727">
        <ele>92.42</ele>
        <time>2012-02-17T14:51:43Z</time>
      </trkpt>
      <trkpt lat="44.03011" lon="4.14707">
        <ele>92.9</ele>
        <time>2012-02-17T14:51:51Z</time>
      </trkpt>
      <trkpt lat="44.0301" lon="4.14703">
        <ele>91.94</ele>
        <time>2012-02-17T14:51:52Z</time>
      </trkpt>
      <trkpt lat="44.03011" lon="4.14699">
        <ele>91.94</ele>
        <time>2012-02-17T14:51:53Z</time>
      </trkpt>
      <trkpt lat="44.03013" lon="4.14695">
        <ele>92.9</ele>
        <time>2012-02-17T14:51:54Z</time>
      </trkpt>
      <trkpt lat="44.03016" lon="4.14693">
        <ele>92.42</ele>
        <time>2012-02-17T14:51:55Z</time>
      </trkpt>
      <trkpt lat="44.03018" lon="4.14691">
        <ele>92.42</ele>
        <time>2012-02-17T14:51:56Z</time>
      </trkpt>
      <trkpt lat="44.03021" lon="4.14689">
        <ele>92.9</ele>
        <time>2012-02-17T14:51:57Z</time>
      </trkpt>
      <trkpt lat="44.03032" lon="4.14684">
        <ele>91.46</ele>
        <time>2012-02-17T14:52:00Z</time>
      </trkpt>
      <trkpt lat="44.03036" lon="4.14683">
        <ele>90.5</ele>
        <time>2012-02-17T14:52:01Z</time>
      </trkpt>
      <trkpt lat="44.03041" lon="4.14681">
        <ele>90.5</ele>
        <time>2012-02-17T14:52:02Z</time>
      </trkpt>
      <trkpt lat="44.03045" lon="4.14679">
        <ele>90.02</ele>
        <time>2012-02-17T14:52:03Z</time>
      </trkpt>
      <trkpt lat="44.03049" lon="4.14677">
        <ele>90.02</ele>
        <time>2012-02-17T14:52:04Z</time>
      </trkpt>
      <trkpt lat="44.03052" lon="4.14675">
        <ele>89.06</ele>
        <time>2012-02-17T14:52:05Z</time>
      </trkpt>
      <trkpt lat="44.03053" lon="4.14675">
        <ele>88.58</ele>
        <time>2012-02-17T14:52:06Z</time>
      </trkpt>
      <trkpt lat="44.03055" lon="4.14675">
        <ele>89.06</ele>
        <time>2012-02-17T14:52:07Z</time>
      </trkpt>
      <trkpt lat="44.03057" lon="4.14675">
        <ele>88.58</ele>
        <time>2012-02-17T14:52:09Z</time>
      </trkpt>
      <trkpt lat="44.0306" lon="4.14676">
        <ele>89.54</ele>
        <time>2012-02-17T14:52:15Z</time>
      </trkpt>
      <trkpt lat="44.03061" lon="4.14673">
        <ele>88.58</ele>
        <time>2012-02-17T14:52:16Z</time>
      </trkpt>
      <trkpt lat="44.03061" lon="4.14671">
        <ele>89.06</ele>
        <time>2012-02-17T14:52:17Z</time>
      </trkpt>
      <trkpt lat="44.03062" lon="4.14669">
        <ele>89.06</ele>
        <time>2012-02-17T14:52:18Z</time>
      </trkpt>
      <trkpt lat="44.03062" lon="4.14667">
        <ele>88.58</ele>
        <time>2012-02-17T14:52:19Z</time>
      </trkpt>
      <trkpt lat="44.03062" lon="4.14664">
        <ele>88.1</ele>
        <time>2012-02-17T14:52:20Z</time>
      </trkpt>
      <trkpt lat="44.03068" lon="4.1463">
        <ele>87.62</ele>
        <time>2012-02-17T14:52:29Z</time>
      </trkpt>
      <trkpt lat="44.03094" lon="4.14597">
        <ele>87.62</ele>
        <time>2012-02-17T14:52:39Z</time>
      </trkpt>
      <trkpt lat="44.03126" lon="4.14578">
        <ele>87.62</ele>
        <time>2012-02-17T14:52:49Z</time>
      </trkpt>
      <trkpt lat="44.03151" lon="4.14565">
        <ele>87.62</ele>
        <time>2012-02-17T14:52:56Z</time>
      </trkpt>
      <trkpt lat="44.03155" lon="4.14563">
        <ele>87.62</ele>
        <time>2012-02-17T14:52:57Z</time>
      </trkpt>
      <trkpt lat="44.03193" lon="4.14502">
        <ele>87.62</ele>
        <time>2012-02-17T14:53:12Z</time>
      </trkpt>
      <trkpt lat="44.03211" lon="4.14427">
        <ele>88.58</ele>
        <time>2012-02-17T14:53:27Z</time>
      </trkpt>
      <trkpt lat="44.03226" lon="4.14362">
        <ele>88.58</ele>
        <time>2012-02-17T14:53:40Z</time>
      </trkpt>
      <trkpt lat="44.03259" lon="4.14281">
        <ele>89.54</ele>
        <time>2012-02-17T14:53:57Z</time>
      </trkpt>
      <trkpt lat="44.0329" lon="4.1421">
        <ele>89.54</ele>
        <time>2012-02-17T14:54:12Z</time>
      </trkpt>
      <trkpt lat="44.03315" lon="4.14147">
        <ele>89.06</ele>
        <time>2012-02-17T14:54:26Z</time>
      </trkpt>
      <trkpt lat="44.03336" lon="4.14077">
        <ele>89.06</ele>
        <time>2012-02-17T14:54:40Z</time>
      </trkpt>
      <trkpt lat="44.03349" lon="4.14012">
        <ele>89.06</ele>
        <time>2012-02-17T14:54:52Z</time>
      </trkpt>
      <trkpt lat="44.03363" lon="4.13952">
        <ele>89.54</ele>
        <time>2012-02-17T14:55:03Z</time>
      </trkpt>
      <trkpt lat="44.03367" lon="4.13935">
        <ele>90.02</ele>
        <time>2012-02-17T14:55:06Z</time>
      </trkpt>
      <trkpt lat="44.03368" lon="4.13929">
        <ele>90.02</ele>
        <time>2012-02-17T14:55:07Z</time>
      </trkpt>
      <trkpt lat="44.03379" lon="4.13878">
        <ele>90.02</ele>
        <time>2012-02-17T14:55:16Z</time>
      </trkpt>
      <trkpt lat="44.03383" lon="4.13855">
        <ele>90.5</ele>
        <time>2012-02-17T14:55:20Z</time>
      </trkpt>
      <trkpt lat="44.03384" lon="4.13849">
        <ele>90.5</ele>
        <time>2012-02-17T14:55:21Z</time>
      </trkpt>
      <trkpt lat="44.03386" lon="4.13843">
        <ele>90.02</ele>
        <time>2012-02-17T14:55:22Z</time>
      </trkpt>
      <trkpt lat="44.03387" lon="4.13838">
        <ele>90.02</ele>
        <time>2012-02-17T14:55:23Z</time>
      </trkpt>
      <trkpt lat="44.03388" lon="4.13832">
        <ele>90.5</ele>
        <time>2012-02-17T14:55:24Z</time>
      </trkpt>
      <trkpt lat="44.03392" lon="4.13819">
        <ele>90.5</ele>
        <time>2012-02-17T14:55:27Z</time>
      </trkpt>
      <trkpt lat="44.03392" lon="4.13815">
        <ele>90.5</ele>
        <time>2012-02-17T14:55:28Z</time>
      </trkpt>
      <trkpt lat="44.03392" lon="4.13812">
        <ele>90.98</ele>
        <time>2012-02-17T14:55:29Z</time>
      </trkpt>
      <trkpt lat="44.03393" lon="4.13808">
        <ele>90.02</ele>
        <time>2012-02-17T14:55:30Z</time>
      </trkpt>
      <trkpt lat="44.03394" lon="4.13805">
        <ele>90.02</ele>
        <time>2012-02-17T14:55:31Z</time>
      </trkpt>
      <trkpt lat="44.03395" lon="4.13801">
        <ele>90.02</ele>
        <time>2012-02-17T14:55:32Z</time>
      </trkpt>
      <trkpt lat="44.03395" lon="4.13796">
        <ele>90.5</ele>
        <time>2012-02-17T14:55:33Z</time>
      </trkpt>
      <trkpt lat="44.03395" lon="4.13791">
        <ele>90.02</ele>
        <time>2012-02-17T14:55:34Z</time>
      </trkpt>
      <trkpt lat="44.03394" lon="4.13786">
        <ele>90.5</ele>
        <time>2012-02-17T14:55:35Z</time>
      </trkpt>
      <trkpt lat="44.03394" lon="4.1378">
        <ele>90.5</ele>
        <time>2012-02-17T14:55:36Z</time>
      </trkpt>
      <trkpt lat="44.03395" lon="4.13769">
        <ele>90.02</ele>
        <time>2012-02-17T14:55:38Z</time>
      </trkpt>
      <trkpt lat="44.03395" lon="4.1375">
        <ele>90.98</ele>
        <time>2012-02-17T14:55:41Z</time>
      </trkpt>
      <trkpt lat="44.03395" lon="4.13744">
        <ele>90.02</ele>
        <time>2012-02-17T14:55:42Z</time>
      </trkpt>
      <trkpt lat="44.03403" lon="4.13705">
        <ele>90.98</ele>
        <time>2012-02-17T14:55:53Z</time>
      </trkpt>
      <trkpt lat="44.03403" lon="4.13705">
        <ele>90.98</ele>
        <time>2012-02-17T14:56:12Z</time>
      </trkpt>
      <trkpt lat="44.03404" lon="4.13697">
        <ele>90.02</ele>
        <time>2012-02-17T14:56:21Z</time>
      </trkpt>
      <trkpt lat="44.03398" lon="4.13649">
        <ele>90.5</ele>
        <time>2012-02-17T14:56:33Z</time>
      </trkpt>
      <trkpt lat="44.03403" lon="4.13596">
        <ele>90.5</ele>
        <time>2012-02-17T14:56:43Z</time>
      </trkpt>
      <trkpt lat="44.03407" lon="4.13557">
        <ele>90.98</ele>
        <time>2012-02-17T14:56:50Z</time>
      </trkpt>
      <trkpt lat="44.03406" lon="4.13526">
        <ele>87.62</ele>
        <time>2012-02-17T14:56:56Z</time>
      </trkpt>
      <trkpt lat="44.03406" lon="4.13522">
        <ele>90.98</ele>
        <time>2012-02-17T14:56:57Z</time>
      </trkpt>
      <trkpt lat="44.03419" lon="4.13464">
        <ele>90.98</ele>
        <time>2012-02-17T14:57:09Z</time>
      </trkpt>
      <trkpt lat="44.03425" lon="4.1339">
        <ele>90.98</ele>
        <time>2012-02-17T14:57:21Z</time>
      </trkpt>
      <trkpt lat="44.03424" lon="4.13378">
        <ele>91.46</ele>
        <time>2012-02-17T14:57:23Z</time>
      </trkpt>
      <trkpt lat="44.03421" lon="4.13367">
        <ele>90.98</ele>
        <time>2012-02-17T14:57:25Z</time>
      </trkpt>
      <trkpt lat="44.03418" lon="4.13362">
        <ele>90.5</ele>
        <time>2012-02-17T14:57:26Z</time>
      </trkpt>
      <trkpt lat="44.03415" lon="4.13358">
        <ele>90.5</ele>
        <time>2012-02-17T14:57:27Z</time>
      </trkpt>
      <trkpt lat="44.0341" lon="4.13355">
        <ele>90.98</ele>
        <time>2012-02-17T14:57:28Z</time>
      </trkpt>
      <trkpt lat="44.03406" lon="4.13354">
        <ele>91.46</ele>
        <time>2012-02-17T14:57:29Z</time>
      </trkpt>
      <trkpt lat="44.03401" lon="4.13353">
        <ele>90.5</ele>
        <time>2012-02-17T14:57:30Z</time>
      </trkpt>
      <trkpt lat="44.03379" lon="4.13349">
        <ele>90.02</ele>
        <time>2012-02-17T14:57:34Z</time>
      </trkpt>
      <trkpt lat="44.03358" lon="4.13341">
        <ele>89.54</ele>
        <time>2012-02-17T14:57:38Z</time>
      </trkpt>
      <trkpt lat="44.03355" lon="4.13337">
        <ele>89.54</ele>
        <time>2012-02-17T14:57:39Z</time>
      </trkpt>
      <trkpt lat="44.03352" lon="4.13331">
        <ele>89.54</ele>
        <time>2012-02-17T14:57:40Z</time>
      </trkpt>
      <trkpt lat="44.03351" lon="4.13325">
        <ele>90.02</ele>
        <time>2012-02-17T14:57:41Z</time>
      </trkpt>
      <trkpt lat="44.03351" lon="4.13319">
        <ele>89.54</ele>
        <time>2012-02-17T14:57:42Z</time>
      </trkpt>
      <trkpt lat="44.0335" lon="4.13313">
        <ele>89.54</ele>
        <time>2012-02-17T14:57:43Z</time>
      </trkpt>
      <trkpt lat="44.03349" lon="4.13306">
        <ele>89.54</ele>
        <time>2012-02-17T14:57:44Z</time>
      </trkpt>
      <trkpt lat="44.03346" lon="4.13287">
        <ele>89.06</ele>
        <time>2012-02-17T14:57:47Z</time>
      </trkpt>
      <trkpt lat="44.03344" lon="4.13274">
        <ele>89.06</ele>
        <time>2012-02-17T14:57:49Z</time>
      </trkpt>
      <trkpt lat="44.03344" lon="4.13267">
        <ele>88.58</ele>
        <time>2012-02-17T14:57:50Z</time>
      </trkpt>
      <trkpt lat="44.03346" lon="4.13239">
        <ele>89.06</ele>
        <time>2012-02-17T14:57:54Z</time>
      </trkpt>
      <trkpt lat="44.03347" lon="4.13233">
        <ele>89.54</ele>
        <time>2012-02-17T14:57:55Z</time>
      </trkpt>
      <trkpt lat="44.03356" lon="4.13141">
        <ele>90.02</ele>
        <time>2012-02-17T14:58:10Z</time>
      </trkpt>
      <trkpt lat="44.03357" lon="4.13135">
        <ele>90.02</ele>
        <time>2012-02-17T14:58:11Z</time>
      </trkpt>
      <trkpt lat="44.03357" lon="4.13121">
        <ele>89.54</ele>
        <time>2012-02-17T14:58:13Z</time>
      </trkpt>
      <trkpt lat="44.03362" lon="4.13068">
        <ele>90.5</ele>
        <time>2012-02-17T14:58:22Z</time>
      </trkpt>
      <trkpt lat="44.03364" lon="4.13056">
        <ele>91.46</ele>
        <time>2012-02-17T14:58:24Z</time>
      </trkpt>
      <trkpt lat="44.03366" lon="4.1305">
        <ele>91.46</ele>
        <time>2012-02-17T14:58:25Z</time>
      </trkpt>
      <trkpt lat="44.03369" lon="4.13039">
        <ele>90.98</ele>
        <time>2012-02-17T14:58:27Z</time>
      </trkpt>
      <trkpt lat="44.03371" lon="4.13034">
        <ele>90.98</ele>
        <time>2012-02-17T14:58:28Z</time>
      </trkpt>
      <trkpt lat="44.03372" lon="4.13028">
        <ele>90.5</ele>
        <time>2012-02-17T14:58:29Z</time>
      </trkpt>
      <trkpt lat="44.03377" lon="4.13013">
        <ele>90.98</ele>
        <time>2012-02-17T14:58:32Z</time>
      </trkpt>
      <trkpt lat="44.03379" lon="4.13008">
        <ele>91.46</ele>
        <time>2012-02-17T14:58:33Z</time>
      </trkpt>
      <trkpt lat="44.03381" lon="4.13003">
        <ele>90.98</ele>
        <time>2012-02-17T14:58:34Z</time>
      </trkpt>
      <trkpt lat="44.03391" lon="4.12986">
        <ele>90.98</ele>
        <time>2012-02-17T14:58:38Z</time>
      </trkpt>
      <trkpt lat="44.03393" lon="4.12982">
        <ele>91.46</ele>
        <time>2012-02-17T14:58:39Z</time>
      </trkpt>
      <trkpt lat="44.03395" lon="4.12977">
        <ele>91.46</ele>
        <time>2012-02-17T14:58:40Z</time>
      </trkpt>
      <trkpt lat="44.03398" lon="4.12966">
        <ele>91.46</ele>
        <time>2012-02-17T14:58:42Z</time>
      </trkpt>
      <trkpt lat="44.034" lon="4.12961">
        <ele>90.98</ele>
        <time>2012-02-17T14:58:43Z</time>
      </trkpt>
      <trkpt lat="44.03403" lon="4.12956">
        <ele>91.46</ele>
        <time>2012-02-17T14:58:44Z</time>
      </trkpt>
      <trkpt lat="44.03405" lon="4.12951">
        <ele>90.5</ele>
        <time>2012-02-17T14:58:45Z</time>
      </trkpt>
      <trkpt lat="44.03407" lon="4.12945">
        <ele>91.46</ele>
        <time>2012-02-17T14:58:46Z</time>
      </trkpt>
      <trkpt lat="44.03428" lon="4.12869">
        <ele>90.98</ele>
        <time>2012-02-17T14:59:00Z</time>
      </trkpt>
      <trkpt lat="44.03443" lon="4.12814">
        <ele>90.98</ele>
        <time>2012-02-17T14:59:12Z</time>
      </trkpt>
      <trkpt lat="44.03445" lon="4.12809">
        <ele>90.98</ele>
        <time>2012-02-17T14:59:13Z</time>
      </trkpt>
      <trkpt lat="44.03448" lon="4.12807">
        <ele>90.98</ele>
        <time>2012-02-17T14:59:14Z</time>
      </trkpt>
      <trkpt lat="44.03451" lon="4.12806">
        <ele>90.5</ele>
        <time>2012-02-17T14:59:15Z</time>
      </trkpt>
      <trkpt lat="44.03455" lon="4.12806">
        <ele>90.5</ele>
        <time>2012-02-17T14:59:16Z</time>
      </trkpt>
      <trkpt lat="44.0346" lon="4.12807">
        <ele>90.98</ele>
        <time>2012-02-17T14:59:17Z</time>
      </trkpt>
      <trkpt lat="44.03523" lon="4.12811">
        <ele>90.5</ele>
        <time>2012-02-17T14:59:32Z</time>
      </trkpt>
      <trkpt lat="44.03542" lon="4.12811">
        <ele>90.5</ele>
        <time>2012-02-17T14:59:37Z</time>
      </trkpt>
      <trkpt lat="44.03549" lon="4.12793">
        <ele>90.98</ele>
        <time>2012-02-17T14:59:41Z</time>
      </trkpt>
      <trkpt lat="44.03551" lon="4.12723">
        <ele>90.5</ele>
        <time>2012-02-17T14:59:53Z</time>
      </trkpt>
      <trkpt lat="44.03552" lon="4.12718">
        <ele>90.98</ele>
        <time>2012-02-17T14:59:54Z</time>
      </trkpt>
      <trkpt lat="44.03552" lon="4.12712">
        <ele>90.5</ele>
        <time>2012-02-17T14:59:55Z</time>
      </trkpt>
      <trkpt lat="44.03557" lon="4.1268">
        <ele>91.94</ele>
        <time>2012-02-17T15:00:01Z</time>
      </trkpt>
      <trkpt lat="44.03559" lon="4.12674">
        <ele>90.98</ele>
        <time>2012-02-17T15:00:02Z</time>
      </trkpt>
      <trkpt lat="44.03561" lon="4.12616">
        <ele>91.46</ele>
        <time>2012-02-17T15:00:12Z</time>
      </trkpt>
      <trkpt lat="44.03562" lon="4.12611">
        <ele>90.98</ele>
        <time>2012-02-17T15:00:13Z</time>
      </trkpt>
      <trkpt lat="44.03565" lon="4.126">
        <ele>90.98</ele>
        <time>2012-02-17T15:00:15Z</time>
      </trkpt>
      <trkpt lat="44.03568" lon="4.12589">
        <ele>91.46</ele>
        <time>2012-02-17T15:00:17Z</time>
      </trkpt>
      <trkpt lat="44.03571" lon="4.12577">
        <ele>91.94</ele>
        <time>2012-02-17T15:00:19Z</time>
      </trkpt>
      <trkpt lat="44.03573" lon="4.12572">
        <ele>92.42</ele>
        <time>2012-02-17T15:00:20Z</time>
      </trkpt>
      <trkpt lat="44.03593" lon="4.12514">
        <ele>91.46</ele>
        <time>2012-02-17T15:00:31Z</time>
      </trkpt>
      <trkpt lat="44.03612" lon="4.12479">
        <ele>92.42</ele>
        <time>2012-02-17T15:00:40Z</time>
      </trkpt>
      <trkpt lat="44.03618" lon="4.12472">
        <ele>91.94</ele>
        <time>2012-02-17T15:00:42Z</time>
      </trkpt>
      <trkpt lat="44.03649" lon="4.12429">
        <ele>92.42</ele>
        <time>2012-02-17T15:00:52Z</time>
      </trkpt>
      <trkpt lat="44.03652" lon="4.12424">
        <ele>92.9</ele>
        <time>2012-02-17T15:00:53Z</time>
      </trkpt>
      <trkpt lat="44.03655" lon="4.12419">
        <ele>92.9</ele>
        <time>2012-02-17T15:00:54Z</time>
      </trkpt>
      <trkpt lat="44.03658" lon="4.12415">
        <ele>92.42</ele>
        <time>2012-02-17T15:00:55Z</time>
      </trkpt>
      <trkpt lat="44.03661" lon="4.1241">
        <ele>92.42</ele>
        <time>2012-02-17T15:00:56Z</time>
      </trkpt>
      <trkpt lat="44.03664" lon="4.12406">
        <ele>92.42</ele>
        <time>2012-02-17T15:00:57Z</time>
      </trkpt>
      <trkpt lat="44.03667" lon="4.12401">
        <ele>92.9</ele>
        <time>2012-02-17T15:00:58Z</time>
      </trkpt>
      <trkpt lat="44.03689" lon="4.12367">
        <ele>92.9</ele>
        <time>2012-02-17T15:01:06Z</time>
      </trkpt>
      <trkpt lat="44.03691" lon="4.12362">
        <ele>92.9</ele>
        <time>2012-02-17T15:01:07Z</time>
      </trkpt>
      <trkpt lat="44.03693" lon="4.12356">
        <ele>92.9</ele>
        <time>2012-02-17T15:01:08Z</time>
      </trkpt>
      <trkpt lat="44.03699" lon="4.12311">
        <ele>92.42</ele>
        <time>2012-02-17T15:01:16Z</time>
      </trkpt>
      <trkpt lat="44.03703" lon="4.12286">
        <ele>92.42</ele>
        <time>2012-02-17T15:01:20Z</time>
      </trkpt>
      <trkpt lat="44.03715" lon="4.12233">
        <ele>92.9</ele>
        <time>2012-02-17T15:01:30Z</time>
      </trkpt>
      <trkpt lat="44.03718" lon="4.12231">
        <ele>92.9</ele>
        <time>2012-02-17T15:01:31Z</time>
      </trkpt>
      <trkpt lat="44.03722" lon="4.12232">
        <ele>92.9</ele>
        <time>2012-02-17T15:01:32Z</time>
      </trkpt>
      <trkpt lat="44.03726" lon="4.12233">
        <ele>92.42</ele>
        <time>2012-02-17T15:01:33Z</time>
      </trkpt>
      <trkpt lat="44.0373" lon="4.12234">
        <ele>92.42</ele>
        <time>2012-02-17T15:01:34Z</time>
      </trkpt>
      <trkpt lat="44.03743" lon="4.12239">
        <ele>92.9</ele>
        <time>2012-02-17T15:01:42Z</time>
      </trkpt>
      <trkpt lat="44.03743" lon="4.12239">
        <ele>92.9</ele>
        <time>2012-02-17T15:02:01Z</time>
      </trkpt>
      <trkpt lat="44.03744" lon="4.12238">
        <ele>91.94</ele>
        <time>2012-02-17T15:02:15Z</time>
      </trkpt>
      <trkpt lat="44.03744" lon="4.12238">
        <ele>92.9</ele>
        <time>2012-02-17T15:02:46Z</time>
      </trkpt>
      <trkpt lat="44.03745" lon="4.12236">
        <ele>93.39</ele>
        <time>2012-02-17T15:03:10Z</time>
      </trkpt>
      <trkpt lat="44.03746" lon="4.12234">
        <ele>92.9</ele>
        <time>2012-02-17T15:03:30Z</time>
      </trkpt>
      <trkpt lat="44.03749" lon="4.12231">
        <ele>92.9</ele>
        <time>2012-02-17T15:03:49Z</time>
      </trkpt>
      <trkpt lat="44.03751" lon="4.12229">
        <ele>92.9</ele>
        <time>2012-02-17T15:03:50Z</time>
      </trkpt>
      <trkpt lat="44.03753" lon="4.12227">
        <ele>92.9</ele>
        <time>2012-02-17T15:03:51Z</time>
      </trkpt>
      <trkpt lat="44.03754" lon="4.12225">
        <ele>92.9</ele>
        <time>2012-02-17T15:03:52Z</time>
      </trkpt>
      <trkpt lat="44.03755" lon="4.12223">
        <ele>92.42</ele>
        <time>2012-02-17T15:03:53Z</time>
      </trkpt>
      <trkpt lat="44.03757" lon="4.1222">
        <ele>92.9</ele>
        <time>2012-02-17T15:03:54Z</time>
      </trkpt>
      <trkpt lat="44.03759" lon="4.12218">
        <ele>92.42</ele>
        <time>2012-02-17T15:03:55Z</time>
      </trkpt>
      <trkpt lat="44.03761" lon="4.12215">
        <ele>92.9</ele>
        <time>2012-02-17T15:03:56Z</time>
      </trkpt>
      <trkpt lat="44.03783" lon="4.12198">
        <ele>94.35</ele>
        <time>2012-02-17T15:04:06Z</time>
      </trkpt>
      <trkpt lat="44.03817" lon="4.12187">
        <ele>95.79</ele>
        <time>2012-02-17T15:04:19Z</time>
      </trkpt>
      <trkpt lat="44.03858" lon="4.1217">
        <ele>97.23</ele>
        <time>2012-02-17T15:04:35Z</time>
      </trkpt>
      <trkpt lat="44.03895" lon="4.12166">
        <ele>98.67</ele>
        <time>2012-02-17T15:04:50Z</time>
      </trkpt>
      <trkpt lat="44.03897" lon="4.12168">
        <ele>98.19</ele>
        <time>2012-02-17T15:04:51Z</time>
      </trkpt>
      <trkpt lat="44.03917" lon="4.12186">
        <ele>98.19</ele>
        <time>2012-02-17T15:04:59Z</time>
      </trkpt>
      <trkpt lat="44.03943" lon="4.12188">
        <ele>101.08</ele>
        <time>2012-02-17T15:05:11Z</time>
      </trkpt>
      <trkpt lat="44.03958" lon="4.12186">
        <ele>103.48</ele>
        <time>2012-02-17T15:05:19Z</time>
      </trkpt>
      <trkpt lat="44.03982" lon="4.12185">
        <ele>105.88</ele>
        <time>2012-02-17T15:05:31Z</time>
      </trkpt>
      <trkpt lat="44.04008" lon="4.12189">
        <ele>108.77</ele>
        <time>2012-02-17T15:05:46Z</time>
      </trkpt>
      <trkpt lat="44.04032" lon="4.12203">
        <ele>111.65</ele>
        <time>2012-02-17T15:06:00Z</time>
      </trkpt>
      <trkpt lat="44.04057" lon="4.12224">
        <ele>113.57</ele>
        <time>2012-02-17T15:06:15Z</time>
      </trkpt>
      <trkpt lat="44.0408" lon="4.12245">
        <ele>115.98</ele>
        <time>2012-02-17T15:06:27Z</time>
      </trkpt>
      <trkpt lat="44.04105" lon="4.12264">
        <ele>115.98</ele>
        <time>2012-02-17T15:06:39Z</time>
      </trkpt>
      <trkpt lat="44.04131" lon="4.12278">
        <ele>117.42</ele>
        <time>2012-02-17T15:06:52Z</time>
      </trkpt>
      <trkpt lat="44.04163" lon="4.12279">
        <ele>117.42</ele>
        <time>2012-02-17T15:07:04Z</time>
      </trkpt>
      <trkpt lat="44.0417" lon="4.12274">
        <ele>118.86</ele>
        <time>2012-02-17T15:07:06Z</time>
      </trkpt>
      <trkpt lat="44.04175" lon="4.12271">
        <ele>120.78</ele>
        <time>2012-02-17T15:07:08Z</time>
      </trkpt>
      <trkpt lat="44.0418" lon="4.12269">
        <ele>121.74</ele>
        <time>2012-02-17T15:07:15Z</time>
      </trkpt>
      <trkpt lat="44.04195" lon="4.12288">
        <ele>121.26</ele>
        <time>2012-02-17T15:07:23Z</time>
      </trkpt>
      <trkpt lat="44.042" lon="4.12294">
        <ele>120.78</ele>
        <time>2012-02-17T15:07:25Z</time>
      </trkpt>
      <trkpt lat="44.04206" lon="4.12316">
        <ele>121.26</ele>
        <time>2012-02-17T15:07:30Z</time>
      </trkpt>
      <trkpt lat="44.04208" lon="4.12332">
        <ele>120.78</ele>
        <time>2012-02-17T15:07:35Z</time>
      </trkpt>
      <trkpt lat="44.04211" lon="4.12346">
        <ele>121.74</ele>
        <time>2012-02-17T15:07:39Z</time>
      </trkpt>
      <trkpt lat="44.04214" lon="4.12355">
        <ele>122.22</ele>
        <time>2012-02-17T15:07:43Z</time>
      </trkpt>
      <trkpt lat="44.0422" lon="4.12366">
        <ele>123.19</ele>
        <time>2012-02-17T15:07:47Z</time>
      </trkpt>
      <trkpt lat="44.04221" lon="4.12367">
        <ele>123.67</ele>
        <time>2012-02-17T15:07:48Z</time>
      </trkpt>
      <trkpt lat="44.04222" lon="4.12378">
        <ele>124.15</ele>
        <time>2012-02-17T15:07:51Z</time>
      </trkpt>
      <trkpt lat="44.04223" lon="4.12395">
        <ele>125.59</ele>
        <time>2012-02-17T15:07:58Z</time>
      </trkpt>
      <trkpt lat="44.04226" lon="4.12399">
        <ele>126.07</ele>
        <time>2012-02-17T15:08:00Z</time>
      </trkpt>
      <trkpt lat="44.04226" lon="4.12404">
        <ele>127.51</ele>
        <time>2012-02-17T15:08:03Z</time>
      </trkpt>
      <trkpt lat="44.04226" lon="4.12412">
        <ele>128.47</ele>
        <time>2012-02-17T15:08:07Z</time>
      </trkpt>
      <trkpt lat="44.04225" lon="4.12424">
        <ele>128.95</ele>
        <time>2012-02-17T15:08:12Z</time>
      </trkpt>
      <trkpt lat="44.04223" lon="4.12438">
        <ele>129.92</ele>
        <time>2012-02-17T15:08:17Z</time>
      </trkpt>
      <trkpt lat="44.04223" lon="4.12441">
        <ele>129.92</ele>
        <time>2012-02-17T15:08:19Z</time>
      </trkpt>
      <trkpt lat="44.04218" lon="4.12479">
        <ele>131.36</ele>
        <time>2012-02-17T15:08:29Z</time>
      </trkpt>
      <trkpt lat="44.04225" lon="4.12531">
        <ele>131.36</ele>
        <time>2012-02-17T15:08:40Z</time>
      </trkpt>
      <trkpt lat="44.04237" lon="4.12573">
        <ele>132.32</ele>
        <time>2012-02-17T15:08:50Z</time>
      </trkpt>
      <trkpt lat="44.04248" lon="4.12633">
        <ele>132.32</ele>
        <time>2012-02-17T15:09:02Z</time>
      </trkpt>
      <trkpt lat="44.04252" lon="4.12665">
        <ele>133.76</ele>
        <time>2012-02-17T15:09:10Z</time>
      </trkpt>
      <trkpt lat="44.04253" lon="4.12697">
        <ele>135.68</ele>
        <time>2012-02-17T15:09:19Z</time>
      </trkpt>
      <trkpt lat="44.0425" lon="4.12737">
        <ele>138.09</ele>
        <time>2012-02-17T15:09:28Z</time>
      </trkpt>
      <trkpt lat="44.04249" lon="4.12746">
        <ele>138.09</ele>
        <time>2012-02-17T15:09:30Z</time>
      </trkpt>
      <trkpt lat="44.0425" lon="4.12759">
        <ele>138.57</ele>
        <time>2012-02-17T15:09:34Z</time>
      </trkpt>
      <trkpt lat="44.04247" lon="4.12773">
        <ele>137.61</ele>
        <time>2012-02-17T15:09:40Z</time>
      </trkpt>
      <trkpt lat="44.04246" lon="4.12775">
        <ele>137.13</ele>
        <time>2012-02-17T15:09:55Z</time>
      </trkpt>
      <trkpt lat="44.04245" lon="4.12777">
        <ele>137.61</ele>
        <time>2012-02-17T15:10:01Z</time>
      </trkpt>
      <trkpt lat="44.04231" lon="4.12778">
        <ele>137.13</ele>
        <time>2012-02-17T15:10:11Z</time>
      </trkpt>
      <trkpt lat="44.04232" lon="4.12759">
        <ele>137.13</ele>
        <time>2012-02-17T15:10:17Z</time>
      </trkpt>
      <trkpt lat="44.04248" lon="4.12759">
        <ele>138.09</ele>
        <time>2012-02-17T15:10:23Z</time>
      </trkpt>
      <trkpt lat="44.04269" lon="4.12763">
        <ele>138.09</ele>
        <time>2012-02-17T15:10:29Z</time>
      </trkpt>
      <trkpt lat="44.04277" lon="4.12767">
        <ele>138.09</ele>
        <time>2012-02-17T15:10:31Z</time>
      </trkpt>
      <trkpt lat="44.04298" lon="4.12743">
        <ele>139.05</ele>
        <time>2012-02-17T15:10:38Z</time>
      </trkpt>
      <trkpt lat="44.04306" lon="4.12739">
        <ele>139.53</ele>
        <time>2012-02-17T15:10:40Z</time>
      </trkpt>
      <trkpt lat="44.04325" lon="4.12724">
        <ele>140.97</ele>
        <time>2012-02-17T15:10:46Z</time>
      </trkpt>
      <trkpt lat="44.04336" lon="4.12707">
        <ele>141.45</ele>
        <time>2012-02-17T15:10:50Z</time>
      </trkpt>
      <trkpt lat="44.04342" lon="4.12677">
        <ele>142.89</ele>
        <time>2012-02-17T15:11:00Z</time>
      </trkpt>
      <trkpt lat="44.04339" lon="4.12667">
        <ele>142.41</ele>
        <time>2012-02-17T15:11:03Z</time>
      </trkpt>
      <trkpt lat="44.0434" lon="4.12658">
        <ele>142.89</ele>
        <time>2012-02-17T15:11:06Z</time>
      </trkpt>
      <trkpt lat="44.0435" lon="4.12652">
        <ele>143.37</ele>
        <time>2012-02-17T15:11:11Z</time>
      </trkpt>
      <trkpt lat="44.04391" lon="4.12647">
        <ele>141.45</ele>
        <time>2012-02-17T15:11:23Z</time>
      </trkpt>
      <trkpt lat="44.04407" lon="4.12645">
        <ele>140.01</ele>
        <time>2012-02-17T15:11:26Z</time>
      </trkpt>
      <trkpt lat="44.04437" lon="4.12649">
        <ele>139.05</ele>
        <time>2012-02-17T15:11:32Z</time>
      </trkpt>
      <trkpt lat="44.04451" lon="4.12649">
        <ele>139.53</ele>
        <time>2012-02-17T15:11:35Z</time>
      </trkpt>
      <trkpt lat="44.04464" lon="4.1265">
        <ele>139.53</ele>
        <time>2012-02-17T15:11:38Z</time>
      </trkpt>
      <trkpt lat="44.04481" lon="4.12651">
        <ele>139.53</ele>
        <time>2012-02-17T15:11:42Z</time>
      </trkpt>
      <trkpt lat="44.04531" lon="4.12666">
        <ele>140.01</ele>
        <time>2012-02-17T15:11:56Z</time>
      </trkpt>
      <trkpt lat="44.0456" lon="4.12659">
        <ele>139.53</ele>
        <time>2012-02-17T15:12:04Z</time>
      </trkpt>
      <trkpt lat="44.04565" lon="4.12643">
        <ele>139.53</ele>
        <time>2012-02-17T15:12:08Z</time>
      </trkpt>
      <trkpt lat="44.04569" lon="4.12621">
        <ele>140.01</ele>
        <time>2012-02-17T15:12:14Z</time>
      </trkpt>
      <trkpt lat="44.04599" lon="4.12596">
        <ele>141.45</ele>
        <time>2012-02-17T15:12:25Z</time>
      </trkpt>
      <trkpt lat="44.04594" lon="4.12559">
        <ele>143.37</ele>
        <time>2012-02-17T15:12:36Z</time>
      </trkpt>
      <trkpt lat="44.04598" lon="4.12545">
        <ele>145.3</ele>
        <time>2012-02-17T15:12:42Z</time>
      </trkpt>
      <trkpt lat="44.04598" lon="4.12535">
        <ele>144.82</ele>
        <time>2012-02-17T15:12:45Z</time>
      </trkpt>
      <trkpt lat="44.04613" lon="4.12521">
        <ele>147.22</ele>
        <time>2012-02-17T15:12:55Z</time>
      </trkpt>
      <trkpt lat="44.04624" lon="4.12511">
        <ele>148.66</ele>
        <time>2012-02-17T15:13:04Z</time>
      </trkpt>
      <trkpt lat="44.04635" lon="4.12503">
        <ele>150.58</ele>
        <time>2012-02-17T15:13:11Z</time>
      </trkpt>
      <trkpt lat="44.0464" lon="4.12498">
        <ele>151.06</ele>
        <time>2012-02-17T15:13:22Z</time>
      </trkpt>
      <trkpt lat="44.04643" lon="4.12497">
        <ele>152.03</ele>
        <time>2012-02-17T15:13:43Z</time>
      </trkpt>
      <trkpt lat="44.04658" lon="4.12483">
        <ele>152.99</ele>
        <time>2012-02-17T15:13:54Z</time>
      </trkpt>
      <trkpt lat="44.04665" lon="4.12475">
        <ele>153.47</ele>
        <time>2012-02-17T15:13:59Z</time>
      </trkpt>
      <trkpt lat="44.04679" lon="4.12459">
        <ele>153.47</ele>
        <time>2012-02-17T15:14:10Z</time>
      </trkpt>
      <trkpt lat="44.0469" lon="4.12453">
        <ele>152.51</ele>
        <time>2012-02-17T15:14:14Z</time>
      </trkpt>
      <trkpt lat="44.04699" lon="4.12453">
        <ele>152.03</ele>
        <time>2012-02-17T15:14:17Z</time>
      </trkpt>
      <trkpt lat="44.04712" lon="4.12459">
        <ele>151.54</ele>
        <time>2012-02-17T15:14:21Z</time>
      </trkpt>
      <trkpt lat="44.04742" lon="4.12466">
        <ele>150.58</ele>
        <time>2012-02-17T15:14:32Z</time>
      </trkpt>
      <trkpt lat="44.04773" lon="4.12463">
        <ele>150.58</ele>
        <time>2012-02-17T15:14:45Z</time>
      </trkpt>
      <trkpt lat="44.04805" lon="4.12455">
        <ele>149.62</ele>
        <time>2012-02-17T15:15:01Z</time>
      </trkpt>
      <trkpt lat="44.04828" lon="4.12447">
        <ele>149.14</ele>
        <time>2012-02-17T15:15:12Z</time>
      </trkpt>
      <trkpt lat="44.0483" lon="4.12446">
        <ele>148.66</ele>
        <time>2012-02-17T15:15:13Z</time>
      </trkpt>
      <trkpt lat="44.04851" lon="4.12444">
        <ele>148.66</ele>
        <time>2012-02-17T15:15:24Z</time>
      </trkpt>
      <trkpt lat="44.04862" lon="4.12436">
        <ele>148.66</ele>
        <time>2012-02-17T15:15:31Z</time>
      </trkpt>
      <trkpt lat="44.04875" lon="4.12438">
        <ele>149.62</ele>
        <time>2012-02-17T15:15:38Z</time>
      </trkpt>
      <trkpt lat="44.04908" lon="4.12417">
        <ele>152.03</ele>
        <time>2012-02-17T15:15:52Z</time>
      </trkpt>
      <trkpt lat="44.04937" lon="4.12388">
        <ele>155.39</ele>
        <time>2012-02-17T15:16:04Z</time>
      </trkpt>
      <trkpt lat="44.04947" lon="4.1236">
        <ele>156.35</ele>
        <time>2012-02-17T15:16:12Z</time>
      </trkpt>
      <trkpt lat="44.04951" lon="4.12355">
        <ele>157.31</ele>
        <time>2012-02-17T15:16:14Z</time>
      </trkpt>
      <trkpt lat="44.04956" lon="4.12346">
        <ele>157.31</ele>
        <time>2012-02-17T15:16:18Z</time>
      </trkpt>
      <trkpt lat="44.04965" lon="4.12338">
        <ele>159.24</ele>
        <time>2012-02-17T15:16:23Z</time>
      </trkpt>
      <trkpt lat="44.04973" lon="4.12331">
        <ele>160.68</ele>
        <time>2012-02-17T15:16:29Z</time>
      </trkpt>
      <trkpt lat="44.04978" lon="4.12321">
        <ele>162.12</ele>
        <time>2012-02-17T15:16:35Z</time>
      </trkpt>
      <trkpt lat="44.04981" lon="4.12317">
        <ele>162.6</ele>
        <time>2012-02-17T15:16:38Z</time>
      </trkpt>
      <trkpt lat="44.04994" lon="4.12306">
        <ele>165.96</ele>
        <time>2012-02-17T15:16:49Z</time>
      </trkpt>
      <trkpt lat="44.04998" lon="4.12303">
        <ele>166.45</ele>
        <time>2012-02-17T15:16:53Z</time>
      </trkpt>
      <trkpt lat="44.05001" lon="4.12297">
        <ele>167.89</ele>
        <time>2012-02-17T15:16:57Z</time>
      </trkpt>
      <trkpt lat="44.05002" lon="4.12296">
        <ele>167.89</ele>
        <time>2012-02-17T15:16:58Z</time>
      </trkpt>
      <trkpt lat="44.05009" lon="4.12273">
        <ele>170.29</ele>
        <time>2012-02-17T15:17:13Z</time>
      </trkpt>
      <trkpt lat="44.05014" lon="4.1227">
        <ele>171.25</ele>
        <time>2012-02-17T15:17:18Z</time>
      </trkpt>
      <trkpt lat="44.0502" lon="4.12271">
        <ele>171.73</ele>
        <time>2012-02-17T15:17:23Z</time>
      </trkpt>
      <trkpt lat="44.05031" lon="4.12263">
        <ele>173.17</ele>
        <time>2012-02-17T15:17:32Z</time>
      </trkpt>
      <trkpt lat="44.05037" lon="4.12251">
        <ele>175.1</ele>
        <time>2012-02-17T15:17:42Z</time>
      </trkpt>
      <trkpt lat="44.05047" lon="4.12239">
        <ele>176.06</ele>
        <time>2012-02-17T15:17:52Z</time>
      </trkpt>
      <trkpt lat="44.05056" lon="4.12228">
        <ele>177.5</ele>
        <time>2012-02-17T15:18:01Z</time>
      </trkpt>
      <trkpt lat="44.05065" lon="4.12222">
        <ele>178.46</ele>
        <time>2012-02-17T15:18:07Z</time>
      </trkpt>
      <trkpt lat="44.05093" lon="4.12215">
        <ele>179.9</ele>
        <time>2012-02-17T15:18:25Z</time>
      </trkpt>
      <trkpt lat="44.05117" lon="4.12214">
        <ele>178.94</ele>
        <time>2012-02-17T15:18:34Z</time>
      </trkpt>
      <trkpt lat="44.05129" lon="4.1221">
        <ele>179.42</ele>
        <time>2012-02-17T15:18:40Z</time>
      </trkpt>
      <trkpt lat="44.05146" lon="4.12209">
        <ele>178.94</ele>
        <time>2012-02-17T15:18:47Z</time>
      </trkpt>
      <trkpt lat="44.05173" lon="4.12202">
        <ele>178.46</ele>
        <time>2012-02-17T15:18:57Z</time>
      </trkpt>
      <trkpt lat="44.05193" lon="4.12198">
        <ele>177.02</ele>
        <time>2012-02-17T15:19:09Z</time>
      </trkpt>
      <trkpt lat="44.05193" lon="4.12198">
        <ele>177.5</ele>
        <time>2012-02-17T15:19:32Z</time>
      </trkpt>
      <trkpt lat="44.05194" lon="4.12197">
        <ele>177.02</ele>
        <time>2012-02-17T15:19:35Z</time>
      </trkpt>
      <trkpt lat="44.05198" lon="4.12198">
        <ele>177.98</ele>
        <time>2012-02-17T15:19:50Z</time>
      </trkpt>
      <trkpt lat="44.052" lon="4.12197">
        <ele>177.02</ele>
        <time>2012-02-17T15:19:58Z</time>
      </trkpt>
      <trkpt lat="44.05224" lon="4.12192">
        <ele>174.14</ele>
        <time>2012-02-17T15:20:06Z</time>
      </trkpt>
      <trkpt lat="44.05241" lon="4.12188">
        <ele>173.17</ele>
        <time>2012-02-17T15:20:10Z</time>
      </trkpt>
      <trkpt lat="44.05261" lon="4.12183">
        <ele>171.25</ele>
        <time>2012-02-17T15:20:14Z</time>
      </trkpt>
      <trkpt lat="44.05293" lon="4.12176">
        <ele>167.41</ele>
        <time>2012-02-17T15:20:21Z</time>
      </trkpt>
      <trkpt lat="44.05303" lon="4.12176">
        <ele>165</ele>
        <time>2012-02-17T15:20:28Z</time>
      </trkpt>
      <trkpt lat="44.0531" lon="4.12178">
        <ele>164.04</ele>
        <time>2012-02-17T15:20:31Z</time>
      </trkpt>
      <trkpt lat="44.05335" lon="4.12187">
        <ele>163.08</ele>
        <time>2012-02-17T15:20:38Z</time>
      </trkpt>
      <trkpt lat="44.05345" lon="4.12188">
        <ele>163.56</ele>
        <time>2012-02-17T15:20:43Z</time>
      </trkpt>
      <trkpt lat="44.05348" lon="4.12189">
        <ele>165</ele>
        <time>2012-02-17T15:20:56Z</time>
      </trkpt>
      <trkpt lat="44.05348" lon="4.12189">
        <ele>164.52</ele>
        <time>2012-02-17T15:20:58Z</time>
      </trkpt>
      <trkpt lat="44.0535" lon="4.12189">
        <ele>164.04</ele>
        <time>2012-02-17T15:21:16Z</time>
      </trkpt>
      <trkpt lat="44.0535" lon="4.12189">
        <ele>164.52</ele>
        <time>2012-02-17T15:21:42Z</time>
      </trkpt>
      <trkpt lat="44.0535" lon="4.12189">
        <ele>164.52</ele>
        <time>2012-02-17T15:22:06Z</time>
      </trkpt>
      <trkpt lat="44.0535" lon="4.12189">
        <ele>164.52</ele>
        <time>2012-02-17T15:22:27Z</time>
      </trkpt>
      <trkpt lat="44.05353" lon="4.12193">
        <ele>165</ele>
        <time>2012-02-17T15:22:30Z</time>
      </trkpt>
      <trkpt lat="44.05354" lon="4.12248">
        <ele>164.04</ele>
        <time>2012-02-17T15:22:46Z</time>
      </trkpt>
      <trkpt lat="44.0534" lon="4.1231">
        <ele>160.68</ele>
        <time>2012-02-17T15:22:57Z</time>
      </trkpt>
      <trkpt lat="44.05338" lon="4.12316">
        <ele>160.2</ele>
        <time>2012-02-17T15:22:58Z</time>
      </trkpt>
      <trkpt lat="44.05333" lon="4.12335">
        <ele>158.75</ele>
        <time>2012-02-17T15:23:01Z</time>
      </trkpt>
      <trkpt lat="44.05325" lon="4.12363">
        <ele>157.31</ele>
        <time>2012-02-17T15:23:05Z</time>
      </trkpt>
      <trkpt lat="44.05315" lon="4.12393">
        <ele>155.87</ele>
        <time>2012-02-17T15:23:09Z</time>
      </trkpt>
      <trkpt lat="44.05298" lon="4.12437">
        <ele>152.03</ele>
        <time>2012-02-17T15:23:14Z</time>
      </trkpt>
      <trkpt lat="44.05292" lon="4.12455">
        <ele>151.54</ele>
        <time>2012-02-17T15:23:16Z</time>
      </trkpt>
      <trkpt lat="44.05273" lon="4.12523">
        <ele>147.22</ele>
        <time>2012-02-17T15:23:23Z</time>
      </trkpt>
      <trkpt lat="44.0527" lon="4.12534">
        <ele>146.74</ele>
        <time>2012-02-17T15:23:24Z</time>
      </trkpt>
      <trkpt lat="44.05253" lon="4.12618">
        <ele>143.37</ele>
        <time>2012-02-17T15:23:32Z</time>
      </trkpt>
      <trkpt lat="44.05251" lon="4.12628">
        <ele>142.89</ele>
        <time>2012-02-17T15:23:33Z</time>
      </trkpt>
      <trkpt lat="44.05248" lon="4.12649">
        <ele>141.93</ele>
        <time>2012-02-17T15:23:35Z</time>
      </trkpt>
      <trkpt lat="44.05249" lon="4.12659">
        <ele>141.45</ele>
        <time>2012-02-17T15:23:36Z</time>
      </trkpt>
      <trkpt lat="44.05252" lon="4.12669">
        <ele>140.97</ele>
        <time>2012-02-17T15:23:37Z</time>
      </trkpt>
      <trkpt lat="44.05255" lon="4.12678">
        <ele>140.49</ele>
        <time>2012-02-17T15:23:38Z</time>
      </trkpt>
      <trkpt lat="44.0526" lon="4.12686">
        <ele>140.01</ele>
        <time>2012-02-17T15:23:39Z</time>
      </trkpt>
      <trkpt lat="44.05305" lon="4.12764">
        <ele>136.64</ele>
        <time>2012-02-17T15:23:49Z</time>
      </trkpt>
      <trkpt lat="44.05344" lon="4.12841">
        <ele>136.64</ele>
        <time>2012-02-17T15:24:01Z</time>
      </trkpt>
      <trkpt lat="44.05352" lon="4.12871">
        <ele>136.64</ele>
        <time>2012-02-17T15:24:05Z</time>
      </trkpt>
      <trkpt lat="44.05353" lon="4.12879">
        <ele>136.64</ele>
        <time>2012-02-17T15:24:06Z</time>
      </trkpt>
      <trkpt lat="44.05353" lon="4.12912">
        <ele>136.16</ele>
        <time>2012-02-17T15:24:10Z</time>
      </trkpt>
      <trkpt lat="44.05329" lon="4.13018">
        <ele>136.64</ele>
        <time>2012-02-17T15:24:24Z</time>
      </trkpt>
      <trkpt lat="44.05315" lon="4.13064">
        <ele>137.61</ele>
        <time>2012-02-17T15:24:32Z</time>
      </trkpt>
      <trkpt lat="44.05312" lon="4.13065">
        <ele>138.09</ele>
        <time>2012-02-17T15:24:33Z</time>
      </trkpt>
      <trkpt lat="44.05308" lon="4.13064">
        <ele>137.61</ele>
        <time>2012-02-17T15:24:34Z</time>
      </trkpt>
      <trkpt lat="44.05293" lon="4.13066">
        <ele>136.64</ele>
        <time>2012-02-17T15:24:37Z</time>
      </trkpt>
      <trkpt lat="44.05284" lon="4.13068">
        <ele>137.13</ele>
        <time>2012-02-17T15:24:39Z</time>
      </trkpt>
      <trkpt lat="44.05281" lon="4.13068">
        <ele>136.64</ele>
        <time>2012-02-17T15:24:40Z</time>
      </trkpt>
      <trkpt lat="44.0526" lon="4.13075">
        <ele>136.64</ele>
        <time>2012-02-17T15:24:45Z</time>
      </trkpt>
      <trkpt lat="44.05217" lon="4.13106">
        <ele>135.68</ele>
        <time>2012-02-17T15:24:54Z</time>
      </trkpt>
      <trkpt lat="44.05194" lon="4.13132">
        <ele>134.72</ele>
        <time>2012-02-17T15:24:59Z</time>
      </trkpt>
      <trkpt lat="44.05161" lon="4.13167">
        <ele>133.28</ele>
        <time>2012-02-17T15:25:05Z</time>
      </trkpt>
      <trkpt lat="44.05088" lon="4.13241">
        <ele>131.36</ele>
        <time>2012-02-17T15:25:18Z</time>
      </trkpt>
      <trkpt lat="44.05027" lon="4.13314">
        <ele>129.92</ele>
        <time>2012-02-17T15:25:28Z</time>
      </trkpt>
      <trkpt lat="44.05023" lon="4.13323">
        <ele>129.92</ele>
        <time>2012-02-17T15:25:29Z</time>
      </trkpt>
      <trkpt lat="44.05019" lon="4.13333">
        <ele>127.99</ele>
        <time>2012-02-17T15:25:30Z</time>
      </trkpt>
      <trkpt lat="44.05017" lon="4.13343">
        <ele>128.95</ele>
        <time>2012-02-17T15:25:31Z</time>
      </trkpt>
      <trkpt lat="44.05016" lon="4.13353">
        <ele>127.99</ele>
        <time>2012-02-17T15:25:32Z</time>
      </trkpt>
      <trkpt lat="44.05015" lon="4.13364">
        <ele>128.47</ele>
        <time>2012-02-17T15:25:33Z</time>
      </trkpt>
      <trkpt lat="44.05015" lon="4.13375">
        <ele>128.47</ele>
        <time>2012-02-17T15:25:34Z</time>
      </trkpt>
      <trkpt lat="44.05015" lon="4.13503">
        <ele>127.99</ele>
        <time>2012-02-17T15:25:46Z</time>
      </trkpt>
      <trkpt lat="44.05017" lon="4.13628">
        <ele>126.55</ele>
        <time>2012-02-17T15:25:59Z</time>
      </trkpt>
      <trkpt lat="44.05018" lon="4.13647">
        <ele>125.59</ele>
        <time>2012-02-17T15:26:01Z</time>
      </trkpt>
      <trkpt lat="44.05018" lon="4.13769">
        <ele>123.67</ele>
        <time>2012-02-17T15:26:13Z</time>
      </trkpt>
      <trkpt lat="44.05019" lon="4.13891">
        <ele>120.78</ele>
        <time>2012-02-17T15:26:25Z</time>
      </trkpt>
      <trkpt lat="44.05016" lon="4.13988">
        <ele>119.34</ele>
        <time>2012-02-17T15:26:35Z</time>
      </trkpt>
      <trkpt lat="44.05013" lon="4.13997">
        <ele>118.86</ele>
        <time>2012-02-17T15:26:36Z</time>
      </trkpt>
      <trkpt lat="44.0501" lon="4.14005">
        <ele>119.34</ele>
        <time>2012-02-17T15:26:37Z</time>
      </trkpt>
      <trkpt lat="44.04992" lon="4.14037">
        <ele>118.38</ele>
        <time>2012-02-17T15:26:42Z</time>
      </trkpt>
      <trkpt lat="44.04982" lon="4.14054">
        <ele>117.9</ele>
        <time>2012-02-17T15:26:45Z</time>
      </trkpt>
      <trkpt lat="44.04981" lon="4.1406">
        <ele>117.42</ele>
        <time>2012-02-17T15:26:46Z</time>
      </trkpt>
      <trkpt lat="44.04982" lon="4.14066">
        <ele>118.38</ele>
        <time>2012-02-17T15:26:47Z</time>
      </trkpt>
      <trkpt lat="44.04984" lon="4.14071">
        <ele>117.9</ele>
        <time>2012-02-17T15:26:48Z</time>
      </trkpt>
      <trkpt lat="44.04987" lon="4.14075">
        <ele>117.9</ele>
        <time>2012-02-17T15:26:49Z</time>
      </trkpt>
      <trkpt lat="44.0499" lon="4.14077">
        <ele>118.38</ele>
        <time>2012-02-17T15:26:50Z</time>
      </trkpt>
      <trkpt lat="44.04992" lon="4.1408">
        <ele>118.38</ele>
        <time>2012-02-17T15:26:51Z</time>
      </trkpt>
      <trkpt lat="44.04993" lon="4.14084">
        <ele>118.38</ele>
        <time>2012-02-17T15:26:52Z</time>
      </trkpt>
      <trkpt lat="44.04993" lon="4.14087">
        <ele>118.86</ele>
        <time>2012-02-17T15:26:53Z</time>
      </trkpt>
      <trkpt lat="44.04992" lon="4.1409">
        <ele>118.38</ele>
        <time>2012-02-17T15:26:54Z</time>
      </trkpt>
      <trkpt lat="44.04991" lon="4.14092">
        <ele>118.38</ele>
        <time>2012-02-17T15:26:55Z</time>
      </trkpt>
      <trkpt lat="44.04989" lon="4.14092">
        <ele>118.38</ele>
        <time>2012-02-17T15:26:56Z</time>
      </trkpt>
      <trkpt lat="44.04987" lon="4.14093">
        <ele>117.9</ele>
        <time>2012-02-17T15:26:57Z</time>
      </trkpt>
      <trkpt lat="44.04985" lon="4.14093">
        <ele>118.38</ele>
        <time>2012-02-17T15:26:58Z</time>
      </trkpt>
      <trkpt lat="44.04983" lon="4.14095">
        <ele>117.9</ele>
        <time>2012-02-17T15:27:08Z</time>
      </trkpt>
      <trkpt lat="44.04983" lon="4.14095">
        <ele>118.38</ele>
        <time>2012-02-17T15:27:33Z</time>
      </trkpt>
    </trkseg>
  </trk>
</gpx>